<?xml version="1.0" encoding="UTF-8" standalone="no" ?>
<gpx xmlns="http://www.topografix.com/GPX/1/1" xmlns:xsi="http://www.w3.org/2001/XMLSchema-instance" xsi:schemaLocation="http://www.topografix.com/GPX/1/1 http://www.topografix.com/GPX/1/1/gpx.xsd" version="1.1" creator="VisuGPX - https://www.visugpx.com">
  <metadata>
    <name>Marche Nordique</name>
    <desc><![CDATA[Sur la neige !!!
Super]]></desc>
  </metadata>
  <trk>
    <name><![CDATA[08/12/12 08:02]]></name>
    <desc><![CDATA[]]></desc>
    <trkseg>
      <trkpt lat="47.28633" lon="4.91979">
        <ele>661</ele>
        <time>2012-12-08T07:05:24Z</time>
      </trkpt>
      <trkpt lat="47.28631" lon="4.91971">
        <ele>655</ele>
        <time>2012-12-08T07:05:25Z</time>
      </trkpt>
      <trkpt lat="47.28635" lon="4.9201">
        <ele>650</ele>
        <time>2012-12-08T07:05:26Z</time>
      </trkpt>
      <trkpt lat="47.28626" lon="4.92017">
        <ele>647</ele>
        <time>2012-12-08T07:05:27Z</time>
      </trkpt>
      <trkpt lat="47.28612" lon="4.92044">
        <ele>676</ele>
        <time>2012-12-08T07:05:28Z</time>
      </trkpt>
      <trkpt lat="47.28607" lon="4.92067">
        <ele>663</ele>
        <time>2012-12-08T07:05:29Z</time>
      </trkpt>
      <trkpt lat="47.28606" lon="4.92076">
        <ele>662</ele>
        <time>2012-12-08T07:05:30Z</time>
      </trkpt>
      <trkpt lat="47.28606" lon="4.92076">
        <ele>662</ele>
        <time>2012-12-08T07:05:30Z</time>
      </trkpt>
      <trkpt lat="47.28606" lon="4.92076">
        <ele>662</ele>
        <time>2012-12-08T07:05:32Z</time>
      </trkpt>
      <trkpt lat="47.2859" lon="4.92072">
        <ele>671</ele>
        <time>2012-12-08T07:05:35Z</time>
      </trkpt>
      <trkpt lat="47.2858" lon="4.92064">
        <ele>681</ele>
        <time>2012-12-08T07:05:37Z</time>
      </trkpt>
      <trkpt lat="47.28574" lon="4.92062">
        <ele>685</ele>
        <time>2012-12-08T07:05:38Z</time>
      </trkpt>
      <trkpt lat="47.2857" lon="4.92057">
        <ele>688</ele>
        <time>2012-12-08T07:05:39Z</time>
      </trkpt>
      <trkpt lat="47.28564" lon="4.92061">
        <ele>692</ele>
        <time>2012-12-08T07:05:41Z</time>
      </trkpt>
      <trkpt lat="47.2856" lon="4.92059">
        <ele>692</ele>
        <time>2012-12-08T07:05:43Z</time>
      </trkpt>
      <trkpt lat="47.28554" lon="4.92058">
        <ele>695</ele>
        <time>2012-12-08T07:05:44Z</time>
      </trkpt>
      <trkpt lat="47.28541" lon="4.9207">
        <ele>680</ele>
        <time>2012-12-08T07:05:46Z</time>
      </trkpt>
      <trkpt lat="47.28537" lon="4.92081">
        <ele>671</ele>
        <time>2012-12-08T07:05:49Z</time>
      </trkpt>
      <trkpt lat="47.28537" lon="4.92101">
        <ele>651</ele>
        <time>2012-12-08T07:05:52Z</time>
      </trkpt>
      <trkpt lat="47.28532" lon="4.92096">
        <ele>649</ele>
        <time>2012-12-08T07:06:00Z</time>
      </trkpt>
      <trkpt lat="47.28527" lon="4.92091">
        <ele>648</ele>
        <time>2012-12-08T07:06:05Z</time>
      </trkpt>
      <trkpt lat="47.285" lon="4.92091">
        <ele>645</ele>
        <time>2012-12-08T07:06:11Z</time>
      </trkpt>
      <trkpt lat="47.28493" lon="4.92088">
        <ele>643</ele>
        <time>2012-12-08T07:06:13Z</time>
      </trkpt>
      <trkpt lat="47.28488" lon="4.92088">
        <ele>643</ele>
        <time>2012-12-08T07:06:15Z</time>
      </trkpt>
      <trkpt lat="47.28483" lon="4.92086">
        <ele>642</ele>
        <time>2012-12-08T07:06:17Z</time>
      </trkpt>
      <trkpt lat="47.28479" lon="4.92081">
        <ele>641</ele>
        <time>2012-12-08T07:06:25Z</time>
      </trkpt>
      <trkpt lat="47.28473" lon="4.92079">
        <ele>641</ele>
        <time>2012-12-08T07:06:29Z</time>
      </trkpt>
      <trkpt lat="47.28468" lon="4.9208">
        <ele>642</ele>
        <time>2012-12-08T07:06:32Z</time>
      </trkpt>
      <trkpt lat="47.28461" lon="4.9208">
        <ele>642</ele>
        <time>2012-12-08T07:06:36Z</time>
      </trkpt>
      <trkpt lat="47.28456" lon="4.92082">
        <ele>643</ele>
        <time>2012-12-08T07:06:40Z</time>
      </trkpt>
      <trkpt lat="47.28451" lon="4.92083">
        <ele>642</ele>
        <time>2012-12-08T07:06:41Z</time>
      </trkpt>
      <trkpt lat="47.28446" lon="4.92082">
        <ele>642</ele>
        <time>2012-12-08T07:06:44Z</time>
      </trkpt>
      <trkpt lat="47.28447" lon="4.92073">
        <ele>641</ele>
        <time>2012-12-08T07:06:47Z</time>
      </trkpt>
      <trkpt lat="47.28445" lon="4.92067">
        <ele>642</ele>
        <time>2012-12-08T07:06:54Z</time>
      </trkpt>
      <trkpt lat="47.28446" lon="4.92059">
        <ele>640</ele>
        <time>2012-12-08T07:07:01Z</time>
      </trkpt>
      <trkpt lat="47.28443" lon="4.92054">
        <ele>638</ele>
        <time>2012-12-08T07:07:06Z</time>
      </trkpt>
      <trkpt lat="47.28439" lon="4.92052">
        <ele>638</ele>
        <time>2012-12-08T07:07:08Z</time>
      </trkpt>
      <trkpt lat="47.28435" lon="4.92046">
        <ele>638</ele>
        <time>2012-12-08T07:07:14Z</time>
      </trkpt>
      <trkpt lat="47.28431" lon="4.92042">
        <ele>638</ele>
        <time>2012-12-08T07:07:18Z</time>
      </trkpt>
      <trkpt lat="47.28428" lon="4.92037">
        <ele>637</ele>
        <time>2012-12-08T07:07:23Z</time>
      </trkpt>
      <trkpt lat="47.28424" lon="4.92032">
        <ele>635</ele>
        <time>2012-12-08T07:07:26Z</time>
      </trkpt>
      <trkpt lat="47.28418" lon="4.92028">
        <ele>636</ele>
        <time>2012-12-08T07:07:34Z</time>
      </trkpt>
      <trkpt lat="47.28413" lon="4.92025">
        <ele>636</ele>
        <time>2012-12-08T07:07:37Z</time>
      </trkpt>
      <trkpt lat="47.28408" lon="4.92023">
        <ele>636</ele>
        <time>2012-12-08T07:07:39Z</time>
      </trkpt>
      <trkpt lat="47.28404" lon="4.9202">
        <ele>634</ele>
        <time>2012-12-08T07:07:47Z</time>
      </trkpt>
      <trkpt lat="47.28398" lon="4.92014">
        <ele>632</ele>
        <time>2012-12-08T07:08:01Z</time>
      </trkpt>
      <trkpt lat="47.28396" lon="4.92008">
        <ele>631</ele>
        <time>2012-12-08T07:08:03Z</time>
      </trkpt>
      <trkpt lat="47.28389" lon="4.92004">
        <ele>630</ele>
        <time>2012-12-08T07:08:06Z</time>
      </trkpt>
      <trkpt lat="47.28382" lon="4.92001">
        <ele>629</ele>
        <time>2012-12-08T07:08:08Z</time>
      </trkpt>
      <trkpt lat="47.28377" lon="4.91995">
        <ele>628</ele>
        <time>2012-12-08T07:08:10Z</time>
      </trkpt>
      <trkpt lat="47.28373" lon="4.91991">
        <ele>628</ele>
        <time>2012-12-08T07:08:13Z</time>
      </trkpt>
      <trkpt lat="47.28369" lon="4.91986">
        <ele>628</ele>
        <time>2012-12-08T07:08:15Z</time>
      </trkpt>
      <trkpt lat="47.28364" lon="4.9198">
        <ele>627</ele>
        <time>2012-12-08T07:08:18Z</time>
      </trkpt>
      <trkpt lat="47.28364" lon="4.9198">
        <ele>627</ele>
        <time>2012-12-08T07:08:18Z</time>
      </trkpt>
      <trkpt lat="47.28364" lon="4.9198">
        <ele>627</ele>
        <time>2012-12-08T07:08:19Z</time>
      </trkpt>
      <trkpt lat="47.28358" lon="4.91976">
        <ele>624</ele>
        <time>2012-12-08T07:08:29Z</time>
      </trkpt>
      <trkpt lat="47.28355" lon="4.9197">
        <ele>625</ele>
        <time>2012-12-08T07:08:33Z</time>
      </trkpt>
      <trkpt lat="47.28353" lon="4.91961">
        <ele>625</ele>
        <time>2012-12-08T07:08:52Z</time>
      </trkpt>
      <trkpt lat="47.2835" lon="4.91956">
        <ele>624</ele>
        <time>2012-12-08T07:09:00Z</time>
      </trkpt>
      <trkpt lat="47.2835" lon="4.91956">
        <ele>624</ele>
        <time>2012-12-08T07:09:00Z</time>
      </trkpt>
      <trkpt lat="47.2835" lon="4.91956">
        <ele>624</ele>
        <time>2012-12-08T07:09:01Z</time>
      </trkpt>
      <trkpt lat="47.28345" lon="4.91952">
        <ele>622</ele>
        <time>2012-12-08T07:09:07Z</time>
      </trkpt>
      <trkpt lat="47.28341" lon="4.91949">
        <ele>622</ele>
        <time>2012-12-08T07:09:09Z</time>
      </trkpt>
      <trkpt lat="47.28337" lon="4.91944">
        <ele>621</ele>
        <time>2012-12-08T07:09:11Z</time>
      </trkpt>
      <trkpt lat="47.28332" lon="4.91936">
        <ele>620</ele>
        <time>2012-12-08T07:09:14Z</time>
      </trkpt>
      <trkpt lat="47.28327" lon="4.91932">
        <ele>619</ele>
        <time>2012-12-08T07:09:17Z</time>
      </trkpt>
      <trkpt lat="47.28324" lon="4.91925">
        <ele>620</ele>
        <time>2012-12-08T07:09:20Z</time>
      </trkpt>
      <trkpt lat="47.28319" lon="4.91924">
        <ele>619</ele>
        <time>2012-12-08T07:09:22Z</time>
      </trkpt>
      <trkpt lat="47.28314" lon="4.91923">
        <ele>618</ele>
        <time>2012-12-08T07:09:24Z</time>
      </trkpt>
      <trkpt lat="47.28308" lon="4.9192">
        <ele>619</ele>
        <time>2012-12-08T07:09:26Z</time>
      </trkpt>
      <trkpt lat="47.28304" lon="4.91916">
        <ele>618</ele>
        <time>2012-12-08T07:09:29Z</time>
      </trkpt>
      <trkpt lat="47.283" lon="4.91909">
        <ele>617</ele>
        <time>2012-12-08T07:09:32Z</time>
      </trkpt>
      <trkpt lat="47.28295" lon="4.91907">
        <ele>617</ele>
        <time>2012-12-08T07:09:34Z</time>
      </trkpt>
      <trkpt lat="47.28289" lon="4.91906">
        <ele>616</ele>
        <time>2012-12-08T07:09:36Z</time>
      </trkpt>
      <trkpt lat="47.28283" lon="4.91903">
        <ele>614</ele>
        <time>2012-12-08T07:09:39Z</time>
      </trkpt>
      <trkpt lat="47.28278" lon="4.91899">
        <ele>614</ele>
        <time>2012-12-08T07:09:42Z</time>
      </trkpt>
      <trkpt lat="47.28278" lon="4.91889">
        <ele>613</ele>
        <time>2012-12-08T07:09:47Z</time>
      </trkpt>
      <trkpt lat="47.28275" lon="4.91882">
        <ele>613</ele>
        <time>2012-12-08T07:09:50Z</time>
      </trkpt>
      <trkpt lat="47.28269" lon="4.91877">
        <ele>612</ele>
        <time>2012-12-08T07:09:53Z</time>
      </trkpt>
      <trkpt lat="47.28266" lon="4.91872">
        <ele>613</ele>
        <time>2012-12-08T07:09:56Z</time>
      </trkpt>
      <trkpt lat="47.2826" lon="4.91868">
        <ele>613</ele>
        <time>2012-12-08T07:09:58Z</time>
      </trkpt>
      <trkpt lat="47.28256" lon="4.91863">
        <ele>610</ele>
        <time>2012-12-08T07:10:02Z</time>
      </trkpt>
      <trkpt lat="47.28252" lon="4.91859">
        <ele>609</ele>
        <time>2012-12-08T07:10:05Z</time>
      </trkpt>
      <trkpt lat="47.28245" lon="4.91855">
        <ele>608</ele>
        <time>2012-12-08T07:10:08Z</time>
      </trkpt>
      <trkpt lat="47.28239" lon="4.91851">
        <ele>607</ele>
        <time>2012-12-08T07:10:12Z</time>
      </trkpt>
      <trkpt lat="47.28233" lon="4.91846">
        <ele>605</ele>
        <time>2012-12-08T07:10:16Z</time>
      </trkpt>
      <trkpt lat="47.2823" lon="4.91841">
        <ele>605</ele>
        <time>2012-12-08T07:10:18Z</time>
      </trkpt>
      <trkpt lat="47.28224" lon="4.91834">
        <ele>603</ele>
        <time>2012-12-08T07:10:22Z</time>
      </trkpt>
      <trkpt lat="47.28219" lon="4.91831">
        <ele>602</ele>
        <time>2012-12-08T07:10:26Z</time>
      </trkpt>
      <trkpt lat="47.28215" lon="4.91827">
        <ele>601</ele>
        <time>2012-12-08T07:10:29Z</time>
      </trkpt>
      <trkpt lat="47.28209" lon="4.91822">
        <ele>601</ele>
        <time>2012-12-08T07:10:32Z</time>
      </trkpt>
      <trkpt lat="47.28206" lon="4.91818">
        <ele>600</ele>
        <time>2012-12-08T07:10:35Z</time>
      </trkpt>
      <trkpt lat="47.282" lon="4.91814">
        <ele>599</ele>
        <time>2012-12-08T07:10:39Z</time>
      </trkpt>
      <trkpt lat="47.28195" lon="4.9181">
        <ele>598</ele>
        <time>2012-12-08T07:10:41Z</time>
      </trkpt>
      <trkpt lat="47.28189" lon="4.91808">
        <ele>598</ele>
        <time>2012-12-08T07:10:43Z</time>
      </trkpt>
      <trkpt lat="47.28186" lon="4.91803">
        <ele>597</ele>
        <time>2012-12-08T07:10:45Z</time>
      </trkpt>
      <trkpt lat="47.28181" lon="4.91799">
        <ele>595</ele>
        <time>2012-12-08T07:10:49Z</time>
      </trkpt>
      <trkpt lat="47.28179" lon="4.91793">
        <ele>593</ele>
        <time>2012-12-08T07:10:52Z</time>
      </trkpt>
      <trkpt lat="47.28174" lon="4.91785">
        <ele>590</ele>
        <time>2012-12-08T07:10:58Z</time>
      </trkpt>
      <trkpt lat="47.28173" lon="4.91777">
        <ele>585</ele>
        <time>2012-12-08T07:11:01Z</time>
      </trkpt>
      <trkpt lat="47.28176" lon="4.91771">
        <ele>584</ele>
        <time>2012-12-08T07:11:03Z</time>
      </trkpt>
      <trkpt lat="47.28179" lon="4.91765">
        <ele>581</ele>
        <time>2012-12-08T07:11:07Z</time>
      </trkpt>
      <trkpt lat="47.28182" lon="4.91762">
        <ele>579</ele>
        <time>2012-12-08T07:11:10Z</time>
      </trkpt>
      <trkpt lat="47.28188" lon="4.91758">
        <ele>579</ele>
        <time>2012-12-08T07:11:13Z</time>
      </trkpt>
      <trkpt lat="47.28193" lon="4.91754">
        <ele>578</ele>
        <time>2012-12-08T07:11:16Z</time>
      </trkpt>
      <trkpt lat="47.28198" lon="4.91749">
        <ele>577</ele>
        <time>2012-12-08T07:11:19Z</time>
      </trkpt>
      <trkpt lat="47.28202" lon="4.91744">
        <ele>576</ele>
        <time>2012-12-08T07:11:22Z</time>
      </trkpt>
      <trkpt lat="47.28208" lon="4.91744">
        <ele>577</ele>
        <time>2012-12-08T07:11:25Z</time>
      </trkpt>
      <trkpt lat="47.28212" lon="4.91743">
        <ele>578</ele>
        <time>2012-12-08T07:11:28Z</time>
      </trkpt>
      <trkpt lat="47.28217" lon="4.91741">
        <ele>578</ele>
        <time>2012-12-08T07:11:31Z</time>
      </trkpt>
      <trkpt lat="47.28222" lon="4.91736">
        <ele>578</ele>
        <time>2012-12-08T07:11:34Z</time>
      </trkpt>
      <trkpt lat="47.28228" lon="4.91736">
        <ele>577</ele>
        <time>2012-12-08T07:11:38Z</time>
      </trkpt>
      <trkpt lat="47.28233" lon="4.91728">
        <ele>578</ele>
        <time>2012-12-08T07:11:42Z</time>
      </trkpt>
      <trkpt lat="47.28237" lon="4.91723">
        <ele>578</ele>
        <time>2012-12-08T07:11:44Z</time>
      </trkpt>
      <trkpt lat="47.28242" lon="4.91719">
        <ele>578</ele>
        <time>2012-12-08T07:11:47Z</time>
      </trkpt>
      <trkpt lat="47.28247" lon="4.91719">
        <ele>579</ele>
        <time>2012-12-08T07:11:50Z</time>
      </trkpt>
      <trkpt lat="47.28253" lon="4.91721">
        <ele>577</ele>
        <time>2012-12-08T07:11:52Z</time>
      </trkpt>
      <trkpt lat="47.28259" lon="4.91721">
        <ele>577</ele>
        <time>2012-12-08T07:11:55Z</time>
      </trkpt>
      <trkpt lat="47.28264" lon="4.91719">
        <ele>577</ele>
        <time>2012-12-08T07:11:58Z</time>
      </trkpt>
      <trkpt lat="47.28269" lon="4.91718">
        <ele>576</ele>
        <time>2012-12-08T07:12:01Z</time>
      </trkpt>
      <trkpt lat="47.28275" lon="4.91715">
        <ele>574</ele>
        <time>2012-12-08T07:12:04Z</time>
      </trkpt>
      <trkpt lat="47.28281" lon="4.91715">
        <ele>574</ele>
        <time>2012-12-08T07:12:07Z</time>
      </trkpt>
      <trkpt lat="47.28286" lon="4.91716">
        <ele>572</ele>
        <time>2012-12-08T07:12:10Z</time>
      </trkpt>
      <trkpt lat="47.28291" lon="4.91719">
        <ele>572</ele>
        <time>2012-12-08T07:12:12Z</time>
      </trkpt>
      <trkpt lat="47.28297" lon="4.91722">
        <ele>570</ele>
        <time>2012-12-08T07:12:15Z</time>
      </trkpt>
      <trkpt lat="47.28303" lon="4.91724">
        <ele>568</ele>
        <time>2012-12-08T07:12:18Z</time>
      </trkpt>
      <trkpt lat="47.28308" lon="4.9173">
        <ele>567</ele>
        <time>2012-12-08T07:12:20Z</time>
      </trkpt>
      <trkpt lat="47.28314" lon="4.91734">
        <ele>566</ele>
        <time>2012-12-08T07:12:23Z</time>
      </trkpt>
      <trkpt lat="47.28319" lon="4.91737">
        <ele>565</ele>
        <time>2012-12-08T07:12:26Z</time>
      </trkpt>
      <trkpt lat="47.28324" lon="4.91741">
        <ele>565</ele>
        <time>2012-12-08T07:12:28Z</time>
      </trkpt>
      <trkpt lat="47.28328" lon="4.91743">
        <ele>565</ele>
        <time>2012-12-08T07:12:31Z</time>
      </trkpt>
      <trkpt lat="47.28333" lon="4.91747">
        <ele>564</ele>
        <time>2012-12-08T07:12:35Z</time>
      </trkpt>
      <trkpt lat="47.2834" lon="4.9175">
        <ele>562</ele>
        <time>2012-12-08T07:12:38Z</time>
      </trkpt>
      <trkpt lat="47.28345" lon="4.91751">
        <ele>560</ele>
        <time>2012-12-08T07:12:41Z</time>
      </trkpt>
      <trkpt lat="47.28352" lon="4.91754">
        <ele>561</ele>
        <time>2012-12-08T07:12:45Z</time>
      </trkpt>
      <trkpt lat="47.28357" lon="4.91758">
        <ele>560</ele>
        <time>2012-12-08T07:12:48Z</time>
      </trkpt>
      <trkpt lat="47.28363" lon="4.91763">
        <ele>558</ele>
        <time>2012-12-08T07:12:51Z</time>
      </trkpt>
      <trkpt lat="47.28368" lon="4.91763">
        <ele>558</ele>
        <time>2012-12-08T07:12:53Z</time>
      </trkpt>
      <trkpt lat="47.28372" lon="4.91766">
        <ele>556</ele>
        <time>2012-12-08T07:12:55Z</time>
      </trkpt>
      <trkpt lat="47.28377" lon="4.91768">
        <ele>556</ele>
        <time>2012-12-08T07:12:58Z</time>
      </trkpt>
      <trkpt lat="47.28381" lon="4.9177">
        <ele>557</ele>
        <time>2012-12-08T07:13:01Z</time>
      </trkpt>
      <trkpt lat="47.28386" lon="4.91773">
        <ele>556</ele>
        <time>2012-12-08T07:13:05Z</time>
      </trkpt>
      <trkpt lat="47.28392" lon="4.91776">
        <ele>556</ele>
        <time>2012-12-08T07:13:08Z</time>
      </trkpt>
      <trkpt lat="47.28398" lon="4.91779">
        <ele>556</ele>
        <time>2012-12-08T07:13:11Z</time>
      </trkpt>
      <trkpt lat="47.28404" lon="4.91782">
        <ele>556</ele>
        <time>2012-12-08T07:13:13Z</time>
      </trkpt>
      <trkpt lat="47.28408" lon="4.91788">
        <ele>556</ele>
        <time>2012-12-08T07:13:16Z</time>
      </trkpt>
      <trkpt lat="47.28413" lon="4.9179">
        <ele>555</ele>
        <time>2012-12-08T07:13:18Z</time>
      </trkpt>
      <trkpt lat="47.28417" lon="4.91794">
        <ele>554</ele>
        <time>2012-12-08T07:13:22Z</time>
      </trkpt>
      <trkpt lat="47.28422" lon="4.91796">
        <ele>555</ele>
        <time>2012-12-08T07:13:26Z</time>
      </trkpt>
      <trkpt lat="47.28426" lon="4.91797">
        <ele>555</ele>
        <time>2012-12-08T07:13:28Z</time>
      </trkpt>
      <trkpt lat="47.28431" lon="4.91797">
        <ele>555</ele>
        <time>2012-12-08T07:13:31Z</time>
      </trkpt>
      <trkpt lat="47.28436" lon="4.91801">
        <ele>556</ele>
        <time>2012-12-08T07:13:34Z</time>
      </trkpt>
      <trkpt lat="47.28442" lon="4.91802">
        <ele>556</ele>
        <time>2012-12-08T07:13:38Z</time>
      </trkpt>
      <trkpt lat="47.28447" lon="4.91802">
        <ele>555</ele>
        <time>2012-12-08T07:13:42Z</time>
      </trkpt>
      <trkpt lat="47.28452" lon="4.918">
        <ele>555</ele>
        <time>2012-12-08T07:13:45Z</time>
      </trkpt>
      <trkpt lat="47.28457" lon="4.91798">
        <ele>556</ele>
        <time>2012-12-08T07:13:49Z</time>
      </trkpt>
      <trkpt lat="47.28462" lon="4.918">
        <ele>556</ele>
        <time>2012-12-08T07:13:54Z</time>
      </trkpt>
      <trkpt lat="47.28467" lon="4.91802">
        <ele>556</ele>
        <time>2012-12-08T07:14:00Z</time>
      </trkpt>
      <trkpt lat="47.28473" lon="4.91804">
        <ele>555</ele>
        <time>2012-12-08T07:14:03Z</time>
      </trkpt>
      <trkpt lat="47.28478" lon="4.91803">
        <ele>555</ele>
        <time>2012-12-08T07:14:06Z</time>
      </trkpt>
      <trkpt lat="47.28484" lon="4.91801">
        <ele>556</ele>
        <time>2012-12-08T07:14:09Z</time>
      </trkpt>
      <trkpt lat="47.28489" lon="4.91801">
        <ele>555</ele>
        <time>2012-12-08T07:14:13Z</time>
      </trkpt>
      <trkpt lat="47.28494" lon="4.91803">
        <ele>558</ele>
        <time>2012-12-08T07:14:18Z</time>
      </trkpt>
      <trkpt lat="47.28499" lon="4.91805">
        <ele>558</ele>
        <time>2012-12-08T07:14:21Z</time>
      </trkpt>
      <trkpt lat="47.28506" lon="4.91806">
        <ele>557</ele>
        <time>2012-12-08T07:14:27Z</time>
      </trkpt>
      <trkpt lat="47.28512" lon="4.91806">
        <ele>558</ele>
        <time>2012-12-08T07:14:29Z</time>
      </trkpt>
      <trkpt lat="47.28516" lon="4.91808">
        <ele>557</ele>
        <time>2012-12-08T07:14:32Z</time>
      </trkpt>
      <trkpt lat="47.28521" lon="4.9181">
        <ele>556</ele>
        <time>2012-12-08T07:14:34Z</time>
      </trkpt>
      <trkpt lat="47.28525" lon="4.91808">
        <ele>557</ele>
        <time>2012-12-08T07:14:37Z</time>
      </trkpt>
      <trkpt lat="47.28532" lon="4.91807">
        <ele>558</ele>
        <time>2012-12-08T07:14:41Z</time>
      </trkpt>
      <trkpt lat="47.28537" lon="4.91806">
        <ele>558</ele>
        <time>2012-12-08T07:14:44Z</time>
      </trkpt>
      <trkpt lat="47.28544" lon="4.91807">
        <ele>558</ele>
        <time>2012-12-08T07:14:49Z</time>
      </trkpt>
      <trkpt lat="47.28549" lon="4.91809">
        <ele>556</ele>
        <time>2012-12-08T07:14:52Z</time>
      </trkpt>
      <trkpt lat="47.28554" lon="4.91809">
        <ele>556</ele>
        <time>2012-12-08T07:14:56Z</time>
      </trkpt>
      <trkpt lat="47.28554" lon="4.91809">
        <ele>556</ele>
        <time>2012-12-08T07:14:56Z</time>
      </trkpt>
      <trkpt lat="47.28554" lon="4.91809">
        <ele>556</ele>
        <time>2012-12-08T07:14:57Z</time>
      </trkpt>
      <trkpt lat="47.2856" lon="4.91812">
        <ele>555</ele>
        <time>2012-12-08T07:15:01Z</time>
      </trkpt>
      <trkpt lat="47.28565" lon="4.91814">
        <ele>555</ele>
        <time>2012-12-08T07:15:04Z</time>
      </trkpt>
      <trkpt lat="47.2857" lon="4.91814">
        <ele>555</ele>
        <time>2012-12-08T07:15:08Z</time>
      </trkpt>
      <trkpt lat="47.28575" lon="4.91814">
        <ele>555</ele>
        <time>2012-12-08T07:15:11Z</time>
      </trkpt>
      <trkpt lat="47.2858" lon="4.91815">
        <ele>555</ele>
        <time>2012-12-08T07:15:15Z</time>
      </trkpt>
      <trkpt lat="47.2858" lon="4.91815">
        <ele>555</ele>
        <time>2012-12-08T07:15:15Z</time>
      </trkpt>
      <trkpt lat="47.2858" lon="4.91815">
        <ele>556</ele>
        <time>2012-12-08T07:15:17Z</time>
      </trkpt>
      <trkpt lat="47.28585" lon="4.91817">
        <ele>557</ele>
        <time>2012-12-08T07:15:21Z</time>
      </trkpt>
      <trkpt lat="47.2859" lon="4.91817">
        <ele>556</ele>
        <time>2012-12-08T07:15:23Z</time>
      </trkpt>
      <trkpt lat="47.28596" lon="4.91816">
        <ele>557</ele>
        <time>2012-12-08T07:15:25Z</time>
      </trkpt>
      <trkpt lat="47.28601" lon="4.91817">
        <ele>557</ele>
        <time>2012-12-08T07:15:27Z</time>
      </trkpt>
      <trkpt lat="47.28607" lon="4.9182">
        <ele>556</ele>
        <time>2012-12-08T07:15:30Z</time>
      </trkpt>
      <trkpt lat="47.28613" lon="4.9182">
        <ele>556</ele>
        <time>2012-12-08T07:15:34Z</time>
      </trkpt>
      <trkpt lat="47.28618" lon="4.9182">
        <ele>557</ele>
        <time>2012-12-08T07:15:36Z</time>
      </trkpt>
      <trkpt lat="47.28622" lon="4.9182">
        <ele>556</ele>
        <time>2012-12-08T07:15:41Z</time>
      </trkpt>
      <trkpt lat="47.28628" lon="4.91821">
        <ele>555</ele>
        <time>2012-12-08T07:15:44Z</time>
      </trkpt>
      <trkpt lat="47.28632" lon="4.9182">
        <ele>556</ele>
        <time>2012-12-08T07:15:48Z</time>
      </trkpt>
      <trkpt lat="47.28638" lon="4.91822">
        <ele>557</ele>
        <time>2012-12-08T07:15:51Z</time>
      </trkpt>
      <trkpt lat="47.28643" lon="4.91823">
        <ele>557</ele>
        <time>2012-12-08T07:15:54Z</time>
      </trkpt>
      <trkpt lat="47.28648" lon="4.91824">
        <ele>558</ele>
        <time>2012-12-08T07:15:57Z</time>
      </trkpt>
      <trkpt lat="47.28654" lon="4.91825">
        <ele>557</ele>
        <time>2012-12-08T07:16:01Z</time>
      </trkpt>
      <trkpt lat="47.28658" lon="4.91828">
        <ele>558</ele>
        <time>2012-12-08T07:16:04Z</time>
      </trkpt>
      <trkpt lat="47.28664" lon="4.9183">
        <ele>558</ele>
        <time>2012-12-08T07:16:07Z</time>
      </trkpt>
      <trkpt lat="47.2867" lon="4.9183">
        <ele>557</ele>
        <time>2012-12-08T07:16:11Z</time>
      </trkpt>
      <trkpt lat="47.28676" lon="4.9183">
        <ele>555</ele>
        <time>2012-12-08T07:16:16Z</time>
      </trkpt>
      <trkpt lat="47.28682" lon="4.91829">
        <ele>555</ele>
        <time>2012-12-08T07:16:20Z</time>
      </trkpt>
      <trkpt lat="47.28688" lon="4.9183">
        <ele>556</ele>
        <time>2012-12-08T07:16:24Z</time>
      </trkpt>
      <trkpt lat="47.28693" lon="4.91825">
        <ele>557</ele>
        <time>2012-12-08T07:16:27Z</time>
      </trkpt>
      <trkpt lat="47.287" lon="4.91825">
        <ele>557</ele>
        <time>2012-12-08T07:16:30Z</time>
      </trkpt>
      <trkpt lat="47.28705" lon="4.91824">
        <ele>558</ele>
        <time>2012-12-08T07:16:35Z</time>
      </trkpt>
      <trkpt lat="47.2871" lon="4.9182">
        <ele>559</ele>
        <time>2012-12-08T07:16:40Z</time>
      </trkpt>
      <trkpt lat="47.2871" lon="4.9182">
        <ele>559</ele>
        <time>2012-12-08T07:16:40Z</time>
      </trkpt>
      <trkpt lat="47.2871" lon="4.9182">
        <ele>560</ele>
        <time>2012-12-08T07:16:41Z</time>
      </trkpt>
      <trkpt lat="47.28714" lon="4.91826">
        <ele>558</ele>
        <time>2012-12-08T07:16:44Z</time>
      </trkpt>
      <trkpt lat="47.2872" lon="4.91826">
        <ele>557</ele>
        <time>2012-12-08T07:16:47Z</time>
      </trkpt>
      <trkpt lat="47.28726" lon="4.91825">
        <ele>558</ele>
        <time>2012-12-08T07:16:49Z</time>
      </trkpt>
      <trkpt lat="47.28732" lon="4.91824">
        <ele>558</ele>
        <time>2012-12-08T07:16:53Z</time>
      </trkpt>
      <trkpt lat="47.28737" lon="4.91824">
        <ele>559</ele>
        <time>2012-12-08T07:16:56Z</time>
      </trkpt>
      <trkpt lat="47.28742" lon="4.91823">
        <ele>558</ele>
        <time>2012-12-08T07:16:59Z</time>
      </trkpt>
      <trkpt lat="47.28748" lon="4.91826">
        <ele>558</ele>
        <time>2012-12-08T07:17:02Z</time>
      </trkpt>
      <trkpt lat="47.28752" lon="4.91829">
        <ele>558</ele>
        <time>2012-12-08T07:17:04Z</time>
      </trkpt>
      <trkpt lat="47.28758" lon="4.91832">
        <ele>558</ele>
        <time>2012-12-08T07:17:08Z</time>
      </trkpt>
      <trkpt lat="47.28762" lon="4.91829">
        <ele>559</ele>
        <time>2012-12-08T07:17:15Z</time>
      </trkpt>
      <trkpt lat="47.28767" lon="4.91828">
        <ele>559</ele>
        <time>2012-12-08T07:17:18Z</time>
      </trkpt>
      <trkpt lat="47.28771" lon="4.91832">
        <ele>559</ele>
        <time>2012-12-08T07:17:20Z</time>
      </trkpt>
      <trkpt lat="47.28776" lon="4.91831">
        <ele>557</ele>
        <time>2012-12-08T07:17:23Z</time>
      </trkpt>
      <trkpt lat="47.28783" lon="4.91829">
        <ele>557</ele>
        <time>2012-12-08T07:17:29Z</time>
      </trkpt>
      <trkpt lat="47.28788" lon="4.91831">
        <ele>556</ele>
        <time>2012-12-08T07:17:31Z</time>
      </trkpt>
      <trkpt lat="47.28793" lon="4.91833">
        <ele>558</ele>
        <time>2012-12-08T07:17:34Z</time>
      </trkpt>
      <trkpt lat="47.28798" lon="4.91835">
        <ele>560</ele>
        <time>2012-12-08T07:17:36Z</time>
      </trkpt>
      <trkpt lat="47.28803" lon="4.91834">
        <ele>562</ele>
        <time>2012-12-08T07:17:40Z</time>
      </trkpt>
      <trkpt lat="47.28808" lon="4.9183">
        <ele>562</ele>
        <time>2012-12-08T07:17:44Z</time>
      </trkpt>
      <trkpt lat="47.28813" lon="4.9183">
        <ele>563</ele>
        <time>2012-12-08T07:17:49Z</time>
      </trkpt>
      <trkpt lat="47.28818" lon="4.91828">
        <ele>562</ele>
        <time>2012-12-08T07:17:52Z</time>
      </trkpt>
      <trkpt lat="47.28824" lon="4.91833">
        <ele>561</ele>
        <time>2012-12-08T07:17:55Z</time>
      </trkpt>
      <trkpt lat="47.28828" lon="4.91836">
        <ele>561</ele>
        <time>2012-12-08T07:17:58Z</time>
      </trkpt>
      <trkpt lat="47.28833" lon="4.91837">
        <ele>562</ele>
        <time>2012-12-08T07:18:01Z</time>
      </trkpt>
      <trkpt lat="47.28838" lon="4.91842">
        <ele>562</ele>
        <time>2012-12-08T07:18:03Z</time>
      </trkpt>
      <trkpt lat="47.28842" lon="4.91847">
        <ele>561</ele>
        <time>2012-12-08T07:18:05Z</time>
      </trkpt>
      <trkpt lat="47.28847" lon="4.91845">
        <ele>560</ele>
        <time>2012-12-08T07:18:09Z</time>
      </trkpt>
      <trkpt lat="47.28854" lon="4.91849">
        <ele>559</ele>
        <time>2012-12-08T07:18:12Z</time>
      </trkpt>
      <trkpt lat="47.28858" lon="4.91852">
        <ele>559</ele>
        <time>2012-12-08T07:18:16Z</time>
      </trkpt>
      <trkpt lat="47.28863" lon="4.91854">
        <ele>560</ele>
        <time>2012-12-08T07:18:19Z</time>
      </trkpt>
      <trkpt lat="47.2887" lon="4.91853">
        <ele>560</ele>
        <time>2012-12-08T07:18:23Z</time>
      </trkpt>
      <trkpt lat="47.28874" lon="4.9186">
        <ele>560</ele>
        <time>2012-12-08T07:18:27Z</time>
      </trkpt>
      <trkpt lat="47.28878" lon="4.91868">
        <ele>559</ele>
        <time>2012-12-08T07:18:31Z</time>
      </trkpt>
      <trkpt lat="47.28883" lon="4.9187">
        <ele>558</ele>
        <time>2012-12-08T07:18:36Z</time>
      </trkpt>
      <trkpt lat="47.28887" lon="4.91863">
        <ele>558</ele>
        <time>2012-12-08T07:18:41Z</time>
      </trkpt>
      <trkpt lat="47.28893" lon="4.91864">
        <ele>557</ele>
        <time>2012-12-08T07:18:44Z</time>
      </trkpt>
      <trkpt lat="47.28898" lon="4.91869">
        <ele>557</ele>
        <time>2012-12-08T07:18:47Z</time>
      </trkpt>
      <trkpt lat="47.28904" lon="4.91875">
        <ele>556</ele>
        <time>2012-12-08T07:18:50Z</time>
      </trkpt>
      <trkpt lat="47.28911" lon="4.91876">
        <ele>556</ele>
        <time>2012-12-08T07:18:53Z</time>
      </trkpt>
      <trkpt lat="47.28916" lon="4.91878">
        <ele>556</ele>
        <time>2012-12-08T07:18:55Z</time>
      </trkpt>
      <trkpt lat="47.28921" lon="4.91882">
        <ele>554</ele>
        <time>2012-12-08T07:19:00Z</time>
      </trkpt>
      <trkpt lat="47.28927" lon="4.91886">
        <ele>555</ele>
        <time>2012-12-08T07:19:05Z</time>
      </trkpt>
      <trkpt lat="47.2893" lon="4.91891">
        <ele>555</ele>
        <time>2012-12-08T07:19:08Z</time>
      </trkpt>
      <trkpt lat="47.28936" lon="4.91895">
        <ele>555</ele>
        <time>2012-12-08T07:19:11Z</time>
      </trkpt>
      <trkpt lat="47.28942" lon="4.91895">
        <ele>556</ele>
        <time>2012-12-08T07:19:15Z</time>
      </trkpt>
      <trkpt lat="47.28946" lon="4.91898">
        <ele>555</ele>
        <time>2012-12-08T07:19:17Z</time>
      </trkpt>
      <trkpt lat="47.28951" lon="4.91904">
        <ele>553</ele>
        <time>2012-12-08T07:19:20Z</time>
      </trkpt>
      <trkpt lat="47.28953" lon="4.91911">
        <ele>553</ele>
        <time>2012-12-08T07:19:22Z</time>
      </trkpt>
      <trkpt lat="47.28957" lon="4.91918">
        <ele>553</ele>
        <time>2012-12-08T07:19:27Z</time>
      </trkpt>
      <trkpt lat="47.28964" lon="4.91919">
        <ele>554</ele>
        <time>2012-12-08T07:19:31Z</time>
      </trkpt>
      <trkpt lat="47.28967" lon="4.91926">
        <ele>553</ele>
        <time>2012-12-08T07:19:34Z</time>
      </trkpt>
      <trkpt lat="47.2897" lon="4.91932">
        <ele>553</ele>
        <time>2012-12-08T07:19:37Z</time>
      </trkpt>
      <trkpt lat="47.28974" lon="4.91939">
        <ele>549</ele>
        <time>2012-12-08T07:19:40Z</time>
      </trkpt>
      <trkpt lat="47.28978" lon="4.91943">
        <ele>548</ele>
        <time>2012-12-08T07:19:45Z</time>
      </trkpt>
      <trkpt lat="47.28982" lon="4.91948">
        <ele>550</ele>
        <time>2012-12-08T07:19:50Z</time>
      </trkpt>
      <trkpt lat="47.28987" lon="4.91951">
        <ele>553</ele>
        <time>2012-12-08T07:19:54Z</time>
      </trkpt>
      <trkpt lat="47.28991" lon="4.91954">
        <ele>555</ele>
        <time>2012-12-08T07:19:57Z</time>
      </trkpt>
      <trkpt lat="47.28997" lon="4.9196">
        <ele>556</ele>
        <time>2012-12-08T07:20:01Z</time>
      </trkpt>
      <trkpt lat="47.29" lon="4.91969">
        <ele>556</ele>
        <time>2012-12-08T07:20:04Z</time>
      </trkpt>
      <trkpt lat="47.29005" lon="4.91974">
        <ele>554</ele>
        <time>2012-12-08T07:20:07Z</time>
      </trkpt>
      <trkpt lat="47.2901" lon="4.91978">
        <ele>553</ele>
        <time>2012-12-08T07:20:10Z</time>
      </trkpt>
      <trkpt lat="47.29015" lon="4.91982">
        <ele>553</ele>
        <time>2012-12-08T07:20:13Z</time>
      </trkpt>
      <trkpt lat="47.2902" lon="4.91982">
        <ele>552</ele>
        <time>2012-12-08T07:20:17Z</time>
      </trkpt>
      <trkpt lat="47.29023" lon="4.91987">
        <ele>553</ele>
        <time>2012-12-08T07:20:21Z</time>
      </trkpt>
      <trkpt lat="47.29027" lon="4.91993">
        <ele>553</ele>
        <time>2012-12-08T07:20:25Z</time>
      </trkpt>
      <trkpt lat="47.29032" lon="4.91996">
        <ele>553</ele>
        <time>2012-12-08T07:20:28Z</time>
      </trkpt>
      <trkpt lat="47.29039" lon="4.92001">
        <ele>554</ele>
        <time>2012-12-08T07:20:32Z</time>
      </trkpt>
      <trkpt lat="47.29043" lon="4.92006">
        <ele>552</ele>
        <time>2012-12-08T07:20:35Z</time>
      </trkpt>
      <trkpt lat="47.29053" lon="4.92008">
        <ele>552</ele>
        <time>2012-12-08T07:20:47Z</time>
      </trkpt>
      <trkpt lat="47.29058" lon="4.92008">
        <ele>550</ele>
        <time>2012-12-08T07:20:49Z</time>
      </trkpt>
      <trkpt lat="47.29065" lon="4.9201">
        <ele>549</ele>
        <time>2012-12-08T07:20:52Z</time>
      </trkpt>
      <trkpt lat="47.29073" lon="4.92009">
        <ele>549</ele>
        <time>2012-12-08T07:20:55Z</time>
      </trkpt>
      <trkpt lat="47.29078" lon="4.9201">
        <ele>549</ele>
        <time>2012-12-08T07:20:57Z</time>
      </trkpt>
      <trkpt lat="47.29083" lon="4.92013">
        <ele>551</ele>
        <time>2012-12-08T07:21:00Z</time>
      </trkpt>
      <trkpt lat="47.2909" lon="4.92014">
        <ele>552</ele>
        <time>2012-12-08T07:21:04Z</time>
      </trkpt>
      <trkpt lat="47.29094" lon="4.92014">
        <ele>552</ele>
        <time>2012-12-08T07:21:06Z</time>
      </trkpt>
      <trkpt lat="47.29099" lon="4.92016">
        <ele>551</ele>
        <time>2012-12-08T07:21:08Z</time>
      </trkpt>
      <trkpt lat="47.29104" lon="4.92021">
        <ele>550</ele>
        <time>2012-12-08T07:21:11Z</time>
      </trkpt>
      <trkpt lat="47.29109" lon="4.92025">
        <ele>550</ele>
        <time>2012-12-08T07:21:14Z</time>
      </trkpt>
      <trkpt lat="47.29114" lon="4.92028">
        <ele>550</ele>
        <time>2012-12-08T07:21:17Z</time>
      </trkpt>
      <trkpt lat="47.29119" lon="4.92031">
        <ele>551</ele>
        <time>2012-12-08T07:21:20Z</time>
      </trkpt>
      <trkpt lat="47.29124" lon="4.92034">
        <ele>550</ele>
        <time>2012-12-08T07:21:23Z</time>
      </trkpt>
      <trkpt lat="47.29129" lon="4.92034">
        <ele>551</ele>
        <time>2012-12-08T07:21:26Z</time>
      </trkpt>
      <trkpt lat="47.29134" lon="4.92032">
        <ele>551</ele>
        <time>2012-12-08T07:21:29Z</time>
      </trkpt>
      <trkpt lat="47.29139" lon="4.92031">
        <ele>552</ele>
        <time>2012-12-08T07:21:33Z</time>
      </trkpt>
      <trkpt lat="47.29144" lon="4.92031">
        <ele>554</ele>
        <time>2012-12-08T07:21:37Z</time>
      </trkpt>
      <trkpt lat="47.29149" lon="4.92032">
        <ele>555</ele>
        <time>2012-12-08T07:21:42Z</time>
      </trkpt>
      <trkpt lat="47.29154" lon="4.92032">
        <ele>555</ele>
        <time>2012-12-08T07:21:45Z</time>
      </trkpt>
      <trkpt lat="47.29162" lon="4.92035">
        <ele>555</ele>
        <time>2012-12-08T07:21:54Z</time>
      </trkpt>
      <trkpt lat="47.29171" lon="4.92036">
        <ele>554</ele>
        <time>2012-12-08T07:21:56Z</time>
      </trkpt>
      <trkpt lat="47.29175" lon="4.92036">
        <ele>553</ele>
        <time>2012-12-08T07:21:57Z</time>
      </trkpt>
      <trkpt lat="47.2918" lon="4.92036">
        <ele>553</ele>
        <time>2012-12-08T07:22:00Z</time>
      </trkpt>
      <trkpt lat="47.29185" lon="4.92037">
        <ele>555</ele>
        <time>2012-12-08T07:22:02Z</time>
      </trkpt>
      <trkpt lat="47.2919" lon="4.92038">
        <ele>556</ele>
        <time>2012-12-08T07:22:05Z</time>
      </trkpt>
      <trkpt lat="47.29195" lon="4.92036">
        <ele>558</ele>
        <time>2012-12-08T07:22:09Z</time>
      </trkpt>
      <trkpt lat="47.292" lon="4.92036">
        <ele>558</ele>
        <time>2012-12-08T07:22:12Z</time>
      </trkpt>
      <trkpt lat="47.29205" lon="4.92039">
        <ele>557</ele>
        <time>2012-12-08T07:22:15Z</time>
      </trkpt>
      <trkpt lat="47.2921" lon="4.9204">
        <ele>557</ele>
        <time>2012-12-08T07:22:17Z</time>
      </trkpt>
      <trkpt lat="47.29216" lon="4.92044">
        <ele>556</ele>
        <time>2012-12-08T07:22:20Z</time>
      </trkpt>
      <trkpt lat="47.29222" lon="4.92048">
        <ele>555</ele>
        <time>2012-12-08T07:22:23Z</time>
      </trkpt>
      <trkpt lat="47.29266" lon="4.92047">
        <ele>558</ele>
        <time>2012-12-08T07:22:47Z</time>
      </trkpt>
      <trkpt lat="47.29271" lon="4.9206">
        <ele>556</ele>
        <time>2012-12-08T07:22:48Z</time>
      </trkpt>
      <trkpt lat="47.29276" lon="4.92063">
        <ele>556</ele>
        <time>2012-12-08T07:22:49Z</time>
      </trkpt>
      <trkpt lat="47.2928" lon="4.92067">
        <ele>557</ele>
        <time>2012-12-08T07:22:51Z</time>
      </trkpt>
      <trkpt lat="47.29285" lon="4.9207">
        <ele>555</ele>
        <time>2012-12-08T07:22:55Z</time>
      </trkpt>
      <trkpt lat="47.2929" lon="4.92074">
        <ele>551</ele>
        <time>2012-12-08T07:22:57Z</time>
      </trkpt>
      <trkpt lat="47.29294" lon="4.92079">
        <ele>551</ele>
        <time>2012-12-08T07:23:00Z</time>
      </trkpt>
      <trkpt lat="47.29298" lon="4.92082">
        <ele>553</ele>
        <time>2012-12-08T07:23:03Z</time>
      </trkpt>
      <trkpt lat="47.29302" lon="4.92086">
        <ele>552</ele>
        <time>2012-12-08T07:23:06Z</time>
      </trkpt>
      <trkpt lat="47.29307" lon="4.92088">
        <ele>552</ele>
        <time>2012-12-08T07:23:09Z</time>
      </trkpt>
      <trkpt lat="47.29311" lon="4.92092">
        <ele>552</ele>
        <time>2012-12-08T07:23:11Z</time>
      </trkpt>
      <trkpt lat="47.29316" lon="4.92097">
        <ele>550</ele>
        <time>2012-12-08T07:23:13Z</time>
      </trkpt>
      <trkpt lat="47.2932" lon="4.92104">
        <ele>551</ele>
        <time>2012-12-08T07:23:17Z</time>
      </trkpt>
      <trkpt lat="47.29326" lon="4.92109">
        <ele>552</ele>
        <time>2012-12-08T07:23:21Z</time>
      </trkpt>
      <trkpt lat="47.2933" lon="4.92112">
        <ele>551</ele>
        <time>2012-12-08T07:23:24Z</time>
      </trkpt>
      <trkpt lat="47.29335" lon="4.92114">
        <ele>549</ele>
        <time>2012-12-08T07:23:27Z</time>
      </trkpt>
      <trkpt lat="47.2934" lon="4.92121">
        <ele>550</ele>
        <time>2012-12-08T07:23:30Z</time>
      </trkpt>
      <trkpt lat="47.29346" lon="4.9212">
        <ele>549</ele>
        <time>2012-12-08T07:23:33Z</time>
      </trkpt>
      <trkpt lat="47.2935" lon="4.92125">
        <ele>548</ele>
        <time>2012-12-08T07:23:36Z</time>
      </trkpt>
      <trkpt lat="47.29354" lon="4.92127">
        <ele>548</ele>
        <time>2012-12-08T07:23:38Z</time>
      </trkpt>
      <trkpt lat="47.29358" lon="4.9213">
        <ele>548</ele>
        <time>2012-12-08T07:23:40Z</time>
      </trkpt>
      <trkpt lat="47.29363" lon="4.92134">
        <ele>549</ele>
        <time>2012-12-08T07:23:43Z</time>
      </trkpt>
      <trkpt lat="47.2937" lon="4.92134">
        <ele>551</ele>
        <time>2012-12-08T07:23:48Z</time>
      </trkpt>
      <trkpt lat="47.29374" lon="4.92133">
        <ele>551</ele>
        <time>2012-12-08T07:23:51Z</time>
      </trkpt>
      <trkpt lat="47.2938" lon="4.9213">
        <ele>550</ele>
        <time>2012-12-08T07:23:54Z</time>
      </trkpt>
      <trkpt lat="47.29385" lon="4.92128">
        <ele>550</ele>
        <time>2012-12-08T07:23:57Z</time>
      </trkpt>
      <trkpt lat="47.2939" lon="4.9213">
        <ele>549</ele>
        <time>2012-12-08T07:24:00Z</time>
      </trkpt>
      <trkpt lat="47.29394" lon="4.92133">
        <ele>550</ele>
        <time>2012-12-08T07:24:03Z</time>
      </trkpt>
      <trkpt lat="47.29394" lon="4.92133">
        <ele>550</ele>
        <time>2012-12-08T07:24:03Z</time>
      </trkpt>
      <trkpt lat="47.29394" lon="4.92133">
        <ele>550</ele>
        <time>2012-12-08T07:24:05Z</time>
      </trkpt>
      <trkpt lat="47.29402" lon="4.92136">
        <ele>550</ele>
        <time>2012-12-08T07:24:11Z</time>
      </trkpt>
      <trkpt lat="47.29407" lon="4.9214">
        <ele>551</ele>
        <time>2012-12-08T07:24:13Z</time>
      </trkpt>
      <trkpt lat="47.29412" lon="4.92144">
        <ele>551</ele>
        <time>2012-12-08T07:24:16Z</time>
      </trkpt>
      <trkpt lat="47.29416" lon="4.92146">
        <ele>550</ele>
        <time>2012-12-08T07:24:18Z</time>
      </trkpt>
      <trkpt lat="47.29421" lon="4.92152">
        <ele>551</ele>
        <time>2012-12-08T07:24:21Z</time>
      </trkpt>
      <trkpt lat="47.29426" lon="4.92156">
        <ele>551</ele>
        <time>2012-12-08T07:24:24Z</time>
      </trkpt>
      <trkpt lat="47.29431" lon="4.92163">
        <ele>551</ele>
        <time>2012-12-08T07:24:26Z</time>
      </trkpt>
      <trkpt lat="47.29437" lon="4.92166">
        <ele>551</ele>
        <time>2012-12-08T07:24:28Z</time>
      </trkpt>
      <trkpt lat="47.29442" lon="4.92171">
        <ele>550</ele>
        <time>2012-12-08T07:24:30Z</time>
      </trkpt>
      <trkpt lat="47.29448" lon="4.92174">
        <ele>551</ele>
        <time>2012-12-08T07:24:34Z</time>
      </trkpt>
      <trkpt lat="47.29453" lon="4.92176">
        <ele>550</ele>
        <time>2012-12-08T07:24:37Z</time>
      </trkpt>
      <trkpt lat="47.29457" lon="4.92182">
        <ele>550</ele>
        <time>2012-12-08T07:24:40Z</time>
      </trkpt>
      <trkpt lat="47.29461" lon="4.92188">
        <ele>549</ele>
        <time>2012-12-08T07:24:42Z</time>
      </trkpt>
      <trkpt lat="47.29466" lon="4.9219">
        <ele>549</ele>
        <time>2012-12-08T07:24:46Z</time>
      </trkpt>
      <trkpt lat="47.29471" lon="4.92192">
        <ele>549</ele>
        <time>2012-12-08T07:24:48Z</time>
      </trkpt>
      <trkpt lat="47.29475" lon="4.92198">
        <ele>549</ele>
        <time>2012-12-08T07:24:51Z</time>
      </trkpt>
      <trkpt lat="47.29482" lon="4.92202">
        <ele>547</ele>
        <time>2012-12-08T07:24:53Z</time>
      </trkpt>
      <trkpt lat="47.29486" lon="4.92206">
        <ele>546</ele>
        <time>2012-12-08T07:24:58Z</time>
      </trkpt>
      <trkpt lat="47.29491" lon="4.9221">
        <ele>546</ele>
        <time>2012-12-08T07:25:01Z</time>
      </trkpt>
      <trkpt lat="47.29497" lon="4.92218">
        <ele>547</ele>
        <time>2012-12-08T07:25:05Z</time>
      </trkpt>
      <trkpt lat="47.295" lon="4.92222">
        <ele>548</ele>
        <time>2012-12-08T07:25:07Z</time>
      </trkpt>
      <trkpt lat="47.29503" lon="4.92228">
        <ele>549</ele>
        <time>2012-12-08T07:25:10Z</time>
      </trkpt>
      <trkpt lat="47.29506" lon="4.92234">
        <ele>546</ele>
        <time>2012-12-08T07:25:13Z</time>
      </trkpt>
      <trkpt lat="47.29508" lon="4.92239">
        <ele>545</ele>
        <time>2012-12-08T07:25:16Z</time>
      </trkpt>
      <trkpt lat="47.29513" lon="4.92244">
        <ele>545</ele>
        <time>2012-12-08T07:25:19Z</time>
      </trkpt>
      <trkpt lat="47.29519" lon="4.9225">
        <ele>544</ele>
        <time>2012-12-08T07:25:22Z</time>
      </trkpt>
      <trkpt lat="47.29522" lon="4.92254">
        <ele>544</ele>
        <time>2012-12-08T07:25:26Z</time>
      </trkpt>
      <trkpt lat="47.29528" lon="4.92256">
        <ele>544</ele>
        <time>2012-12-08T07:25:35Z</time>
      </trkpt>
      <trkpt lat="47.29533" lon="4.92259">
        <ele>543</ele>
        <time>2012-12-08T07:25:36Z</time>
      </trkpt>
      <trkpt lat="47.29537" lon="4.92263">
        <ele>541</ele>
        <time>2012-12-08T07:25:38Z</time>
      </trkpt>
      <trkpt lat="47.29542" lon="4.92265">
        <ele>541</ele>
        <time>2012-12-08T07:25:40Z</time>
      </trkpt>
      <trkpt lat="47.29548" lon="4.92263">
        <ele>542</ele>
        <time>2012-12-08T07:25:44Z</time>
      </trkpt>
      <trkpt lat="47.29553" lon="4.92264">
        <ele>541</ele>
        <time>2012-12-08T07:25:47Z</time>
      </trkpt>
      <trkpt lat="47.29559" lon="4.92264">
        <ele>541</ele>
        <time>2012-12-08T07:25:50Z</time>
      </trkpt>
      <trkpt lat="47.29564" lon="4.92264">
        <ele>540</ele>
        <time>2012-12-08T07:25:53Z</time>
      </trkpt>
      <trkpt lat="47.2957" lon="4.92264">
        <ele>538</ele>
        <time>2012-12-08T07:25:56Z</time>
      </trkpt>
      <trkpt lat="47.29575" lon="4.92264">
        <ele>538</ele>
        <time>2012-12-08T07:25:59Z</time>
      </trkpt>
      <trkpt lat="47.2958" lon="4.92264">
        <ele>539</ele>
        <time>2012-12-08T07:26:02Z</time>
      </trkpt>
      <trkpt lat="47.29585" lon="4.92264">
        <ele>538</ele>
        <time>2012-12-08T07:26:05Z</time>
      </trkpt>
      <trkpt lat="47.29591" lon="4.92267">
        <ele>537</ele>
        <time>2012-12-08T07:26:08Z</time>
      </trkpt>
      <trkpt lat="47.29596" lon="4.92267">
        <ele>537</ele>
        <time>2012-12-08T07:26:11Z</time>
      </trkpt>
      <trkpt lat="47.29601" lon="4.92268">
        <ele>537</ele>
        <time>2012-12-08T07:26:16Z</time>
      </trkpt>
      <trkpt lat="47.29601" lon="4.92268">
        <ele>537</ele>
        <time>2012-12-08T07:26:16Z</time>
      </trkpt>
      <trkpt lat="47.29601" lon="4.92268">
        <ele>538</ele>
        <time>2012-12-08T07:26:19Z</time>
      </trkpt>
      <trkpt lat="47.29606" lon="4.92271">
        <ele>540</ele>
        <time>2012-12-08T07:26:23Z</time>
      </trkpt>
      <trkpt lat="47.29611" lon="4.92272">
        <ele>540</ele>
        <time>2012-12-08T07:26:26Z</time>
      </trkpt>
      <trkpt lat="47.29617" lon="4.92273">
        <ele>541</ele>
        <time>2012-12-08T07:26:28Z</time>
      </trkpt>
      <trkpt lat="47.29622" lon="4.92273">
        <ele>543</ele>
        <time>2012-12-08T07:26:30Z</time>
      </trkpt>
      <trkpt lat="47.29628" lon="4.92274">
        <ele>544</ele>
        <time>2012-12-08T07:26:34Z</time>
      </trkpt>
      <trkpt lat="47.29632" lon="4.92276">
        <ele>544</ele>
        <time>2012-12-08T07:26:38Z</time>
      </trkpt>
      <trkpt lat="47.29638" lon="4.92276">
        <ele>546</ele>
        <time>2012-12-08T07:26:43Z</time>
      </trkpt>
      <trkpt lat="47.29643" lon="4.92276">
        <ele>548</ele>
        <time>2012-12-08T07:26:47Z</time>
      </trkpt>
      <trkpt lat="47.2965" lon="4.92276">
        <ele>550</ele>
        <time>2012-12-08T07:26:52Z</time>
      </trkpt>
      <trkpt lat="47.29656" lon="4.92277">
        <ele>549</ele>
        <time>2012-12-08T07:26:55Z</time>
      </trkpt>
      <trkpt lat="47.29661" lon="4.92278">
        <ele>549</ele>
        <time>2012-12-08T07:26:58Z</time>
      </trkpt>
      <trkpt lat="47.29667" lon="4.92278">
        <ele>549</ele>
        <time>2012-12-08T07:27:01Z</time>
      </trkpt>
      <trkpt lat="47.29673" lon="4.92275">
        <ele>552</ele>
        <time>2012-12-08T07:27:06Z</time>
      </trkpt>
      <trkpt lat="47.29673" lon="4.92275">
        <ele>552</ele>
        <time>2012-12-08T07:27:06Z</time>
      </trkpt>
      <trkpt lat="47.29673" lon="4.92275">
        <ele>552</ele>
        <time>2012-12-08T07:27:07Z</time>
      </trkpt>
      <trkpt lat="47.2968" lon="4.92275">
        <ele>553</ele>
        <time>2012-12-08T07:27:10Z</time>
      </trkpt>
      <trkpt lat="47.29686" lon="4.92274">
        <ele>553</ele>
        <time>2012-12-08T07:27:12Z</time>
      </trkpt>
      <trkpt lat="47.29691" lon="4.92274">
        <ele>553</ele>
        <time>2012-12-08T07:27:14Z</time>
      </trkpt>
      <trkpt lat="47.29696" lon="4.92272">
        <ele>555</ele>
        <time>2012-12-08T07:27:18Z</time>
      </trkpt>
      <trkpt lat="47.29702" lon="4.92269">
        <ele>555</ele>
        <time>2012-12-08T07:27:22Z</time>
      </trkpt>
      <trkpt lat="47.29707" lon="4.92267">
        <ele>554</ele>
        <time>2012-12-08T07:27:26Z</time>
      </trkpt>
      <trkpt lat="47.29712" lon="4.92267">
        <ele>554</ele>
        <time>2012-12-08T07:27:30Z</time>
      </trkpt>
      <trkpt lat="47.29718" lon="4.9227">
        <ele>554</ele>
        <time>2012-12-08T07:27:33Z</time>
      </trkpt>
      <trkpt lat="47.29725" lon="4.92271">
        <ele>555</ele>
        <time>2012-12-08T07:27:36Z</time>
      </trkpt>
      <trkpt lat="47.2973" lon="4.92271">
        <ele>555</ele>
        <time>2012-12-08T07:27:38Z</time>
      </trkpt>
      <trkpt lat="47.29736" lon="4.92273">
        <ele>558</ele>
        <time>2012-12-08T07:27:44Z</time>
      </trkpt>
      <trkpt lat="47.29744" lon="4.92275">
        <ele>559</ele>
        <time>2012-12-08T07:27:47Z</time>
      </trkpt>
      <trkpt lat="47.29749" lon="4.92275">
        <ele>559</ele>
        <time>2012-12-08T07:27:49Z</time>
      </trkpt>
      <trkpt lat="47.29754" lon="4.92278">
        <ele>560</ele>
        <time>2012-12-08T07:27:51Z</time>
      </trkpt>
      <trkpt lat="47.29761" lon="4.92278">
        <ele>559</ele>
        <time>2012-12-08T07:27:55Z</time>
      </trkpt>
      <trkpt lat="47.29767" lon="4.92283">
        <ele>557</ele>
        <time>2012-12-08T07:27:58Z</time>
      </trkpt>
      <trkpt lat="47.29772" lon="4.92286">
        <ele>556</ele>
        <time>2012-12-08T07:28:01Z</time>
      </trkpt>
      <trkpt lat="47.29778" lon="4.92289">
        <ele>557</ele>
        <time>2012-12-08T07:28:04Z</time>
      </trkpt>
      <trkpt lat="47.29784" lon="4.92291">
        <ele>558</ele>
        <time>2012-12-08T07:28:07Z</time>
      </trkpt>
      <trkpt lat="47.2979" lon="4.92294">
        <ele>558</ele>
        <time>2012-12-08T07:28:10Z</time>
      </trkpt>
      <trkpt lat="47.29794" lon="4.92296">
        <ele>557</ele>
        <time>2012-12-08T07:28:12Z</time>
      </trkpt>
      <trkpt lat="47.29799" lon="4.923">
        <ele>558</ele>
        <time>2012-12-08T07:28:15Z</time>
      </trkpt>
      <trkpt lat="47.29805" lon="4.92302">
        <ele>559</ele>
        <time>2012-12-08T07:28:18Z</time>
      </trkpt>
      <trkpt lat="47.2981" lon="4.92305">
        <ele>560</ele>
        <time>2012-12-08T07:28:20Z</time>
      </trkpt>
      <trkpt lat="47.29815" lon="4.92308">
        <ele>562</ele>
        <time>2012-12-08T07:28:23Z</time>
      </trkpt>
      <trkpt lat="47.2982" lon="4.92312">
        <ele>562</ele>
        <time>2012-12-08T07:28:26Z</time>
      </trkpt>
      <trkpt lat="47.29824" lon="4.92318">
        <ele>560</ele>
        <time>2012-12-08T07:28:28Z</time>
      </trkpt>
      <trkpt lat="47.29828" lon="4.92322">
        <ele>559</ele>
        <time>2012-12-08T07:28:30Z</time>
      </trkpt>
      <trkpt lat="47.29834" lon="4.92326">
        <ele>558</ele>
        <time>2012-12-08T07:28:33Z</time>
      </trkpt>
      <trkpt lat="47.29838" lon="4.92331">
        <ele>557</ele>
        <time>2012-12-08T07:28:36Z</time>
      </trkpt>
      <trkpt lat="47.29843" lon="4.92336">
        <ele>556</ele>
        <time>2012-12-08T07:28:39Z</time>
      </trkpt>
      <trkpt lat="47.29848" lon="4.9234">
        <ele>555</ele>
        <time>2012-12-08T07:28:43Z</time>
      </trkpt>
      <trkpt lat="47.2985" lon="4.92348">
        <ele>554</ele>
        <time>2012-12-08T07:28:47Z</time>
      </trkpt>
      <trkpt lat="47.29857" lon="4.92352">
        <ele>555</ele>
        <time>2012-12-08T07:28:50Z</time>
      </trkpt>
      <trkpt lat="47.2986" lon="4.92357">
        <ele>556</ele>
        <time>2012-12-08T07:28:53Z</time>
      </trkpt>
      <trkpt lat="47.29865" lon="4.92363">
        <ele>556</ele>
        <time>2012-12-08T07:28:56Z</time>
      </trkpt>
      <trkpt lat="47.29869" lon="4.9237">
        <ele>554</ele>
        <time>2012-12-08T07:28:59Z</time>
      </trkpt>
      <trkpt lat="47.29874" lon="4.92376">
        <ele>554</ele>
        <time>2012-12-08T07:29:03Z</time>
      </trkpt>
      <trkpt lat="47.29879" lon="4.92381">
        <ele>556</ele>
        <time>2012-12-08T07:29:07Z</time>
      </trkpt>
      <trkpt lat="47.29882" lon="4.92386">
        <ele>557</ele>
        <time>2012-12-08T07:29:10Z</time>
      </trkpt>
      <trkpt lat="47.29886" lon="4.92391">
        <ele>558</ele>
        <time>2012-12-08T07:29:12Z</time>
      </trkpt>
      <trkpt lat="47.29888" lon="4.92396">
        <ele>556</ele>
        <time>2012-12-08T07:29:15Z</time>
      </trkpt>
      <trkpt lat="47.29892" lon="4.92402">
        <ele>556</ele>
        <time>2012-12-08T07:29:18Z</time>
      </trkpt>
      <trkpt lat="47.29895" lon="4.92408">
        <ele>557</ele>
        <time>2012-12-08T07:29:21Z</time>
      </trkpt>
      <trkpt lat="47.29896" lon="4.92415">
        <ele>558</ele>
        <time>2012-12-08T07:29:24Z</time>
      </trkpt>
      <trkpt lat="47.299" lon="4.9242">
        <ele>558</ele>
        <time>2012-12-08T07:29:28Z</time>
      </trkpt>
      <trkpt lat="47.29904" lon="4.92427">
        <ele>558</ele>
        <time>2012-12-08T07:29:31Z</time>
      </trkpt>
      <trkpt lat="47.29908" lon="4.92433">
        <ele>558</ele>
        <time>2012-12-08T07:29:34Z</time>
      </trkpt>
      <trkpt lat="47.29913" lon="4.92436">
        <ele>558</ele>
        <time>2012-12-08T07:29:36Z</time>
      </trkpt>
      <trkpt lat="47.29917" lon="4.92444">
        <ele>557</ele>
        <time>2012-12-08T07:29:41Z</time>
      </trkpt>
      <trkpt lat="47.29923" lon="4.92452">
        <ele>555</ele>
        <time>2012-12-08T07:29:43Z</time>
      </trkpt>
      <trkpt lat="47.29928" lon="4.92457">
        <ele>553</ele>
        <time>2012-12-08T07:29:45Z</time>
      </trkpt>
      <trkpt lat="47.29932" lon="4.92462">
        <ele>553</ele>
        <time>2012-12-08T07:29:49Z</time>
      </trkpt>
      <trkpt lat="47.29937" lon="4.92466">
        <ele>553</ele>
        <time>2012-12-08T07:29:58Z</time>
      </trkpt>
      <trkpt lat="47.2994" lon="4.92473">
        <ele>551</ele>
        <time>2012-12-08T07:29:59Z</time>
      </trkpt>
      <trkpt lat="47.29945" lon="4.92478">
        <ele>549</ele>
        <time>2012-12-08T07:30:02Z</time>
      </trkpt>
      <trkpt lat="47.29948" lon="4.92482">
        <ele>551</ele>
        <time>2012-12-08T07:30:06Z</time>
      </trkpt>
      <trkpt lat="47.29952" lon="4.92486">
        <ele>551</ele>
        <time>2012-12-08T07:30:13Z</time>
      </trkpt>
      <trkpt lat="47.29956" lon="4.9249">
        <ele>552</ele>
        <time>2012-12-08T07:30:16Z</time>
      </trkpt>
      <trkpt lat="47.2996" lon="4.92495">
        <ele>554</ele>
        <time>2012-12-08T07:30:20Z</time>
      </trkpt>
      <trkpt lat="47.29967" lon="4.92498">
        <ele>554</ele>
        <time>2012-12-08T07:30:25Z</time>
      </trkpt>
      <trkpt lat="47.29971" lon="4.92501">
        <ele>554</ele>
        <time>2012-12-08T07:30:27Z</time>
      </trkpt>
      <trkpt lat="47.29974" lon="4.92508">
        <ele>555</ele>
        <time>2012-12-08T07:30:33Z</time>
      </trkpt>
      <trkpt lat="47.29976" lon="4.92516">
        <ele>554</ele>
        <time>2012-12-08T07:30:35Z</time>
      </trkpt>
      <trkpt lat="47.29977" lon="4.92525">
        <ele>553</ele>
        <time>2012-12-08T07:30:38Z</time>
      </trkpt>
      <trkpt lat="47.29982" lon="4.9253">
        <ele>552</ele>
        <time>2012-12-08T07:30:39Z</time>
      </trkpt>
      <trkpt lat="47.29983" lon="4.92536">
        <ele>550</ele>
        <time>2012-12-08T07:30:41Z</time>
      </trkpt>
      <trkpt lat="47.29988" lon="4.92542">
        <ele>549</ele>
        <time>2012-12-08T07:30:44Z</time>
      </trkpt>
      <trkpt lat="47.2999" lon="4.92547">
        <ele>549</ele>
        <time>2012-12-08T07:30:47Z</time>
      </trkpt>
      <trkpt lat="47.29992" lon="4.92553">
        <ele>549</ele>
        <time>2012-12-08T07:30:50Z</time>
      </trkpt>
      <trkpt lat="47.29996" lon="4.9256">
        <ele>547</ele>
        <time>2012-12-08T07:30:53Z</time>
      </trkpt>
      <trkpt lat="47.3" lon="4.92567">
        <ele>547</ele>
        <time>2012-12-08T07:30:56Z</time>
      </trkpt>
      <trkpt lat="47.30004" lon="4.92573">
        <ele>548</ele>
        <time>2012-12-08T07:31:00Z</time>
      </trkpt>
      <trkpt lat="47.30005" lon="4.9258">
        <ele>548</ele>
        <time>2012-12-08T07:31:03Z</time>
      </trkpt>
      <trkpt lat="47.30008" lon="4.92586">
        <ele>547</ele>
        <time>2012-12-08T07:31:06Z</time>
      </trkpt>
      <trkpt lat="47.30011" lon="4.92595">
        <ele>547</ele>
        <time>2012-12-08T07:31:09Z</time>
      </trkpt>
      <trkpt lat="47.30016" lon="4.92603">
        <ele>547</ele>
        <time>2012-12-08T07:31:12Z</time>
      </trkpt>
      <trkpt lat="47.3002" lon="4.92609">
        <ele>546</ele>
        <time>2012-12-08T07:31:16Z</time>
      </trkpt>
      <trkpt lat="47.30024" lon="4.92613">
        <ele>548</ele>
        <time>2012-12-08T07:31:21Z</time>
      </trkpt>
      <trkpt lat="47.30027" lon="4.92618">
        <ele>548</ele>
        <time>2012-12-08T07:31:24Z</time>
      </trkpt>
      <trkpt lat="47.30026" lon="4.92626">
        <ele>548</ele>
        <time>2012-12-08T07:31:28Z</time>
      </trkpt>
      <trkpt lat="47.30022" lon="4.92632">
        <ele>550</ele>
        <time>2012-12-08T07:31:35Z</time>
      </trkpt>
      <trkpt lat="47.30022" lon="4.92632">
        <ele>550</ele>
        <time>2012-12-08T07:31:35Z</time>
      </trkpt>
      <trkpt lat="47.30022" lon="4.92632">
        <ele>550</ele>
        <time>2012-12-08T07:31:36Z</time>
      </trkpt>
      <trkpt lat="47.30026" lon="4.92636">
        <ele>549</ele>
        <time>2012-12-08T07:31:41Z</time>
      </trkpt>
      <trkpt lat="47.30032" lon="4.92643">
        <ele>545</ele>
        <time>2012-12-08T07:31:45Z</time>
      </trkpt>
      <trkpt lat="47.30036" lon="4.92646">
        <ele>542</ele>
        <time>2012-12-08T07:31:49Z</time>
      </trkpt>
      <trkpt lat="47.30044" lon="4.92647">
        <ele>540</ele>
        <time>2012-12-08T07:31:53Z</time>
      </trkpt>
      <trkpt lat="47.30049" lon="4.92648">
        <ele>540</ele>
        <time>2012-12-08T07:31:58Z</time>
      </trkpt>
      <trkpt lat="47.30056" lon="4.92648">
        <ele>540</ele>
        <time>2012-12-08T07:32:06Z</time>
      </trkpt>
      <trkpt lat="47.30063" lon="4.92645">
        <ele>540</ele>
        <time>2012-12-08T07:32:08Z</time>
      </trkpt>
      <trkpt lat="47.30068" lon="4.92642">
        <ele>539</ele>
        <time>2012-12-08T07:32:10Z</time>
      </trkpt>
      <trkpt lat="47.30074" lon="4.92638">
        <ele>539</ele>
        <time>2012-12-08T07:32:13Z</time>
      </trkpt>
      <trkpt lat="47.30078" lon="4.92635">
        <ele>537</ele>
        <time>2012-12-08T07:32:16Z</time>
      </trkpt>
      <trkpt lat="47.30082" lon="4.9263">
        <ele>536</ele>
        <time>2012-12-08T07:32:20Z</time>
      </trkpt>
      <trkpt lat="47.30087" lon="4.92625">
        <ele>535</ele>
        <time>2012-12-08T07:32:25Z</time>
      </trkpt>
      <trkpt lat="47.30092" lon="4.92626">
        <ele>536</ele>
        <time>2012-12-08T07:32:28Z</time>
      </trkpt>
      <trkpt lat="47.30096" lon="4.92624">
        <ele>535</ele>
        <time>2012-12-08T07:32:30Z</time>
      </trkpt>
      <trkpt lat="47.30102" lon="4.9262">
        <ele>534</ele>
        <time>2012-12-08T07:32:33Z</time>
      </trkpt>
      <trkpt lat="47.30107" lon="4.92615">
        <ele>530</ele>
        <time>2012-12-08T07:32:35Z</time>
      </trkpt>
      <trkpt lat="47.30113" lon="4.92614">
        <ele>526</ele>
        <time>2012-12-08T07:32:39Z</time>
      </trkpt>
      <trkpt lat="47.30117" lon="4.92611">
        <ele>526</ele>
        <time>2012-12-08T07:32:43Z</time>
      </trkpt>
      <trkpt lat="47.30122" lon="4.92608">
        <ele>525</ele>
        <time>2012-12-08T07:32:46Z</time>
      </trkpt>
      <trkpt lat="47.30126" lon="4.92601">
        <ele>525</ele>
        <time>2012-12-08T07:32:50Z</time>
      </trkpt>
      <trkpt lat="47.30131" lon="4.92596">
        <ele>524</ele>
        <time>2012-12-08T07:32:53Z</time>
      </trkpt>
      <trkpt lat="47.30135" lon="4.92592">
        <ele>522</ele>
        <time>2012-12-08T07:32:54Z</time>
      </trkpt>
      <trkpt lat="47.3014" lon="4.92589">
        <ele>521</ele>
        <time>2012-12-08T07:32:57Z</time>
      </trkpt>
      <trkpt lat="47.30146" lon="4.92586">
        <ele>519</ele>
        <time>2012-12-08T07:33:01Z</time>
      </trkpt>
      <trkpt lat="47.30151" lon="4.92586">
        <ele>519</ele>
        <time>2012-12-08T07:33:03Z</time>
      </trkpt>
      <trkpt lat="47.30158" lon="4.9259">
        <ele>517</ele>
        <time>2012-12-08T07:33:06Z</time>
      </trkpt>
      <trkpt lat="47.30164" lon="4.92592">
        <ele>517</ele>
        <time>2012-12-08T07:33:08Z</time>
      </trkpt>
      <trkpt lat="47.30171" lon="4.92594">
        <ele>516</ele>
        <time>2012-12-08T07:33:11Z</time>
      </trkpt>
      <trkpt lat="47.30177" lon="4.92594">
        <ele>515</ele>
        <time>2012-12-08T07:33:15Z</time>
      </trkpt>
      <trkpt lat="47.30182" lon="4.92594">
        <ele>513</ele>
        <time>2012-12-08T07:33:31Z</time>
      </trkpt>
      <trkpt lat="47.30187" lon="4.92595">
        <ele>511</ele>
        <time>2012-12-08T07:33:35Z</time>
      </trkpt>
      <trkpt lat="47.30192" lon="4.92597">
        <ele>509</ele>
        <time>2012-12-08T07:33:37Z</time>
      </trkpt>
      <trkpt lat="47.30198" lon="4.92598">
        <ele>509</ele>
        <time>2012-12-08T07:33:41Z</time>
      </trkpt>
      <trkpt lat="47.30202" lon="4.92596">
        <ele>509</ele>
        <time>2012-12-08T07:33:45Z</time>
      </trkpt>
      <trkpt lat="47.30207" lon="4.92593">
        <ele>509</ele>
        <time>2012-12-08T07:33:47Z</time>
      </trkpt>
      <trkpt lat="47.30214" lon="4.92589">
        <ele>508</ele>
        <time>2012-12-08T07:33:49Z</time>
      </trkpt>
      <trkpt lat="47.3022" lon="4.92587">
        <ele>508</ele>
        <time>2012-12-08T07:33:51Z</time>
      </trkpt>
      <trkpt lat="47.30225" lon="4.92588">
        <ele>507</ele>
        <time>2012-12-08T07:33:52Z</time>
      </trkpt>
      <trkpt lat="47.30232" lon="4.92589">
        <ele>508</ele>
        <time>2012-12-08T07:33:53Z</time>
      </trkpt>
      <trkpt lat="47.30238" lon="4.92586">
        <ele>508</ele>
        <time>2012-12-08T07:33:55Z</time>
      </trkpt>
      <trkpt lat="47.30244" lon="4.92583">
        <ele>508</ele>
        <time>2012-12-08T07:33:57Z</time>
      </trkpt>
      <trkpt lat="47.30249" lon="4.92583">
        <ele>508</ele>
        <time>2012-12-08T07:33:59Z</time>
      </trkpt>
      <trkpt lat="47.30255" lon="4.92588">
        <ele>505</ele>
        <time>2012-12-08T07:34:01Z</time>
      </trkpt>
      <trkpt lat="47.30261" lon="4.92587">
        <ele>504</ele>
        <time>2012-12-08T07:34:04Z</time>
      </trkpt>
      <trkpt lat="47.30265" lon="4.92583">
        <ele>503</ele>
        <time>2012-12-08T07:34:07Z</time>
      </trkpt>
      <trkpt lat="47.30271" lon="4.92578">
        <ele>502</ele>
        <time>2012-12-08T07:34:11Z</time>
      </trkpt>
      <trkpt lat="47.30275" lon="4.92574">
        <ele>502</ele>
        <time>2012-12-08T07:34:14Z</time>
      </trkpt>
      <trkpt lat="47.30279" lon="4.92568">
        <ele>502</ele>
        <time>2012-12-08T07:34:17Z</time>
      </trkpt>
      <trkpt lat="47.30283" lon="4.92564">
        <ele>501</ele>
        <time>2012-12-08T07:34:20Z</time>
      </trkpt>
      <trkpt lat="47.30287" lon="4.92558">
        <ele>501</ele>
        <time>2012-12-08T07:34:23Z</time>
      </trkpt>
      <trkpt lat="47.30291" lon="4.92553">
        <ele>500</ele>
        <time>2012-12-08T07:34:25Z</time>
      </trkpt>
      <trkpt lat="47.30297" lon="4.92547">
        <ele>499</ele>
        <time>2012-12-08T07:34:28Z</time>
      </trkpt>
      <trkpt lat="47.303" lon="4.9254">
        <ele>499</ele>
        <time>2012-12-08T07:34:32Z</time>
      </trkpt>
      <trkpt lat="47.30305" lon="4.92534">
        <ele>499</ele>
        <time>2012-12-08T07:34:35Z</time>
      </trkpt>
      <trkpt lat="47.3031" lon="4.92528">
        <ele>499</ele>
        <time>2012-12-08T07:34:38Z</time>
      </trkpt>
      <trkpt lat="47.30314" lon="4.92523">
        <ele>499</ele>
        <time>2012-12-08T07:34:41Z</time>
      </trkpt>
      <trkpt lat="47.30319" lon="4.9252">
        <ele>499</ele>
        <time>2012-12-08T07:34:43Z</time>
      </trkpt>
      <trkpt lat="47.30322" lon="4.92513">
        <ele>499</ele>
        <time>2012-12-08T07:34:46Z</time>
      </trkpt>
      <trkpt lat="47.30327" lon="4.92507">
        <ele>498</ele>
        <time>2012-12-08T07:34:50Z</time>
      </trkpt>
      <trkpt lat="47.30332" lon="4.925">
        <ele>498</ele>
        <time>2012-12-08T07:34:53Z</time>
      </trkpt>
      <trkpt lat="47.30337" lon="4.92495">
        <ele>498</ele>
        <time>2012-12-08T07:34:56Z</time>
      </trkpt>
      <trkpt lat="47.3034" lon="4.92487">
        <ele>498</ele>
        <time>2012-12-08T07:34:59Z</time>
      </trkpt>
      <trkpt lat="47.30343" lon="4.92482">
        <ele>498</ele>
        <time>2012-12-08T07:35:02Z</time>
      </trkpt>
      <trkpt lat="47.30349" lon="4.92477">
        <ele>497</ele>
        <time>2012-12-08T07:35:04Z</time>
      </trkpt>
      <trkpt lat="47.30355" lon="4.92468">
        <ele>496</ele>
        <time>2012-12-08T07:35:07Z</time>
      </trkpt>
      <trkpt lat="47.30356" lon="4.92459">
        <ele>490</ele>
        <time>2012-12-08T07:35:14Z</time>
      </trkpt>
      <trkpt lat="47.30359" lon="4.9245">
        <ele>490</ele>
        <time>2012-12-08T07:35:17Z</time>
      </trkpt>
      <trkpt lat="47.30363" lon="4.92442">
        <ele>486</ele>
        <time>2012-12-08T07:35:20Z</time>
      </trkpt>
      <trkpt lat="47.30366" lon="4.92434">
        <ele>485</ele>
        <time>2012-12-08T07:35:24Z</time>
      </trkpt>
      <trkpt lat="47.30368" lon="4.92427">
        <ele>486</ele>
        <time>2012-12-08T07:35:27Z</time>
      </trkpt>
      <trkpt lat="47.3037" lon="4.9242">
        <ele>486</ele>
        <time>2012-12-08T07:35:31Z</time>
      </trkpt>
      <trkpt lat="47.30373" lon="4.92413">
        <ele>486</ele>
        <time>2012-12-08T07:35:34Z</time>
      </trkpt>
      <trkpt lat="47.30376" lon="4.92407">
        <ele>486</ele>
        <time>2012-12-08T07:35:37Z</time>
      </trkpt>
      <trkpt lat="47.30379" lon="4.92401">
        <ele>485</ele>
        <time>2012-12-08T07:35:40Z</time>
      </trkpt>
      <trkpt lat="47.3038" lon="4.92394">
        <ele>483</ele>
        <time>2012-12-08T07:35:42Z</time>
      </trkpt>
      <trkpt lat="47.30382" lon="4.92385">
        <ele>484</ele>
        <time>2012-12-08T07:35:46Z</time>
      </trkpt>
      <trkpt lat="47.30381" lon="4.92377">
        <ele>485</ele>
        <time>2012-12-08T07:35:49Z</time>
      </trkpt>
      <trkpt lat="47.30381" lon="4.92369">
        <ele>485</ele>
        <time>2012-12-08T07:35:53Z</time>
      </trkpt>
      <trkpt lat="47.30384" lon="4.92362">
        <ele>484</ele>
        <time>2012-12-08T07:35:55Z</time>
      </trkpt>
      <trkpt lat="47.30386" lon="4.92354">
        <ele>484</ele>
        <time>2012-12-08T07:35:58Z</time>
      </trkpt>
      <trkpt lat="47.30388" lon="4.92347">
        <ele>484</ele>
        <time>2012-12-08T07:36:01Z</time>
      </trkpt>
      <trkpt lat="47.3039" lon="4.92341">
        <ele>484</ele>
        <time>2012-12-08T07:36:04Z</time>
      </trkpt>
      <trkpt lat="47.30392" lon="4.92333">
        <ele>485</ele>
        <time>2012-12-08T07:36:07Z</time>
      </trkpt>
      <trkpt lat="47.30391" lon="4.92326">
        <ele>485</ele>
        <time>2012-12-08T07:36:09Z</time>
      </trkpt>
      <trkpt lat="47.30393" lon="4.92319">
        <ele>486</ele>
        <time>2012-12-08T07:36:11Z</time>
      </trkpt>
      <trkpt lat="47.30393" lon="4.92311">
        <ele>486</ele>
        <time>2012-12-08T07:36:14Z</time>
      </trkpt>
      <trkpt lat="47.30394" lon="4.92305">
        <ele>483</ele>
        <time>2012-12-08T07:36:17Z</time>
      </trkpt>
      <trkpt lat="47.30393" lon="4.92297">
        <ele>483</ele>
        <time>2012-12-08T07:36:22Z</time>
      </trkpt>
      <trkpt lat="47.30395" lon="4.92291">
        <ele>485</ele>
        <time>2012-12-08T07:37:00Z</time>
      </trkpt>
      <trkpt lat="47.30396" lon="4.92284">
        <ele>487</ele>
        <time>2012-12-08T07:37:04Z</time>
      </trkpt>
      <trkpt lat="47.30395" lon="4.92277">
        <ele>486</ele>
        <time>2012-12-08T07:37:07Z</time>
      </trkpt>
      <trkpt lat="47.30394" lon="4.92267">
        <ele>487</ele>
        <time>2012-12-08T07:37:11Z</time>
      </trkpt>
      <trkpt lat="47.30394" lon="4.92259">
        <ele>486</ele>
        <time>2012-12-08T07:37:14Z</time>
      </trkpt>
      <trkpt lat="47.30393" lon="4.92252">
        <ele>487</ele>
        <time>2012-12-08T07:37:17Z</time>
      </trkpt>
      <trkpt lat="47.30392" lon="4.92245">
        <ele>487</ele>
        <time>2012-12-08T07:37:20Z</time>
      </trkpt>
      <trkpt lat="47.3039" lon="4.92237">
        <ele>486</ele>
        <time>2012-12-08T07:37:24Z</time>
      </trkpt>
      <trkpt lat="47.30389" lon="4.9223">
        <ele>486</ele>
        <time>2012-12-08T07:37:27Z</time>
      </trkpt>
      <trkpt lat="47.30387" lon="4.92223">
        <ele>486</ele>
        <time>2012-12-08T07:37:30Z</time>
      </trkpt>
      <trkpt lat="47.30386" lon="4.92215">
        <ele>487</ele>
        <time>2012-12-08T07:37:34Z</time>
      </trkpt>
      <trkpt lat="47.30384" lon="4.92209">
        <ele>487</ele>
        <time>2012-12-08T07:37:37Z</time>
      </trkpt>
      <trkpt lat="47.30381" lon="4.92203">
        <ele>487</ele>
        <time>2012-12-08T07:37:39Z</time>
      </trkpt>
      <trkpt lat="47.3038" lon="4.92196">
        <ele>487</ele>
        <time>2012-12-08T07:37:43Z</time>
      </trkpt>
      <trkpt lat="47.30376" lon="4.9219">
        <ele>486</ele>
        <time>2012-12-08T07:37:45Z</time>
      </trkpt>
      <trkpt lat="47.30374" lon="4.92182">
        <ele>486</ele>
        <time>2012-12-08T07:37:47Z</time>
      </trkpt>
      <trkpt lat="47.30371" lon="4.92176">
        <ele>487</ele>
        <time>2012-12-08T07:37:50Z</time>
      </trkpt>
      <trkpt lat="47.30369" lon="4.92169">
        <ele>486</ele>
        <time>2012-12-08T07:37:54Z</time>
      </trkpt>
      <trkpt lat="47.30367" lon="4.92162">
        <ele>487</ele>
        <time>2012-12-08T07:37:57Z</time>
      </trkpt>
      <trkpt lat="47.30365" lon="4.92153">
        <ele>486</ele>
        <time>2012-12-08T07:38:00Z</time>
      </trkpt>
      <trkpt lat="47.30366" lon="4.92146">
        <ele>485</ele>
        <time>2012-12-08T07:38:03Z</time>
      </trkpt>
      <trkpt lat="47.30364" lon="4.92139">
        <ele>486</ele>
        <time>2012-12-08T07:38:05Z</time>
      </trkpt>
      <trkpt lat="47.30363" lon="4.92131">
        <ele>485</ele>
        <time>2012-12-08T07:38:08Z</time>
      </trkpt>
      <trkpt lat="47.30364" lon="4.92124">
        <ele>486</ele>
        <time>2012-12-08T07:38:11Z</time>
      </trkpt>
      <trkpt lat="47.30362" lon="4.92117">
        <ele>485</ele>
        <time>2012-12-08T07:38:13Z</time>
      </trkpt>
      <trkpt lat="47.30363" lon="4.9211">
        <ele>484</ele>
        <time>2012-12-08T07:38:16Z</time>
      </trkpt>
      <trkpt lat="47.30365" lon="4.92103">
        <ele>483</ele>
        <time>2012-12-08T07:38:20Z</time>
      </trkpt>
      <trkpt lat="47.30368" lon="4.92098">
        <ele>484</ele>
        <time>2012-12-08T07:38:23Z</time>
      </trkpt>
      <trkpt lat="47.30371" lon="4.92091">
        <ele>485</ele>
        <time>2012-12-08T07:38:27Z</time>
      </trkpt>
      <trkpt lat="47.30374" lon="4.92086">
        <ele>484</ele>
        <time>2012-12-08T07:38:29Z</time>
      </trkpt>
      <trkpt lat="47.3038" lon="4.92079">
        <ele>483</ele>
        <time>2012-12-08T07:38:32Z</time>
      </trkpt>
      <trkpt lat="47.30384" lon="4.92072">
        <ele>481</ele>
        <time>2012-12-08T07:38:37Z</time>
      </trkpt>
      <trkpt lat="47.30389" lon="4.92069">
        <ele>480</ele>
        <time>2012-12-08T07:38:39Z</time>
      </trkpt>
      <trkpt lat="47.30395" lon="4.92067">
        <ele>479</ele>
        <time>2012-12-08T07:38:42Z</time>
      </trkpt>
      <trkpt lat="47.304" lon="4.92064">
        <ele>478</ele>
        <time>2012-12-08T07:38:45Z</time>
      </trkpt>
      <trkpt lat="47.30405" lon="4.92062">
        <ele>478</ele>
        <time>2012-12-08T07:38:48Z</time>
      </trkpt>
      <trkpt lat="47.30409" lon="4.92059">
        <ele>477</ele>
        <time>2012-12-08T07:38:51Z</time>
      </trkpt>
      <trkpt lat="47.30416" lon="4.92057">
        <ele>477</ele>
        <time>2012-12-08T07:38:54Z</time>
      </trkpt>
      <trkpt lat="47.3042" lon="4.92054">
        <ele>478</ele>
        <time>2012-12-08T07:38:57Z</time>
      </trkpt>
      <trkpt lat="47.30427" lon="4.92053">
        <ele>474</ele>
        <time>2012-12-08T07:39:02Z</time>
      </trkpt>
      <trkpt lat="47.30431" lon="4.92049">
        <ele>473</ele>
        <time>2012-12-08T07:39:05Z</time>
      </trkpt>
      <trkpt lat="47.30435" lon="4.92045">
        <ele>472</ele>
        <time>2012-12-08T07:39:07Z</time>
      </trkpt>
      <trkpt lat="47.3044" lon="4.92044">
        <ele>472</ele>
        <time>2012-12-08T07:39:09Z</time>
      </trkpt>
      <trkpt lat="47.30446" lon="4.92042">
        <ele>473</ele>
        <time>2012-12-08T07:39:12Z</time>
      </trkpt>
      <trkpt lat="47.30451" lon="4.92042">
        <ele>473</ele>
        <time>2012-12-08T07:39:15Z</time>
      </trkpt>
      <trkpt lat="47.30458" lon="4.9204">
        <ele>472</ele>
        <time>2012-12-08T07:39:18Z</time>
      </trkpt>
      <trkpt lat="47.30463" lon="4.92039">
        <ele>470</ele>
        <time>2012-12-08T07:39:20Z</time>
      </trkpt>
      <trkpt lat="47.30469" lon="4.9204">
        <ele>470</ele>
        <time>2012-12-08T07:39:23Z</time>
      </trkpt>
      <trkpt lat="47.30475" lon="4.9204">
        <ele>468</ele>
        <time>2012-12-08T07:39:27Z</time>
      </trkpt>
      <trkpt lat="47.3048" lon="4.92039">
        <ele>466</ele>
        <time>2012-12-08T07:39:29Z</time>
      </trkpt>
      <trkpt lat="47.30486" lon="4.92038">
        <ele>464</ele>
        <time>2012-12-08T07:39:33Z</time>
      </trkpt>
      <trkpt lat="47.30492" lon="4.92036">
        <ele>463</ele>
        <time>2012-12-08T07:39:38Z</time>
      </trkpt>
      <trkpt lat="47.30496" lon="4.92031">
        <ele>462</ele>
        <time>2012-12-08T07:39:41Z</time>
      </trkpt>
      <trkpt lat="47.30501" lon="4.92028">
        <ele>462</ele>
        <time>2012-12-08T07:39:44Z</time>
      </trkpt>
      <trkpt lat="47.30506" lon="4.92023">
        <ele>460</ele>
        <time>2012-12-08T07:39:46Z</time>
      </trkpt>
      <trkpt lat="47.30511" lon="4.92019">
        <ele>460</ele>
        <time>2012-12-08T07:39:49Z</time>
      </trkpt>
      <trkpt lat="47.30516" lon="4.92013">
        <ele>459</ele>
        <time>2012-12-08T07:39:52Z</time>
      </trkpt>
      <trkpt lat="47.30523" lon="4.92011">
        <ele>458</ele>
        <time>2012-12-08T07:39:55Z</time>
      </trkpt>
      <trkpt lat="47.30528" lon="4.92008">
        <ele>458</ele>
        <time>2012-12-08T07:39:58Z</time>
      </trkpt>
      <trkpt lat="47.30534" lon="4.92005">
        <ele>456</ele>
        <time>2012-12-08T07:40:01Z</time>
      </trkpt>
      <trkpt lat="47.3054" lon="4.92002">
        <ele>456</ele>
        <time>2012-12-08T07:40:04Z</time>
      </trkpt>
      <trkpt lat="47.30544" lon="4.91999">
        <ele>456</ele>
        <time>2012-12-08T07:40:07Z</time>
      </trkpt>
      <trkpt lat="47.30549" lon="4.91996">
        <ele>455</ele>
        <time>2012-12-08T07:40:10Z</time>
      </trkpt>
      <trkpt lat="47.30554" lon="4.91993">
        <ele>456</ele>
        <time>2012-12-08T07:40:14Z</time>
      </trkpt>
      <trkpt lat="47.30558" lon="4.91989">
        <ele>455</ele>
        <time>2012-12-08T07:40:17Z</time>
      </trkpt>
      <trkpt lat="47.30563" lon="4.91986">
        <ele>455</ele>
        <time>2012-12-08T07:40:21Z</time>
      </trkpt>
      <trkpt lat="47.30567" lon="4.91984">
        <ele>455</ele>
        <time>2012-12-08T07:40:24Z</time>
      </trkpt>
      <trkpt lat="47.30571" lon="4.9198">
        <ele>454</ele>
        <time>2012-12-08T07:40:26Z</time>
      </trkpt>
      <trkpt lat="47.30576" lon="4.91977">
        <ele>453</ele>
        <time>2012-12-08T07:40:28Z</time>
      </trkpt>
      <trkpt lat="47.3058" lon="4.91972">
        <ele>452</ele>
        <time>2012-12-08T07:40:31Z</time>
      </trkpt>
      <trkpt lat="47.30585" lon="4.9197">
        <ele>450</ele>
        <time>2012-12-08T07:40:34Z</time>
      </trkpt>
      <trkpt lat="47.3059" lon="4.9197">
        <ele>450</ele>
        <time>2012-12-08T07:40:36Z</time>
      </trkpt>
      <trkpt lat="47.30595" lon="4.91967">
        <ele>447</ele>
        <time>2012-12-08T07:40:40Z</time>
      </trkpt>
      <trkpt lat="47.306" lon="4.91967">
        <ele>445</ele>
        <time>2012-12-08T07:40:42Z</time>
      </trkpt>
      <trkpt lat="47.30605" lon="4.91963">
        <ele>445</ele>
        <time>2012-12-08T07:40:45Z</time>
      </trkpt>
      <trkpt lat="47.30609" lon="4.9196">
        <ele>445</ele>
        <time>2012-12-08T07:40:48Z</time>
      </trkpt>
      <trkpt lat="47.30614" lon="4.91956">
        <ele>444</ele>
        <time>2012-12-08T07:40:51Z</time>
      </trkpt>
      <trkpt lat="47.30616" lon="4.9195">
        <ele>446</ele>
        <time>2012-12-08T07:40:55Z</time>
      </trkpt>
      <trkpt lat="47.3062" lon="4.91944">
        <ele>446</ele>
        <time>2012-12-08T07:40:58Z</time>
      </trkpt>
      <trkpt lat="47.30624" lon="4.9194">
        <ele>446</ele>
        <time>2012-12-08T07:41:01Z</time>
      </trkpt>
      <trkpt lat="47.30629" lon="4.91937">
        <ele>446</ele>
        <time>2012-12-08T07:41:03Z</time>
      </trkpt>
      <trkpt lat="47.30633" lon="4.91934">
        <ele>445</ele>
        <time>2012-12-08T07:41:06Z</time>
      </trkpt>
      <trkpt lat="47.30638" lon="4.91929">
        <ele>442</ele>
        <time>2012-12-08T07:41:08Z</time>
      </trkpt>
      <trkpt lat="47.30644" lon="4.91923">
        <ele>439</ele>
        <time>2012-12-08T07:41:11Z</time>
      </trkpt>
      <trkpt lat="47.30647" lon="4.91918">
        <ele>439</ele>
        <time>2012-12-08T07:41:14Z</time>
      </trkpt>
      <trkpt lat="47.30653" lon="4.91914">
        <ele>437</ele>
        <time>2012-12-08T07:41:17Z</time>
      </trkpt>
      <trkpt lat="47.30658" lon="4.9191">
        <ele>437</ele>
        <time>2012-12-08T07:41:20Z</time>
      </trkpt>
      <trkpt lat="47.30662" lon="4.91908">
        <ele>437</ele>
        <time>2012-12-08T07:41:23Z</time>
      </trkpt>
      <trkpt lat="47.30668" lon="4.91904">
        <ele>434</ele>
        <time>2012-12-08T07:41:27Z</time>
      </trkpt>
      <trkpt lat="47.30673" lon="4.91898">
        <ele>432</ele>
        <time>2012-12-08T07:41:30Z</time>
      </trkpt>
      <trkpt lat="47.30677" lon="4.91895">
        <ele>432</ele>
        <time>2012-12-08T07:41:32Z</time>
      </trkpt>
      <trkpt lat="47.30682" lon="4.91889">
        <ele>431</ele>
        <time>2012-12-08T07:41:36Z</time>
      </trkpt>
      <trkpt lat="47.30687" lon="4.91888">
        <ele>430</ele>
        <time>2012-12-08T07:41:39Z</time>
      </trkpt>
      <trkpt lat="47.30692" lon="4.91886">
        <ele>430</ele>
        <time>2012-12-08T07:41:42Z</time>
      </trkpt>
      <trkpt lat="47.30697" lon="4.91881">
        <ele>431</ele>
        <time>2012-12-08T07:41:45Z</time>
      </trkpt>
      <trkpt lat="47.30701" lon="4.91879">
        <ele>431</ele>
        <time>2012-12-08T07:41:48Z</time>
      </trkpt>
      <trkpt lat="47.30707" lon="4.91876">
        <ele>431</ele>
        <time>2012-12-08T07:41:52Z</time>
      </trkpt>
      <trkpt lat="47.30713" lon="4.91872">
        <ele>431</ele>
        <time>2012-12-08T07:41:55Z</time>
      </trkpt>
      <trkpt lat="47.30719" lon="4.91871">
        <ele>430</ele>
        <time>2012-12-08T07:41:59Z</time>
      </trkpt>
      <trkpt lat="47.3072" lon="4.91862">
        <ele>429</ele>
        <time>2012-12-08T07:42:04Z</time>
      </trkpt>
      <trkpt lat="47.30718" lon="4.91854">
        <ele>430</ele>
        <time>2012-12-08T07:42:08Z</time>
      </trkpt>
      <trkpt lat="47.30714" lon="4.91848">
        <ele>430</ele>
        <time>2012-12-08T07:42:12Z</time>
      </trkpt>
      <trkpt lat="47.30709" lon="4.91842">
        <ele>429</ele>
        <time>2012-12-08T07:42:15Z</time>
      </trkpt>
      <trkpt lat="47.30704" lon="4.91839">
        <ele>430</ele>
        <time>2012-12-08T07:42:19Z</time>
      </trkpt>
      <trkpt lat="47.30698" lon="4.91834">
        <ele>429</ele>
        <time>2012-12-08T07:42:22Z</time>
      </trkpt>
      <trkpt lat="47.30695" lon="4.9183">
        <ele>428</ele>
        <time>2012-12-08T07:42:29Z</time>
      </trkpt>
      <trkpt lat="47.30689" lon="4.91832">
        <ele>430</ele>
        <time>2012-12-08T07:42:38Z</time>
      </trkpt>
      <trkpt lat="47.30683" lon="4.91831">
        <ele>430</ele>
        <time>2012-12-08T07:42:42Z</time>
      </trkpt>
      <trkpt lat="47.30678" lon="4.91829">
        <ele>432</ele>
        <time>2012-12-08T07:42:45Z</time>
      </trkpt>
      <trkpt lat="47.3067" lon="4.91827">
        <ele>433</ele>
        <time>2012-12-08T07:42:50Z</time>
      </trkpt>
      <trkpt lat="47.30666" lon="4.91824">
        <ele>432</ele>
        <time>2012-12-08T07:42:52Z</time>
      </trkpt>
      <trkpt lat="47.3066" lon="4.91823">
        <ele>433</ele>
        <time>2012-12-08T07:42:54Z</time>
      </trkpt>
      <trkpt lat="47.30653" lon="4.9182">
        <ele>433</ele>
        <time>2012-12-08T07:42:56Z</time>
      </trkpt>
      <trkpt lat="47.30648" lon="4.91817">
        <ele>434</ele>
        <time>2012-12-08T07:42:58Z</time>
      </trkpt>
      <trkpt lat="47.30644" lon="4.91812">
        <ele>434</ele>
        <time>2012-12-08T07:43:00Z</time>
      </trkpt>
      <trkpt lat="47.30639" lon="4.91807">
        <ele>435</ele>
        <time>2012-12-08T07:43:02Z</time>
      </trkpt>
      <trkpt lat="47.30637" lon="4.918">
        <ele>434</ele>
        <time>2012-12-08T07:43:07Z</time>
      </trkpt>
      <trkpt lat="47.30632" lon="4.91796">
        <ele>436</ele>
        <time>2012-12-08T07:43:12Z</time>
      </trkpt>
      <trkpt lat="47.30628" lon="4.91793">
        <ele>435</ele>
        <time>2012-12-08T07:43:16Z</time>
      </trkpt>
      <trkpt lat="47.30625" lon="4.91788">
        <ele>434</ele>
        <time>2012-12-08T07:43:18Z</time>
      </trkpt>
      <trkpt lat="47.3062" lon="4.91786">
        <ele>436</ele>
        <time>2012-12-08T07:43:20Z</time>
      </trkpt>
      <trkpt lat="47.30615" lon="4.91782">
        <ele>435</ele>
        <time>2012-12-08T07:43:24Z</time>
      </trkpt>
      <trkpt lat="47.30608" lon="4.9178">
        <ele>436</ele>
        <time>2012-12-08T07:43:27Z</time>
      </trkpt>
      <trkpt lat="47.30602" lon="4.91779">
        <ele>437</ele>
        <time>2012-12-08T07:43:30Z</time>
      </trkpt>
      <trkpt lat="47.30596" lon="4.91779">
        <ele>439</ele>
        <time>2012-12-08T07:43:34Z</time>
      </trkpt>
      <trkpt lat="47.3059" lon="4.91778">
        <ele>440</ele>
        <time>2012-12-08T07:43:38Z</time>
      </trkpt>
      <trkpt lat="47.30585" lon="4.91775">
        <ele>442</ele>
        <time>2012-12-08T07:43:40Z</time>
      </trkpt>
      <trkpt lat="47.30579" lon="4.91771">
        <ele>444</ele>
        <time>2012-12-08T07:43:44Z</time>
      </trkpt>
      <trkpt lat="47.30574" lon="4.91768">
        <ele>443</ele>
        <time>2012-12-08T07:43:47Z</time>
      </trkpt>
      <trkpt lat="47.3057" lon="4.91767">
        <ele>443</ele>
        <time>2012-12-08T07:43:51Z</time>
      </trkpt>
      <trkpt lat="47.30565" lon="4.91764">
        <ele>440</ele>
        <time>2012-12-08T07:43:57Z</time>
      </trkpt>
      <trkpt lat="47.30558" lon="4.91763">
        <ele>439</ele>
        <time>2012-12-08T07:44:01Z</time>
      </trkpt>
      <trkpt lat="47.30552" lon="4.91764">
        <ele>442</ele>
        <time>2012-12-08T07:44:05Z</time>
      </trkpt>
      <trkpt lat="47.30548" lon="4.91763">
        <ele>440</ele>
        <time>2012-12-08T07:44:10Z</time>
      </trkpt>
      <trkpt lat="47.30542" lon="4.91762">
        <ele>441</ele>
        <time>2012-12-08T07:44:15Z</time>
      </trkpt>
      <trkpt lat="47.30537" lon="4.91762">
        <ele>441</ele>
        <time>2012-12-08T07:44:17Z</time>
      </trkpt>
      <trkpt lat="47.30532" lon="4.91761">
        <ele>441</ele>
        <time>2012-12-08T07:44:20Z</time>
      </trkpt>
      <trkpt lat="47.30523" lon="4.91763">
        <ele>441</ele>
        <time>2012-12-08T07:44:23Z</time>
      </trkpt>
      <trkpt lat="47.30517" lon="4.91762">
        <ele>441</ele>
        <time>2012-12-08T07:44:25Z</time>
      </trkpt>
      <trkpt lat="47.30513" lon="4.91757">
        <ele>439</ele>
        <time>2012-12-08T07:44:27Z</time>
      </trkpt>
      <trkpt lat="47.30513" lon="4.91749">
        <ele>437</ele>
        <time>2012-12-08T07:44:31Z</time>
      </trkpt>
      <trkpt lat="47.30514" lon="4.91742">
        <ele>437</ele>
        <time>2012-12-08T07:44:35Z</time>
      </trkpt>
      <trkpt lat="47.30513" lon="4.91735">
        <ele>435</ele>
        <time>2012-12-08T07:44:39Z</time>
      </trkpt>
      <trkpt lat="47.30514" lon="4.91728">
        <ele>434</ele>
        <time>2012-12-08T07:44:45Z</time>
      </trkpt>
      <trkpt lat="47.30512" lon="4.9172">
        <ele>434</ele>
        <time>2012-12-08T07:44:48Z</time>
      </trkpt>
      <trkpt lat="47.3051" lon="4.91712">
        <ele>433</ele>
        <time>2012-12-08T07:44:51Z</time>
      </trkpt>
      <trkpt lat="47.30508" lon="4.91705">
        <ele>432</ele>
        <time>2012-12-08T07:44:54Z</time>
      </trkpt>
      <trkpt lat="47.30507" lon="4.91697">
        <ele>430</ele>
        <time>2012-12-08T07:44:57Z</time>
      </trkpt>
      <trkpt lat="47.30511" lon="4.91692">
        <ele>430</ele>
        <time>2012-12-08T07:45:00Z</time>
      </trkpt>
      <trkpt lat="47.30513" lon="4.91686">
        <ele>429</ele>
        <time>2012-12-08T07:45:03Z</time>
      </trkpt>
      <trkpt lat="47.30512" lon="4.91675">
        <ele>427</ele>
        <time>2012-12-08T07:45:06Z</time>
      </trkpt>
      <trkpt lat="47.3051" lon="4.91666">
        <ele>425</ele>
        <time>2012-12-08T07:45:10Z</time>
      </trkpt>
      <trkpt lat="47.30509" lon="4.91658">
        <ele>424</ele>
        <time>2012-12-08T07:45:12Z</time>
      </trkpt>
      <trkpt lat="47.3051" lon="4.91652">
        <ele>423</ele>
        <time>2012-12-08T07:45:16Z</time>
      </trkpt>
      <trkpt lat="47.30508" lon="4.91645">
        <ele>422</ele>
        <time>2012-12-08T07:45:18Z</time>
      </trkpt>
      <trkpt lat="47.30506" lon="4.91636">
        <ele>419</ele>
        <time>2012-12-08T07:45:22Z</time>
      </trkpt>
      <trkpt lat="47.30507" lon="4.91629">
        <ele>418</ele>
        <time>2012-12-08T07:45:25Z</time>
      </trkpt>
      <trkpt lat="47.30506" lon="4.91622">
        <ele>416</ele>
        <time>2012-12-08T07:45:31Z</time>
      </trkpt>
      <trkpt lat="47.30507" lon="4.91613">
        <ele>415</ele>
        <time>2012-12-08T07:45:33Z</time>
      </trkpt>
      <trkpt lat="47.30505" lon="4.91605">
        <ele>413</ele>
        <time>2012-12-08T07:45:36Z</time>
      </trkpt>
      <trkpt lat="47.30504" lon="4.91598">
        <ele>411</ele>
        <time>2012-12-08T07:45:40Z</time>
      </trkpt>
      <trkpt lat="47.3051" lon="4.91598">
        <ele>408</ele>
        <time>2012-12-08T07:45:43Z</time>
      </trkpt>
      <trkpt lat="47.30511" lon="4.9159">
        <ele>404</ele>
        <time>2012-12-08T07:45:50Z</time>
      </trkpt>
      <trkpt lat="47.30511" lon="4.91583">
        <ele>402</ele>
        <time>2012-12-08T07:45:59Z</time>
      </trkpt>
      <trkpt lat="47.30513" lon="4.91577">
        <ele>395</ele>
        <time>2012-12-08T07:46:05Z</time>
      </trkpt>
      <trkpt lat="47.30512" lon="4.9157">
        <ele>393</ele>
        <time>2012-12-08T07:46:08Z</time>
      </trkpt>
      <trkpt lat="47.30513" lon="4.91563">
        <ele>392</ele>
        <time>2012-12-08T07:46:13Z</time>
      </trkpt>
      <trkpt lat="47.30514" lon="4.91556">
        <ele>391</ele>
        <time>2012-12-08T07:46:24Z</time>
      </trkpt>
      <trkpt lat="47.3051" lon="4.91549">
        <ele>388</ele>
        <time>2012-12-08T07:46:28Z</time>
      </trkpt>
      <trkpt lat="47.3051" lon="4.91542">
        <ele>386</ele>
        <time>2012-12-08T07:46:32Z</time>
      </trkpt>
      <trkpt lat="47.3051" lon="4.91535">
        <ele>382</ele>
        <time>2012-12-08T07:46:42Z</time>
      </trkpt>
      <trkpt lat="47.30508" lon="4.91528">
        <ele>378</ele>
        <time>2012-12-08T07:46:46Z</time>
      </trkpt>
      <trkpt lat="47.30509" lon="4.9152">
        <ele>379</ele>
        <time>2012-12-08T07:46:51Z</time>
      </trkpt>
      <trkpt lat="47.30511" lon="4.91512">
        <ele>377</ele>
        <time>2012-12-08T07:46:56Z</time>
      </trkpt>
      <trkpt lat="47.30512" lon="4.91506">
        <ele>374</ele>
        <time>2012-12-08T07:47:00Z</time>
      </trkpt>
      <trkpt lat="47.30516" lon="4.91499">
        <ele>373</ele>
        <time>2012-12-08T07:47:05Z</time>
      </trkpt>
      <trkpt lat="47.3052" lon="4.91493">
        <ele>374</ele>
        <time>2012-12-08T07:47:09Z</time>
      </trkpt>
      <trkpt lat="47.30522" lon="4.91485">
        <ele>371</ele>
        <time>2012-12-08T07:47:11Z</time>
      </trkpt>
      <trkpt lat="47.30527" lon="4.91476">
        <ele>368</ele>
        <time>2012-12-08T07:47:13Z</time>
      </trkpt>
      <trkpt lat="47.3053" lon="4.91466">
        <ele>365</ele>
        <time>2012-12-08T07:47:15Z</time>
      </trkpt>
      <trkpt lat="47.30533" lon="4.9146">
        <ele>362</ele>
        <time>2012-12-08T07:47:17Z</time>
      </trkpt>
      <trkpt lat="47.30536" lon="4.91454">
        <ele>359</ele>
        <time>2012-12-08T07:47:19Z</time>
      </trkpt>
      <trkpt lat="47.30542" lon="4.91449">
        <ele>355</ele>
        <time>2012-12-08T07:47:28Z</time>
      </trkpt>
      <trkpt lat="47.30548" lon="4.91449">
        <ele>352</ele>
        <time>2012-12-08T07:47:31Z</time>
      </trkpt>
      <trkpt lat="47.30554" lon="4.91446">
        <ele>352</ele>
        <time>2012-12-08T07:47:34Z</time>
      </trkpt>
      <trkpt lat="47.30561" lon="4.91441">
        <ele>349</ele>
        <time>2012-12-08T07:47:37Z</time>
      </trkpt>
      <trkpt lat="47.30561" lon="4.91441">
        <ele>349</ele>
        <time>2012-12-08T07:47:37Z</time>
      </trkpt>
      <trkpt lat="47.30561" lon="4.91441">
        <ele>347</ele>
        <time>2012-12-08T07:47:38Z</time>
      </trkpt>
      <trkpt lat="47.30565" lon="4.9144">
        <ele>346</ele>
        <time>2012-12-08T07:47:41Z</time>
      </trkpt>
      <trkpt lat="47.3057" lon="4.91436">
        <ele>347</ele>
        <time>2012-12-08T07:47:45Z</time>
      </trkpt>
      <trkpt lat="47.30574" lon="4.91431">
        <ele>347</ele>
        <time>2012-12-08T07:47:49Z</time>
      </trkpt>
      <trkpt lat="47.30578" lon="4.91426">
        <ele>346</ele>
        <time>2012-12-08T07:47:52Z</time>
      </trkpt>
      <trkpt lat="47.30582" lon="4.91422">
        <ele>346</ele>
        <time>2012-12-08T07:47:54Z</time>
      </trkpt>
      <trkpt lat="47.30587" lon="4.91418">
        <ele>346</ele>
        <time>2012-12-08T07:47:56Z</time>
      </trkpt>
      <trkpt lat="47.3059" lon="4.91411">
        <ele>346</ele>
        <time>2012-12-08T07:47:58Z</time>
      </trkpt>
      <trkpt lat="47.30594" lon="4.91407">
        <ele>345</ele>
        <time>2012-12-08T07:48:00Z</time>
      </trkpt>
      <trkpt lat="47.30599" lon="4.91402">
        <ele>346</ele>
        <time>2012-12-08T07:48:03Z</time>
      </trkpt>
      <trkpt lat="47.30603" lon="4.91399">
        <ele>346</ele>
        <time>2012-12-08T07:48:06Z</time>
      </trkpt>
      <trkpt lat="47.30608" lon="4.91392">
        <ele>347</ele>
        <time>2012-12-08T07:48:09Z</time>
      </trkpt>
      <trkpt lat="47.30612" lon="4.9139">
        <ele>347</ele>
        <time>2012-12-08T07:48:13Z</time>
      </trkpt>
      <trkpt lat="47.3061" lon="4.91383">
        <ele>350</ele>
        <time>2012-12-08T07:48:19Z</time>
      </trkpt>
      <trkpt lat="47.30613" lon="4.91377">
        <ele>351</ele>
        <time>2012-12-08T07:48:23Z</time>
      </trkpt>
      <trkpt lat="47.30617" lon="4.91371">
        <ele>352</ele>
        <time>2012-12-08T07:48:26Z</time>
      </trkpt>
      <trkpt lat="47.30616" lon="4.91362">
        <ele>353</ele>
        <time>2012-12-08T07:48:28Z</time>
      </trkpt>
      <trkpt lat="47.30615" lon="4.91353">
        <ele>353</ele>
        <time>2012-12-08T07:48:32Z</time>
      </trkpt>
      <trkpt lat="47.30614" lon="4.91344">
        <ele>352</ele>
        <time>2012-12-08T07:48:35Z</time>
      </trkpt>
      <trkpt lat="47.30609" lon="4.91339">
        <ele>352</ele>
        <time>2012-12-08T07:48:41Z</time>
      </trkpt>
      <trkpt lat="47.30609" lon="4.91339">
        <ele>352</ele>
        <time>2012-12-08T07:48:41Z</time>
      </trkpt>
      <trkpt lat="47.30609" lon="4.91339">
        <ele>351</ele>
        <time>2012-12-08T07:48:42Z</time>
      </trkpt>
      <trkpt lat="47.30606" lon="4.91333">
        <ele>349</ele>
        <time>2012-12-08T07:48:44Z</time>
      </trkpt>
      <trkpt lat="47.30607" lon="4.91326">
        <ele>348</ele>
        <time>2012-12-08T07:48:48Z</time>
      </trkpt>
      <trkpt lat="47.306" lon="4.91321">
        <ele>349</ele>
        <time>2012-12-08T07:48:51Z</time>
      </trkpt>
      <trkpt lat="47.30596" lon="4.91315">
        <ele>349</ele>
        <time>2012-12-08T07:48:54Z</time>
      </trkpt>
      <trkpt lat="47.30591" lon="4.9131">
        <ele>351</ele>
        <time>2012-12-08T07:48:56Z</time>
      </trkpt>
      <trkpt lat="47.30587" lon="4.91305">
        <ele>351</ele>
        <time>2012-12-08T07:48:58Z</time>
      </trkpt>
      <trkpt lat="47.30583" lon="4.91297">
        <ele>351</ele>
        <time>2012-12-08T07:49:01Z</time>
      </trkpt>
      <trkpt lat="47.30582" lon="4.9129">
        <ele>350</ele>
        <time>2012-12-08T07:49:04Z</time>
      </trkpt>
      <trkpt lat="47.30584" lon="4.91283">
        <ele>352</ele>
        <time>2012-12-08T07:49:07Z</time>
      </trkpt>
      <trkpt lat="47.30585" lon="4.91275">
        <ele>352</ele>
        <time>2012-12-08T07:49:12Z</time>
      </trkpt>
      <trkpt lat="47.30585" lon="4.91275">
        <ele>352</ele>
        <time>2012-12-08T07:49:12Z</time>
      </trkpt>
      <trkpt lat="47.30585" lon="4.91275">
        <ele>353</ele>
        <time>2012-12-08T07:49:21Z</time>
      </trkpt>
      <trkpt lat="47.30581" lon="4.91277">
        <ele>355</ele>
        <time>2012-12-08T07:49:27Z</time>
      </trkpt>
      <trkpt lat="47.30577" lon="4.91281">
        <ele>359</ele>
        <time>2012-12-08T07:49:32Z</time>
      </trkpt>
      <trkpt lat="47.30577" lon="4.91288">
        <ele>363</ele>
        <time>2012-12-08T07:49:39Z</time>
      </trkpt>
      <trkpt lat="47.30577" lon="4.91296">
        <ele>364</ele>
        <time>2012-12-08T07:49:42Z</time>
      </trkpt>
      <trkpt lat="47.30579" lon="4.91303">
        <ele>366</ele>
        <time>2012-12-08T07:49:46Z</time>
      </trkpt>
      <trkpt lat="47.3058" lon="4.91311">
        <ele>366</ele>
        <time>2012-12-08T07:49:48Z</time>
      </trkpt>
      <trkpt lat="47.30584" lon="4.9132">
        <ele>365</ele>
        <time>2012-12-08T07:49:50Z</time>
      </trkpt>
      <trkpt lat="47.30578" lon="4.91327">
        <ele>363</ele>
        <time>2012-12-08T07:49:52Z</time>
      </trkpt>
      <trkpt lat="47.30576" lon="4.91333">
        <ele>362</ele>
        <time>2012-12-08T07:49:55Z</time>
      </trkpt>
      <trkpt lat="47.30573" lon="4.9134">
        <ele>363</ele>
        <time>2012-12-08T07:49:59Z</time>
      </trkpt>
      <trkpt lat="47.30575" lon="4.91348">
        <ele>362</ele>
        <time>2012-12-08T07:50:02Z</time>
      </trkpt>
      <trkpt lat="47.30569" lon="4.91355">
        <ele>364</ele>
        <time>2012-12-08T07:50:06Z</time>
      </trkpt>
      <trkpt lat="47.30564" lon="4.91361">
        <ele>365</ele>
        <time>2012-12-08T07:50:09Z</time>
      </trkpt>
      <trkpt lat="47.3056" lon="4.91368">
        <ele>367</ele>
        <time>2012-12-08T07:50:12Z</time>
      </trkpt>
      <trkpt lat="47.30555" lon="4.91373">
        <ele>369</ele>
        <time>2012-12-08T07:50:16Z</time>
      </trkpt>
      <trkpt lat="47.30551" lon="4.91377">
        <ele>371</ele>
        <time>2012-12-08T07:50:20Z</time>
      </trkpt>
      <trkpt lat="47.30549" lon="4.91384">
        <ele>371</ele>
        <time>2012-12-08T07:50:24Z</time>
      </trkpt>
      <trkpt lat="47.30544" lon="4.91386">
        <ele>372</ele>
        <time>2012-12-08T07:50:26Z</time>
      </trkpt>
      <trkpt lat="47.3054" lon="4.91392">
        <ele>375</ele>
        <time>2012-12-08T07:50:29Z</time>
      </trkpt>
      <trkpt lat="47.30537" lon="4.91398">
        <ele>374</ele>
        <time>2012-12-08T07:50:32Z</time>
      </trkpt>
      <trkpt lat="47.30535" lon="4.91403">
        <ele>376</ele>
        <time>2012-12-08T07:50:34Z</time>
      </trkpt>
      <trkpt lat="47.30532" lon="4.91408">
        <ele>376</ele>
        <time>2012-12-08T07:50:36Z</time>
      </trkpt>
      <trkpt lat="47.30524" lon="4.9141">
        <ele>379</ele>
        <time>2012-12-08T07:50:39Z</time>
      </trkpt>
      <trkpt lat="47.3052" lon="4.91412">
        <ele>379</ele>
        <time>2012-12-08T07:50:40Z</time>
      </trkpt>
      <trkpt lat="47.30515" lon="4.91416">
        <ele>378</ele>
        <time>2012-12-08T07:50:42Z</time>
      </trkpt>
      <trkpt lat="47.30511" lon="4.91421">
        <ele>378</ele>
        <time>2012-12-08T07:50:45Z</time>
      </trkpt>
      <trkpt lat="47.30506" lon="4.91426">
        <ele>377</ele>
        <time>2012-12-08T07:50:47Z</time>
      </trkpt>
      <trkpt lat="47.30501" lon="4.9143">
        <ele>380</ele>
        <time>2012-12-08T07:50:51Z</time>
      </trkpt>
      <trkpt lat="47.30493" lon="4.91433">
        <ele>380</ele>
        <time>2012-12-08T07:50:57Z</time>
      </trkpt>
      <trkpt lat="47.30489" lon="4.91437">
        <ele>380</ele>
        <time>2012-12-08T07:51:01Z</time>
      </trkpt>
      <trkpt lat="47.30483" lon="4.9144">
        <ele>382</ele>
        <time>2012-12-08T07:51:04Z</time>
      </trkpt>
      <trkpt lat="47.30477" lon="4.91442">
        <ele>384</ele>
        <time>2012-12-08T07:51:06Z</time>
      </trkpt>
      <trkpt lat="47.30472" lon="4.91442">
        <ele>386</ele>
        <time>2012-12-08T07:51:08Z</time>
      </trkpt>
      <trkpt lat="47.30463" lon="4.91446">
        <ele>388</ele>
        <time>2012-12-08T07:51:11Z</time>
      </trkpt>
      <trkpt lat="47.30458" lon="4.91444">
        <ele>389</ele>
        <time>2012-12-08T07:51:14Z</time>
      </trkpt>
      <trkpt lat="47.30453" lon="4.91444">
        <ele>387</ele>
        <time>2012-12-08T07:51:17Z</time>
      </trkpt>
      <trkpt lat="47.3045" lon="4.91439">
        <ele>387</ele>
        <time>2012-12-08T07:51:20Z</time>
      </trkpt>
      <trkpt lat="47.30452" lon="4.9143">
        <ele>385</ele>
        <time>2012-12-08T07:51:25Z</time>
      </trkpt>
      <trkpt lat="47.30454" lon="4.91422">
        <ele>383</ele>
        <time>2012-12-08T07:51:28Z</time>
      </trkpt>
      <trkpt lat="47.30454" lon="4.91414">
        <ele>382</ele>
        <time>2012-12-08T07:51:31Z</time>
      </trkpt>
      <trkpt lat="47.30456" lon="4.91408">
        <ele>380</ele>
        <time>2012-12-08T07:51:35Z</time>
      </trkpt>
      <trkpt lat="47.30455" lon="4.91402">
        <ele>379</ele>
        <time>2012-12-08T07:51:38Z</time>
      </trkpt>
      <trkpt lat="47.30458" lon="4.91394">
        <ele>379</ele>
        <time>2012-12-08T07:51:40Z</time>
      </trkpt>
      <trkpt lat="47.30459" lon="4.91386">
        <ele>377</ele>
        <time>2012-12-08T07:51:44Z</time>
      </trkpt>
      <trkpt lat="47.30456" lon="4.91378">
        <ele>375</ele>
        <time>2012-12-08T07:51:46Z</time>
      </trkpt>
      <trkpt lat="47.3046" lon="4.91373">
        <ele>375</ele>
        <time>2012-12-08T07:51:49Z</time>
      </trkpt>
      <trkpt lat="47.30462" lon="4.91367">
        <ele>375</ele>
        <time>2012-12-08T07:51:53Z</time>
      </trkpt>
      <trkpt lat="47.30465" lon="4.9136">
        <ele>375</ele>
        <time>2012-12-08T07:51:58Z</time>
      </trkpt>
      <trkpt lat="47.30465" lon="4.91353">
        <ele>373</ele>
        <time>2012-12-08T07:52:03Z</time>
      </trkpt>
      <trkpt lat="47.30465" lon="4.91346">
        <ele>373</ele>
        <time>2012-12-08T07:52:08Z</time>
      </trkpt>
      <trkpt lat="47.30464" lon="4.91339">
        <ele>373</ele>
        <time>2012-12-08T07:52:13Z</time>
      </trkpt>
      <trkpt lat="47.30464" lon="4.91332">
        <ele>374</ele>
        <time>2012-12-08T07:52:18Z</time>
      </trkpt>
      <trkpt lat="47.30461" lon="4.91323">
        <ele>376</ele>
        <time>2012-12-08T07:52:34Z</time>
      </trkpt>
      <trkpt lat="47.30458" lon="4.91318">
        <ele>374</ele>
        <time>2012-12-08T07:52:37Z</time>
      </trkpt>
      <trkpt lat="47.30453" lon="4.91314">
        <ele>374</ele>
        <time>2012-12-08T07:52:41Z</time>
      </trkpt>
      <trkpt lat="47.30449" lon="4.91308">
        <ele>375</ele>
        <time>2012-12-08T07:52:45Z</time>
      </trkpt>
      <trkpt lat="47.30445" lon="4.913">
        <ele>377</ele>
        <time>2012-12-08T07:52:48Z</time>
      </trkpt>
      <trkpt lat="47.30443" lon="4.91293">
        <ele>380</ele>
        <time>2012-12-08T07:52:53Z</time>
      </trkpt>
      <trkpt lat="47.30441" lon="4.91286">
        <ele>383</ele>
        <time>2012-12-08T07:52:59Z</time>
      </trkpt>
      <trkpt lat="47.30435" lon="4.91283">
        <ele>385</ele>
        <time>2012-12-08T07:53:05Z</time>
      </trkpt>
      <trkpt lat="47.3043" lon="4.9128">
        <ele>389</ele>
        <time>2012-12-08T07:53:10Z</time>
      </trkpt>
      <trkpt lat="47.30425" lon="4.91277">
        <ele>390</ele>
        <time>2012-12-08T07:53:12Z</time>
      </trkpt>
      <trkpt lat="47.30424" lon="4.9127">
        <ele>393</ele>
        <time>2012-12-08T07:53:17Z</time>
      </trkpt>
      <trkpt lat="47.30423" lon="4.91263">
        <ele>395</ele>
        <time>2012-12-08T07:53:23Z</time>
      </trkpt>
      <trkpt lat="47.30422" lon="4.91256">
        <ele>395</ele>
        <time>2012-12-08T07:53:28Z</time>
      </trkpt>
      <trkpt lat="47.30422" lon="4.91247">
        <ele>395</ele>
        <time>2012-12-08T07:53:32Z</time>
      </trkpt>
      <trkpt lat="47.30423" lon="4.9124">
        <ele>395</ele>
        <time>2012-12-08T07:53:37Z</time>
      </trkpt>
      <trkpt lat="47.30422" lon="4.91233">
        <ele>397</ele>
        <time>2012-12-08T07:53:44Z</time>
      </trkpt>
      <trkpt lat="47.30419" lon="4.91227">
        <ele>400</ele>
        <time>2012-12-08T07:53:49Z</time>
      </trkpt>
      <trkpt lat="47.30416" lon="4.9122">
        <ele>403</ele>
        <time>2012-12-08T07:53:53Z</time>
      </trkpt>
      <trkpt lat="47.30414" lon="4.91214">
        <ele>401</ele>
        <time>2012-12-08T07:54:11Z</time>
      </trkpt>
      <trkpt lat="47.30414" lon="4.91214">
        <ele>401</ele>
        <time>2012-12-08T07:54:11Z</time>
      </trkpt>
      <trkpt lat="47.30414" lon="4.91214">
        <ele>401</ele>
        <time>2012-12-08T07:54:12Z</time>
      </trkpt>
      <trkpt lat="47.3041" lon="4.91207">
        <ele>402</ele>
        <time>2012-12-08T07:54:20Z</time>
      </trkpt>
      <trkpt lat="47.30405" lon="4.91205">
        <ele>402</ele>
        <time>2012-12-08T07:54:24Z</time>
      </trkpt>
      <trkpt lat="47.304" lon="4.91204">
        <ele>402</ele>
        <time>2012-12-08T07:54:26Z</time>
      </trkpt>
      <trkpt lat="47.30394" lon="4.91199">
        <ele>404</ele>
        <time>2012-12-08T07:54:29Z</time>
      </trkpt>
      <trkpt lat="47.3039" lon="4.91195">
        <ele>404</ele>
        <time>2012-12-08T07:54:31Z</time>
      </trkpt>
      <trkpt lat="47.30384" lon="4.91193">
        <ele>404</ele>
        <time>2012-12-08T07:54:34Z</time>
      </trkpt>
      <trkpt lat="47.30379" lon="4.91187">
        <ele>404</ele>
        <time>2012-12-08T07:54:38Z</time>
      </trkpt>
      <trkpt lat="47.30375" lon="4.9118">
        <ele>405</ele>
        <time>2012-12-08T07:54:43Z</time>
      </trkpt>
      <trkpt lat="47.30371" lon="4.91176">
        <ele>407</ele>
        <time>2012-12-08T07:54:48Z</time>
      </trkpt>
      <trkpt lat="47.30366" lon="4.91175">
        <ele>407</ele>
        <time>2012-12-08T07:55:01Z</time>
      </trkpt>
      <trkpt lat="47.30366" lon="4.91175">
        <ele>407</ele>
        <time>2012-12-08T07:55:01Z</time>
      </trkpt>
      <trkpt lat="47.30366" lon="4.91175">
        <ele>407</ele>
        <time>2012-12-08T07:55:03Z</time>
      </trkpt>
      <trkpt lat="47.30363" lon="4.91169">
        <ele>409</ele>
        <time>2012-12-08T07:55:11Z</time>
      </trkpt>
      <trkpt lat="47.30362" lon="4.91161">
        <ele>409</ele>
        <time>2012-12-08T07:55:16Z</time>
      </trkpt>
      <trkpt lat="47.30362" lon="4.91153">
        <ele>408</ele>
        <time>2012-12-08T07:55:20Z</time>
      </trkpt>
      <trkpt lat="47.30362" lon="4.91153">
        <ele>408</ele>
        <time>2012-12-08T07:55:20Z</time>
      </trkpt>
      <trkpt lat="47.30362" lon="4.91153">
        <ele>408</ele>
        <time>2012-12-08T07:55:22Z</time>
      </trkpt>
      <trkpt lat="47.30362" lon="4.91145">
        <ele>408</ele>
        <time>2012-12-08T07:55:25Z</time>
      </trkpt>
      <trkpt lat="47.30362" lon="4.91138">
        <ele>409</ele>
        <time>2012-12-08T07:55:27Z</time>
      </trkpt>
      <trkpt lat="47.30362" lon="4.91131">
        <ele>408</ele>
        <time>2012-12-08T07:55:30Z</time>
      </trkpt>
      <trkpt lat="47.30361" lon="4.91123">
        <ele>408</ele>
        <time>2012-12-08T07:55:33Z</time>
      </trkpt>
      <trkpt lat="47.30365" lon="4.91118">
        <ele>410</ele>
        <time>2012-12-08T07:55:36Z</time>
      </trkpt>
      <trkpt lat="47.30368" lon="4.91112">
        <ele>408</ele>
        <time>2012-12-08T07:55:39Z</time>
      </trkpt>
      <trkpt lat="47.30368" lon="4.91105">
        <ele>409</ele>
        <time>2012-12-08T07:55:42Z</time>
      </trkpt>
      <trkpt lat="47.30368" lon="4.91098">
        <ele>409</ele>
        <time>2012-12-08T07:55:45Z</time>
      </trkpt>
      <trkpt lat="47.30368" lon="4.91089">
        <ele>409</ele>
        <time>2012-12-08T07:55:48Z</time>
      </trkpt>
      <trkpt lat="47.30368" lon="4.91081">
        <ele>410</ele>
        <time>2012-12-08T07:55:51Z</time>
      </trkpt>
      <trkpt lat="47.30369" lon="4.91073">
        <ele>409</ele>
        <time>2012-12-08T07:55:54Z</time>
      </trkpt>
      <trkpt lat="47.30371" lon="4.91066">
        <ele>409</ele>
        <time>2012-12-08T07:55:57Z</time>
      </trkpt>
      <trkpt lat="47.30374" lon="4.91061">
        <ele>408</ele>
        <time>2012-12-08T07:56:00Z</time>
      </trkpt>
      <trkpt lat="47.30373" lon="4.91054">
        <ele>409</ele>
        <time>2012-12-08T07:56:05Z</time>
      </trkpt>
      <trkpt lat="47.30371" lon="4.91047">
        <ele>410</ele>
        <time>2012-12-08T07:56:09Z</time>
      </trkpt>
      <trkpt lat="47.3037" lon="4.91039">
        <ele>409</ele>
        <time>2012-12-08T07:56:12Z</time>
      </trkpt>
      <trkpt lat="47.3037" lon="4.9103">
        <ele>409</ele>
        <time>2012-12-08T07:56:15Z</time>
      </trkpt>
      <trkpt lat="47.30368" lon="4.91023">
        <ele>408</ele>
        <time>2012-12-08T07:56:17Z</time>
      </trkpt>
      <trkpt lat="47.30366" lon="4.91016">
        <ele>407</ele>
        <time>2012-12-08T07:56:19Z</time>
      </trkpt>
      <trkpt lat="47.3037" lon="4.91009">
        <ele>405</ele>
        <time>2012-12-08T07:56:23Z</time>
      </trkpt>
      <trkpt lat="47.30366" lon="4.91001">
        <ele>403</ele>
        <time>2012-12-08T07:56:26Z</time>
      </trkpt>
      <trkpt lat="47.30365" lon="4.90994">
        <ele>403</ele>
        <time>2012-12-08T07:56:29Z</time>
      </trkpt>
      <trkpt lat="47.30362" lon="4.90986">
        <ele>403</ele>
        <time>2012-12-08T07:56:31Z</time>
      </trkpt>
      <trkpt lat="47.30361" lon="4.90976">
        <ele>401</ele>
        <time>2012-12-08T07:56:34Z</time>
      </trkpt>
      <trkpt lat="47.30359" lon="4.90968">
        <ele>399</ele>
        <time>2012-12-08T07:56:37Z</time>
      </trkpt>
      <trkpt lat="47.30358" lon="4.9096">
        <ele>400</ele>
        <time>2012-12-08T07:56:40Z</time>
      </trkpt>
      <trkpt lat="47.30357" lon="4.9095">
        <ele>400</ele>
        <time>2012-12-08T07:56:43Z</time>
      </trkpt>
      <trkpt lat="47.30358" lon="4.90942">
        <ele>399</ele>
        <time>2012-12-08T07:56:46Z</time>
      </trkpt>
      <trkpt lat="47.30357" lon="4.90934">
        <ele>399</ele>
        <time>2012-12-08T07:56:49Z</time>
      </trkpt>
      <trkpt lat="47.30359" lon="4.90928">
        <ele>399</ele>
        <time>2012-12-08T07:56:52Z</time>
      </trkpt>
      <trkpt lat="47.30359" lon="4.9092">
        <ele>398</ele>
        <time>2012-12-08T07:56:55Z</time>
      </trkpt>
      <trkpt lat="47.3036" lon="4.90912">
        <ele>399</ele>
        <time>2012-12-08T07:56:59Z</time>
      </trkpt>
      <trkpt lat="47.30362" lon="4.90904">
        <ele>400</ele>
        <time>2012-12-08T07:57:03Z</time>
      </trkpt>
      <trkpt lat="47.30364" lon="4.90895">
        <ele>402</ele>
        <time>2012-12-08T07:57:08Z</time>
      </trkpt>
      <trkpt lat="47.30367" lon="4.90888">
        <ele>404</ele>
        <time>2012-12-08T07:57:13Z</time>
      </trkpt>
      <trkpt lat="47.30368" lon="4.90881">
        <ele>404</ele>
        <time>2012-12-08T07:57:17Z</time>
      </trkpt>
      <trkpt lat="47.3037" lon="4.90873">
        <ele>403</ele>
        <time>2012-12-08T07:57:21Z</time>
      </trkpt>
      <trkpt lat="47.30372" lon="4.90866">
        <ele>401</ele>
        <time>2012-12-08T07:57:25Z</time>
      </trkpt>
      <trkpt lat="47.30372" lon="4.90858">
        <ele>403</ele>
        <time>2012-12-08T07:57:30Z</time>
      </trkpt>
      <trkpt lat="47.30371" lon="4.90851">
        <ele>407</ele>
        <time>2012-12-08T07:57:40Z</time>
      </trkpt>
      <trkpt lat="47.30373" lon="4.90845">
        <ele>406</ele>
        <time>2012-12-08T07:57:46Z</time>
      </trkpt>
      <trkpt lat="47.30378" lon="4.90837">
        <ele>405</ele>
        <time>2012-12-08T07:57:51Z</time>
      </trkpt>
      <trkpt lat="47.30382" lon="4.90834">
        <ele>405</ele>
        <time>2012-12-08T07:57:54Z</time>
      </trkpt>
      <trkpt lat="47.30384" lon="4.90828">
        <ele>409</ele>
        <time>2012-12-08T07:57:59Z</time>
      </trkpt>
      <trkpt lat="47.30386" lon="4.90822">
        <ele>411</ele>
        <time>2012-12-08T07:58:04Z</time>
      </trkpt>
      <trkpt lat="47.3039" lon="4.90818">
        <ele>411</ele>
        <time>2012-12-08T07:58:09Z</time>
      </trkpt>
      <trkpt lat="47.30394" lon="4.90812">
        <ele>412</ele>
        <time>2012-12-08T07:58:13Z</time>
      </trkpt>
      <trkpt lat="47.30396" lon="4.90805">
        <ele>413</ele>
        <time>2012-12-08T07:58:19Z</time>
      </trkpt>
      <trkpt lat="47.304" lon="4.908">
        <ele>414</ele>
        <time>2012-12-08T07:58:28Z</time>
      </trkpt>
      <trkpt lat="47.30403" lon="4.90795">
        <ele>415</ele>
        <time>2012-12-08T07:58:31Z</time>
      </trkpt>
      <trkpt lat="47.30406" lon="4.9079">
        <ele>417</ele>
        <time>2012-12-08T07:58:36Z</time>
      </trkpt>
      <trkpt lat="47.30406" lon="4.90782">
        <ele>418</ele>
        <time>2012-12-08T07:58:42Z</time>
      </trkpt>
      <trkpt lat="47.30407" lon="4.90773">
        <ele>422</ele>
        <time>2012-12-08T07:58:52Z</time>
      </trkpt>
      <trkpt lat="47.30411" lon="4.90768">
        <ele>422</ele>
        <time>2012-12-08T07:58:57Z</time>
      </trkpt>
      <trkpt lat="47.30413" lon="4.90761">
        <ele>425</ele>
        <time>2012-12-08T07:59:05Z</time>
      </trkpt>
      <trkpt lat="47.30414" lon="4.90754">
        <ele>427</ele>
        <time>2012-12-08T07:59:10Z</time>
      </trkpt>
      <trkpt lat="47.30414" lon="4.90747">
        <ele>428</ele>
        <time>2012-12-08T07:59:14Z</time>
      </trkpt>
      <trkpt lat="47.30414" lon="4.9074">
        <ele>430</ele>
        <time>2012-12-08T07:59:19Z</time>
      </trkpt>
      <trkpt lat="47.30415" lon="4.90733">
        <ele>432</ele>
        <time>2012-12-08T07:59:25Z</time>
      </trkpt>
      <trkpt lat="47.30415" lon="4.90726">
        <ele>432</ele>
        <time>2012-12-08T07:59:29Z</time>
      </trkpt>
      <trkpt lat="47.30418" lon="4.90721">
        <ele>433</ele>
        <time>2012-12-08T07:59:34Z</time>
      </trkpt>
      <trkpt lat="47.30419" lon="4.90711">
        <ele>434</ele>
        <time>2012-12-08T07:59:41Z</time>
      </trkpt>
      <trkpt lat="47.30419" lon="4.90704">
        <ele>433</ele>
        <time>2012-12-08T07:59:44Z</time>
      </trkpt>
      <trkpt lat="47.30423" lon="4.90699">
        <ele>440</ele>
        <time>2012-12-08T07:59:50Z</time>
      </trkpt>
      <trkpt lat="47.30425" lon="4.90692">
        <ele>441</ele>
        <time>2012-12-08T07:59:56Z</time>
      </trkpt>
      <trkpt lat="47.30427" lon="4.90686">
        <ele>442</ele>
        <time>2012-12-08T07:59:59Z</time>
      </trkpt>
      <trkpt lat="47.30428" lon="4.90678">
        <ele>443</ele>
        <time>2012-12-08T08:00:05Z</time>
      </trkpt>
      <trkpt lat="47.30432" lon="4.90672">
        <ele>444</ele>
        <time>2012-12-08T08:00:11Z</time>
      </trkpt>
      <trkpt lat="47.30433" lon="4.90666">
        <ele>447</ele>
        <time>2012-12-08T08:00:21Z</time>
      </trkpt>
      <trkpt lat="47.30436" lon="4.9066">
        <ele>447</ele>
        <time>2012-12-08T08:00:25Z</time>
      </trkpt>
      <trkpt lat="47.30439" lon="4.90654">
        <ele>449</ele>
        <time>2012-12-08T08:00:29Z</time>
      </trkpt>
      <trkpt lat="47.30442" lon="4.90647">
        <ele>449</ele>
        <time>2012-12-08T08:00:33Z</time>
      </trkpt>
      <trkpt lat="47.30446" lon="4.90642">
        <ele>448</ele>
        <time>2012-12-08T08:00:35Z</time>
      </trkpt>
      <trkpt lat="47.30447" lon="4.90635">
        <ele>448</ele>
        <time>2012-12-08T08:00:40Z</time>
      </trkpt>
      <trkpt lat="47.30451" lon="4.90629">
        <ele>448</ele>
        <time>2012-12-08T08:00:45Z</time>
      </trkpt>
      <trkpt lat="47.30454" lon="4.90623">
        <ele>449</ele>
        <time>2012-12-08T08:00:50Z</time>
      </trkpt>
      <trkpt lat="47.30458" lon="4.90617">
        <ele>452</ele>
        <time>2012-12-08T08:00:56Z</time>
      </trkpt>
      <trkpt lat="47.3046" lon="4.9061">
        <ele>452</ele>
        <time>2012-12-08T08:01:00Z</time>
      </trkpt>
      <trkpt lat="47.30462" lon="4.90603">
        <ele>451</ele>
        <time>2012-12-08T08:01:05Z</time>
      </trkpt>
      <trkpt lat="47.30464" lon="4.90595">
        <ele>452</ele>
        <time>2012-12-08T08:01:09Z</time>
      </trkpt>
      <trkpt lat="47.30466" lon="4.90589">
        <ele>452</ele>
        <time>2012-12-08T08:01:12Z</time>
      </trkpt>
      <trkpt lat="47.30469" lon="4.90584">
        <ele>454</ele>
        <time>2012-12-08T08:01:17Z</time>
      </trkpt>
      <trkpt lat="47.30469" lon="4.90584">
        <ele>454</ele>
        <time>2012-12-08T08:01:17Z</time>
      </trkpt>
      <trkpt lat="47.30469" lon="4.90584">
        <ele>454</ele>
        <time>2012-12-08T08:01:18Z</time>
      </trkpt>
      <trkpt lat="47.3047" lon="4.90576">
        <ele>456</ele>
        <time>2012-12-08T08:01:23Z</time>
      </trkpt>
      <trkpt lat="47.30474" lon="4.90571">
        <ele>460</ele>
        <time>2012-12-08T08:01:31Z</time>
      </trkpt>
      <trkpt lat="47.30478" lon="4.90565">
        <ele>459</ele>
        <time>2012-12-08T08:01:35Z</time>
      </trkpt>
      <trkpt lat="47.30482" lon="4.90559">
        <ele>461</ele>
        <time>2012-12-08T08:01:41Z</time>
      </trkpt>
      <trkpt lat="47.30485" lon="4.90553">
        <ele>461</ele>
        <time>2012-12-08T08:01:44Z</time>
      </trkpt>
      <trkpt lat="47.30488" lon="4.90546">
        <ele>462</ele>
        <time>2012-12-08T08:01:48Z</time>
      </trkpt>
      <trkpt lat="47.30491" lon="4.9054">
        <ele>462</ele>
        <time>2012-12-08T08:01:52Z</time>
      </trkpt>
      <trkpt lat="47.30496" lon="4.90537">
        <ele>463</ele>
        <time>2012-12-08T08:01:56Z</time>
      </trkpt>
      <trkpt lat="47.305" lon="4.90534">
        <ele>465</ele>
        <time>2012-12-08T08:02:01Z</time>
      </trkpt>
      <trkpt lat="47.30505" lon="4.9053">
        <ele>465</ele>
        <time>2012-12-08T08:02:04Z</time>
      </trkpt>
      <trkpt lat="47.30509" lon="4.90523">
        <ele>465</ele>
        <time>2012-12-08T08:02:07Z</time>
      </trkpt>
      <trkpt lat="47.30512" lon="4.90517">
        <ele>465</ele>
        <time>2012-12-08T08:02:11Z</time>
      </trkpt>
      <trkpt lat="47.30514" lon="4.9051">
        <ele>465</ele>
        <time>2012-12-08T08:02:16Z</time>
      </trkpt>
      <trkpt lat="47.30509" lon="4.90508">
        <ele>466</ele>
        <time>2012-12-08T08:02:28Z</time>
      </trkpt>
      <trkpt lat="47.30505" lon="4.90504">
        <ele>466</ele>
        <time>2012-12-08T08:02:33Z</time>
      </trkpt>
      <trkpt lat="47.30499" lon="4.90502">
        <ele>466</ele>
        <time>2012-12-08T08:02:42Z</time>
      </trkpt>
      <trkpt lat="47.30494" lon="4.90501">
        <ele>467</ele>
        <time>2012-12-08T08:02:44Z</time>
      </trkpt>
      <trkpt lat="47.30489" lon="4.905">
        <ele>467</ele>
        <time>2012-12-08T08:02:46Z</time>
      </trkpt>
      <trkpt lat="47.30484" lon="4.90497">
        <ele>466</ele>
        <time>2012-12-08T08:02:50Z</time>
      </trkpt>
      <trkpt lat="47.30479" lon="4.90495">
        <ele>468</ele>
        <time>2012-12-08T08:02:55Z</time>
      </trkpt>
      <trkpt lat="47.30474" lon="4.90496">
        <ele>469</ele>
        <time>2012-12-08T08:02:59Z</time>
      </trkpt>
      <trkpt lat="47.30469" lon="4.90495">
        <ele>468</ele>
        <time>2012-12-08T08:03:02Z</time>
      </trkpt>
      <trkpt lat="47.30463" lon="4.90492">
        <ele>469</ele>
        <time>2012-12-08T08:03:04Z</time>
      </trkpt>
      <trkpt lat="47.30459" lon="4.9049">
        <ele>468</ele>
        <time>2012-12-08T08:03:08Z</time>
      </trkpt>
      <trkpt lat="47.30453" lon="4.9049">
        <ele>472</ele>
        <time>2012-12-08T08:03:14Z</time>
      </trkpt>
      <trkpt lat="47.30448" lon="4.90488">
        <ele>473</ele>
        <time>2012-12-08T08:03:16Z</time>
      </trkpt>
      <trkpt lat="47.30442" lon="4.90486">
        <ele>475</ele>
        <time>2012-12-08T08:03:19Z</time>
      </trkpt>
      <trkpt lat="47.30438" lon="4.9048">
        <ele>476</ele>
        <time>2012-12-08T08:03:26Z</time>
      </trkpt>
      <trkpt lat="47.30432" lon="4.90478">
        <ele>477</ele>
        <time>2012-12-08T08:03:30Z</time>
      </trkpt>
      <trkpt lat="47.30428" lon="4.90475">
        <ele>478</ele>
        <time>2012-12-08T08:03:34Z</time>
      </trkpt>
      <trkpt lat="47.30424" lon="4.90469">
        <ele>478</ele>
        <time>2012-12-08T08:03:39Z</time>
      </trkpt>
      <trkpt lat="47.30422" lon="4.90461">
        <ele>479</ele>
        <time>2012-12-08T08:03:46Z</time>
      </trkpt>
      <trkpt lat="47.30421" lon="4.90453">
        <ele>480</ele>
        <time>2012-12-08T08:03:49Z</time>
      </trkpt>
      <trkpt lat="47.30418" lon="4.90446">
        <ele>480</ele>
        <time>2012-12-08T08:03:56Z</time>
      </trkpt>
      <trkpt lat="47.30416" lon="4.90439">
        <ele>484</ele>
        <time>2012-12-08T08:04:03Z</time>
      </trkpt>
      <trkpt lat="47.30415" lon="4.90432">
        <ele>485</ele>
        <time>2012-12-08T08:04:10Z</time>
      </trkpt>
      <trkpt lat="47.30415" lon="4.90432">
        <ele>485</ele>
        <time>2012-12-08T08:04:10Z</time>
      </trkpt>
      <trkpt lat="47.30415" lon="4.90432">
        <ele>486</ele>
        <time>2012-12-08T08:04:11Z</time>
      </trkpt>
      <trkpt lat="47.30414" lon="4.90425">
        <ele>486</ele>
        <time>2012-12-08T08:04:18Z</time>
      </trkpt>
      <trkpt lat="47.30414" lon="4.90417">
        <ele>486</ele>
        <time>2012-12-08T08:04:23Z</time>
      </trkpt>
      <trkpt lat="47.30412" lon="4.90411">
        <ele>489</ele>
        <time>2012-12-08T08:04:30Z</time>
      </trkpt>
      <trkpt lat="47.30414" lon="4.90404">
        <ele>491</ele>
        <time>2012-12-08T08:04:36Z</time>
      </trkpt>
      <trkpt lat="47.30412" lon="4.90397">
        <ele>493</ele>
        <time>2012-12-08T08:04:45Z</time>
      </trkpt>
      <trkpt lat="47.30412" lon="4.90397">
        <ele>493</ele>
        <time>2012-12-08T08:04:45Z</time>
      </trkpt>
      <trkpt lat="47.30412" lon="4.90397">
        <ele>494</ele>
        <time>2012-12-08T08:04:46Z</time>
      </trkpt>
      <trkpt lat="47.30412" lon="4.90389">
        <ele>499</ele>
        <time>2012-12-08T08:04:54Z</time>
      </trkpt>
      <trkpt lat="47.30414" lon="4.9038">
        <ele>499</ele>
        <time>2012-12-08T08:04:58Z</time>
      </trkpt>
      <trkpt lat="47.30417" lon="4.90374">
        <ele>499</ele>
        <time>2012-12-08T08:05:04Z</time>
      </trkpt>
      <trkpt lat="47.30418" lon="4.90367">
        <ele>499</ele>
        <time>2012-12-08T08:05:10Z</time>
      </trkpt>
      <trkpt lat="47.30416" lon="4.90361">
        <ele>501</ele>
        <time>2012-12-08T08:05:19Z</time>
      </trkpt>
      <trkpt lat="47.30414" lon="4.90355">
        <ele>503</ele>
        <time>2012-12-08T08:05:26Z</time>
      </trkpt>
      <trkpt lat="47.30417" lon="4.90346">
        <ele>503</ele>
        <time>2012-12-08T08:05:35Z</time>
      </trkpt>
      <trkpt lat="47.30416" lon="4.90338">
        <ele>503</ele>
        <time>2012-12-08T08:05:41Z</time>
      </trkpt>
      <trkpt lat="47.30414" lon="4.90332">
        <ele>504</ele>
        <time>2012-12-08T08:05:47Z</time>
      </trkpt>
      <trkpt lat="47.30413" lon="4.90325">
        <ele>506</ele>
        <time>2012-12-08T08:05:55Z</time>
      </trkpt>
      <trkpt lat="47.30413" lon="4.90317">
        <ele>510</ele>
        <time>2012-12-08T08:06:06Z</time>
      </trkpt>
      <trkpt lat="47.30414" lon="4.9031">
        <ele>513</ele>
        <time>2012-12-08T08:06:44Z</time>
      </trkpt>
      <trkpt lat="47.30415" lon="4.90304">
        <ele>516</ele>
        <time>2012-12-08T08:07:00Z</time>
      </trkpt>
      <trkpt lat="47.30412" lon="4.90297">
        <ele>519</ele>
        <time>2012-12-08T08:07:23Z</time>
      </trkpt>
      <trkpt lat="47.30408" lon="4.90293">
        <ele>517</ele>
        <time>2012-12-08T08:07:34Z</time>
      </trkpt>
      <trkpt lat="47.30405" lon="4.90287">
        <ele>517</ele>
        <time>2012-12-08T08:07:41Z</time>
      </trkpt>
      <trkpt lat="47.30403" lon="4.9028">
        <ele>525</ele>
        <time>2012-12-08T08:08:00Z</time>
      </trkpt>
      <trkpt lat="47.30404" lon="4.90273">
        <ele>528</ele>
        <time>2012-12-08T08:08:21Z</time>
      </trkpt>
      <trkpt lat="47.30404" lon="4.90273">
        <ele>528</ele>
        <time>2012-12-08T08:08:21Z</time>
      </trkpt>
      <trkpt lat="47.30404" lon="4.90273">
        <ele>528</ele>
        <time>2012-12-08T08:08:22Z</time>
      </trkpt>
      <trkpt lat="47.30409" lon="4.90268">
        <ele>528</ele>
        <time>2012-12-08T08:08:36Z</time>
      </trkpt>
      <trkpt lat="47.30412" lon="4.90262">
        <ele>531</ele>
        <time>2012-12-08T08:08:53Z</time>
      </trkpt>
      <trkpt lat="47.30414" lon="4.90255">
        <ele>529</ele>
        <time>2012-12-08T08:09:10Z</time>
      </trkpt>
      <trkpt lat="47.30414" lon="4.90255">
        <ele>529</ele>
        <time>2012-12-08T08:09:10Z</time>
      </trkpt>
      <trkpt lat="47.30414" lon="4.90255">
        <ele>529</ele>
        <time>2012-12-08T08:09:11Z</time>
      </trkpt>
      <trkpt lat="47.30411" lon="4.90249">
        <ele>531</ele>
        <time>2012-12-08T08:09:26Z</time>
      </trkpt>
      <trkpt lat="47.30407" lon="4.90243">
        <ele>532</ele>
        <time>2012-12-08T08:09:38Z</time>
      </trkpt>
      <trkpt lat="47.30404" lon="4.90238">
        <ele>534</ele>
        <time>2012-12-08T08:09:44Z</time>
      </trkpt>
      <trkpt lat="47.3041" lon="4.90235">
        <ele>535</ele>
        <time>2012-12-08T08:09:49Z</time>
      </trkpt>
      <trkpt lat="47.30415" lon="4.90233">
        <ele>539</ele>
        <time>2012-12-08T08:09:55Z</time>
      </trkpt>
      <trkpt lat="47.3042" lon="4.9023">
        <ele>543</ele>
        <time>2012-12-08T08:10:02Z</time>
      </trkpt>
      <trkpt lat="47.30424" lon="4.90227">
        <ele>548</ele>
        <time>2012-12-08T08:10:12Z</time>
      </trkpt>
      <trkpt lat="47.30429" lon="4.90225">
        <ele>550</ele>
        <time>2012-12-08T08:10:16Z</time>
      </trkpt>
      <trkpt lat="47.30433" lon="4.9022">
        <ele>551</ele>
        <time>2012-12-08T08:10:21Z</time>
      </trkpt>
      <trkpt lat="47.30439" lon="4.90218">
        <ele>553</ele>
        <time>2012-12-08T08:10:26Z</time>
      </trkpt>
      <trkpt lat="47.30445" lon="4.90216">
        <ele>552</ele>
        <time>2012-12-08T08:10:31Z</time>
      </trkpt>
      <trkpt lat="47.30449" lon="4.90215">
        <ele>551</ele>
        <time>2012-12-08T08:10:34Z</time>
      </trkpt>
      <trkpt lat="47.30453" lon="4.9021">
        <ele>550</ele>
        <time>2012-12-08T08:10:39Z</time>
      </trkpt>
      <trkpt lat="47.30458" lon="4.90204">
        <ele>550</ele>
        <time>2012-12-08T08:10:44Z</time>
      </trkpt>
      <trkpt lat="47.30462" lon="4.90202">
        <ele>553</ele>
        <time>2012-12-08T08:10:49Z</time>
      </trkpt>
      <trkpt lat="47.30468" lon="4.90198">
        <ele>552</ele>
        <time>2012-12-08T08:10:53Z</time>
      </trkpt>
      <trkpt lat="47.30473" lon="4.90196">
        <ele>554</ele>
        <time>2012-12-08T08:10:57Z</time>
      </trkpt>
      <trkpt lat="47.30477" lon="4.90193">
        <ele>555</ele>
        <time>2012-12-08T08:11:00Z</time>
      </trkpt>
      <trkpt lat="47.30482" lon="4.90189">
        <ele>556</ele>
        <time>2012-12-08T08:11:05Z</time>
      </trkpt>
      <trkpt lat="47.30486" lon="4.90186">
        <ele>556</ele>
        <time>2012-12-08T08:11:08Z</time>
      </trkpt>
      <trkpt lat="47.30491" lon="4.90182">
        <ele>556</ele>
        <time>2012-12-08T08:11:11Z</time>
      </trkpt>
      <trkpt lat="47.30494" lon="4.90178">
        <ele>556</ele>
        <time>2012-12-08T08:11:15Z</time>
      </trkpt>
      <trkpt lat="47.30498" lon="4.90173">
        <ele>555</ele>
        <time>2012-12-08T08:11:19Z</time>
      </trkpt>
      <trkpt lat="47.30503" lon="4.90168">
        <ele>553</ele>
        <time>2012-12-08T08:11:22Z</time>
      </trkpt>
      <trkpt lat="47.30507" lon="4.90162">
        <ele>554</ele>
        <time>2012-12-08T08:11:25Z</time>
      </trkpt>
      <trkpt lat="47.30511" lon="4.90158">
        <ele>554</ele>
        <time>2012-12-08T08:11:29Z</time>
      </trkpt>
      <trkpt lat="47.30514" lon="4.90152">
        <ele>556</ele>
        <time>2012-12-08T08:11:33Z</time>
      </trkpt>
      <trkpt lat="47.30517" lon="4.90146">
        <ele>557</ele>
        <time>2012-12-08T08:11:37Z</time>
      </trkpt>
      <trkpt lat="47.3052" lon="4.90138">
        <ele>556</ele>
        <time>2012-12-08T08:11:40Z</time>
      </trkpt>
      <trkpt lat="47.3052" lon="4.9013">
        <ele>555</ele>
        <time>2012-12-08T08:11:43Z</time>
      </trkpt>
      <trkpt lat="47.30516" lon="4.90127">
        <ele>553</ele>
        <time>2012-12-08T08:11:56Z</time>
      </trkpt>
      <trkpt lat="47.3051" lon="4.9013">
        <ele>551</ele>
        <time>2012-12-08T08:12:14Z</time>
      </trkpt>
      <trkpt lat="47.30504" lon="4.90132">
        <ele>552</ele>
        <time>2012-12-08T08:12:19Z</time>
      </trkpt>
      <trkpt lat="47.30499" lon="4.90133">
        <ele>551</ele>
        <time>2012-12-08T08:12:22Z</time>
      </trkpt>
      <trkpt lat="47.30493" lon="4.90135">
        <ele>553</ele>
        <time>2012-12-08T08:12:25Z</time>
      </trkpt>
      <trkpt lat="47.30488" lon="4.90137">
        <ele>552</ele>
        <time>2012-12-08T08:12:28Z</time>
      </trkpt>
      <trkpt lat="47.30484" lon="4.9014">
        <ele>553</ele>
        <time>2012-12-08T08:12:34Z</time>
      </trkpt>
      <trkpt lat="47.3048" lon="4.90144">
        <ele>555</ele>
        <time>2012-12-08T08:12:37Z</time>
      </trkpt>
      <trkpt lat="47.30475" lon="4.90147">
        <ele>558</ele>
        <time>2012-12-08T08:12:42Z</time>
      </trkpt>
      <trkpt lat="47.3047" lon="4.90147">
        <ele>560</ele>
        <time>2012-12-08T08:12:44Z</time>
      </trkpt>
      <trkpt lat="47.30465" lon="4.90148">
        <ele>561</ele>
        <time>2012-12-08T08:12:47Z</time>
      </trkpt>
      <trkpt lat="47.30461" lon="4.90151">
        <ele>562</ele>
        <time>2012-12-08T08:12:51Z</time>
      </trkpt>
      <trkpt lat="47.30456" lon="4.90151">
        <ele>562</ele>
        <time>2012-12-08T08:12:55Z</time>
      </trkpt>
      <trkpt lat="47.3045" lon="4.90152">
        <ele>563</ele>
        <time>2012-12-08T08:13:04Z</time>
      </trkpt>
      <trkpt lat="47.30446" lon="4.90154">
        <ele>563</ele>
        <time>2012-12-08T08:13:08Z</time>
      </trkpt>
      <trkpt lat="47.3044" lon="4.90155">
        <ele>563</ele>
        <time>2012-12-08T08:13:12Z</time>
      </trkpt>
      <trkpt lat="47.30435" lon="4.90156">
        <ele>564</ele>
        <time>2012-12-08T08:13:15Z</time>
      </trkpt>
      <trkpt lat="47.3043" lon="4.90156">
        <ele>565</ele>
        <time>2012-12-08T08:13:18Z</time>
      </trkpt>
      <trkpt lat="47.30425" lon="4.90155">
        <ele>565</ele>
        <time>2012-12-08T08:13:20Z</time>
      </trkpt>
      <trkpt lat="47.3042" lon="4.90156">
        <ele>565</ele>
        <time>2012-12-08T08:13:22Z</time>
      </trkpt>
      <trkpt lat="47.30416" lon="4.90158">
        <ele>566</ele>
        <time>2012-12-08T08:13:26Z</time>
      </trkpt>
      <trkpt lat="47.30411" lon="4.90156">
        <ele>567</ele>
        <time>2012-12-08T08:13:29Z</time>
      </trkpt>
      <trkpt lat="47.30406" lon="4.90153">
        <ele>567</ele>
        <time>2012-12-08T08:13:34Z</time>
      </trkpt>
      <trkpt lat="47.30401" lon="4.90153">
        <ele>569</ele>
        <time>2012-12-08T08:13:37Z</time>
      </trkpt>
      <trkpt lat="47.30396" lon="4.90153">
        <ele>572</ele>
        <time>2012-12-08T08:13:40Z</time>
      </trkpt>
      <trkpt lat="47.3039" lon="4.90153">
        <ele>573</ele>
        <time>2012-12-08T08:13:45Z</time>
      </trkpt>
      <trkpt lat="47.30384" lon="4.90152">
        <ele>573</ele>
        <time>2012-12-08T08:13:49Z</time>
      </trkpt>
      <trkpt lat="47.30384" lon="4.90152">
        <ele>573</ele>
        <time>2012-12-08T08:13:49Z</time>
      </trkpt>
      <trkpt lat="47.30384" lon="4.90152">
        <ele>572</ele>
        <time>2012-12-08T08:13:50Z</time>
      </trkpt>
      <trkpt lat="47.30376" lon="4.90153">
        <ele>574</ele>
        <time>2012-12-08T08:13:52Z</time>
      </trkpt>
      <trkpt lat="47.30371" lon="4.90153">
        <ele>576</ele>
        <time>2012-12-08T08:13:55Z</time>
      </trkpt>
      <trkpt lat="47.30365" lon="4.90151">
        <ele>578</ele>
        <time>2012-12-08T08:13:59Z</time>
      </trkpt>
      <trkpt lat="47.3036" lon="4.90149">
        <ele>580</ele>
        <time>2012-12-08T08:14:03Z</time>
      </trkpt>
      <trkpt lat="47.30354" lon="4.90147">
        <ele>580</ele>
        <time>2012-12-08T08:14:12Z</time>
      </trkpt>
      <trkpt lat="47.3035" lon="4.90145">
        <ele>582</ele>
        <time>2012-12-08T08:14:17Z</time>
      </trkpt>
      <trkpt lat="47.30344" lon="4.90142">
        <ele>584</ele>
        <time>2012-12-08T08:14:20Z</time>
      </trkpt>
      <trkpt lat="47.30339" lon="4.90139">
        <ele>583</ele>
        <time>2012-12-08T08:14:26Z</time>
      </trkpt>
      <trkpt lat="47.30334" lon="4.90137">
        <ele>582</ele>
        <time>2012-12-08T08:14:29Z</time>
      </trkpt>
      <trkpt lat="47.30329" lon="4.90137">
        <ele>583</ele>
        <time>2012-12-08T08:14:37Z</time>
      </trkpt>
      <trkpt lat="47.30324" lon="4.90133">
        <ele>584</ele>
        <time>2012-12-08T08:14:41Z</time>
      </trkpt>
      <trkpt lat="47.3032" lon="4.9013">
        <ele>583</ele>
        <time>2012-12-08T08:14:44Z</time>
      </trkpt>
      <trkpt lat="47.30314" lon="4.9013">
        <ele>582</ele>
        <time>2012-12-08T08:14:48Z</time>
      </trkpt>
      <trkpt lat="47.30308" lon="4.90129">
        <ele>583</ele>
        <time>2012-12-08T08:14:53Z</time>
      </trkpt>
      <trkpt lat="47.30304" lon="4.90128">
        <ele>586</ele>
        <time>2012-12-08T08:14:58Z</time>
      </trkpt>
      <trkpt lat="47.30298" lon="4.90129">
        <ele>587</ele>
        <time>2012-12-08T08:15:01Z</time>
      </trkpt>
      <trkpt lat="47.30293" lon="4.90125">
        <ele>588</ele>
        <time>2012-12-08T08:15:06Z</time>
      </trkpt>
      <trkpt lat="47.30288" lon="4.90124">
        <ele>589</ele>
        <time>2012-12-08T08:15:10Z</time>
      </trkpt>
      <trkpt lat="47.30283" lon="4.90122">
        <ele>593</ele>
        <time>2012-12-08T08:15:15Z</time>
      </trkpt>
      <trkpt lat="47.30278" lon="4.90118">
        <ele>595</ele>
        <time>2012-12-08T08:15:22Z</time>
      </trkpt>
      <trkpt lat="47.30278" lon="4.90118">
        <ele>595</ele>
        <time>2012-12-08T08:15:22Z</time>
      </trkpt>
      <trkpt lat="47.30278" lon="4.90118">
        <ele>595</ele>
        <time>2012-12-08T08:15:24Z</time>
      </trkpt>
      <trkpt lat="47.30273" lon="4.90117">
        <ele>596</ele>
        <time>2012-12-08T08:15:28Z</time>
      </trkpt>
      <trkpt lat="47.30269" lon="4.90113">
        <ele>597</ele>
        <time>2012-12-08T08:15:32Z</time>
      </trkpt>
      <trkpt lat="47.30263" lon="4.90112">
        <ele>599</ele>
        <time>2012-12-08T08:15:37Z</time>
      </trkpt>
      <trkpt lat="47.30258" lon="4.90109">
        <ele>600</ele>
        <time>2012-12-08T08:15:45Z</time>
      </trkpt>
      <trkpt lat="47.30253" lon="4.90107">
        <ele>599</ele>
        <time>2012-12-08T08:15:52Z</time>
      </trkpt>
      <trkpt lat="47.30247" lon="4.90106">
        <ele>602</ele>
        <time>2012-12-08T08:15:57Z</time>
      </trkpt>
      <trkpt lat="47.30243" lon="4.90101">
        <ele>603</ele>
        <time>2012-12-08T08:16:01Z</time>
      </trkpt>
      <trkpt lat="47.30238" lon="4.90096">
        <ele>602</ele>
        <time>2012-12-08T08:16:07Z</time>
      </trkpt>
      <trkpt lat="47.30233" lon="4.90092">
        <ele>602</ele>
        <time>2012-12-08T08:16:11Z</time>
      </trkpt>
      <trkpt lat="47.30229" lon="4.90089">
        <ele>603</ele>
        <time>2012-12-08T08:16:17Z</time>
      </trkpt>
      <trkpt lat="47.30226" lon="4.90083">
        <ele>603</ele>
        <time>2012-12-08T08:16:20Z</time>
      </trkpt>
      <trkpt lat="47.30221" lon="4.90081">
        <ele>604</ele>
        <time>2012-12-08T08:16:25Z</time>
      </trkpt>
      <trkpt lat="47.30215" lon="4.90078">
        <ele>606</ele>
        <time>2012-12-08T08:16:29Z</time>
      </trkpt>
      <trkpt lat="47.30211" lon="4.90073">
        <ele>609</ele>
        <time>2012-12-08T08:16:34Z</time>
      </trkpt>
      <trkpt lat="47.30207" lon="4.9007">
        <ele>610</ele>
        <time>2012-12-08T08:16:40Z</time>
      </trkpt>
      <trkpt lat="47.30205" lon="4.90062">
        <ele>608</ele>
        <time>2012-12-08T08:16:48Z</time>
      </trkpt>
      <trkpt lat="47.302" lon="4.90057">
        <ele>610</ele>
        <time>2012-12-08T08:16:52Z</time>
      </trkpt>
      <trkpt lat="47.30196" lon="4.90051">
        <ele>611</ele>
        <time>2012-12-08T08:16:56Z</time>
      </trkpt>
      <trkpt lat="47.30194" lon="4.90045">
        <ele>609</ele>
        <time>2012-12-08T08:17:01Z</time>
      </trkpt>
      <trkpt lat="47.30196" lon="4.90039">
        <ele>608</ele>
        <time>2012-12-08T08:17:07Z</time>
      </trkpt>
      <trkpt lat="47.302" lon="4.90036">
        <ele>608</ele>
        <time>2012-12-08T08:17:10Z</time>
      </trkpt>
      <trkpt lat="47.30206" lon="4.90034">
        <ele>607</ele>
        <time>2012-12-08T08:17:16Z</time>
      </trkpt>
      <trkpt lat="47.30211" lon="4.90034">
        <ele>606</ele>
        <time>2012-12-08T08:17:20Z</time>
      </trkpt>
      <trkpt lat="47.30216" lon="4.90032">
        <ele>605</ele>
        <time>2012-12-08T08:17:24Z</time>
      </trkpt>
      <trkpt lat="47.30222" lon="4.9003">
        <ele>602</ele>
        <time>2012-12-08T08:17:28Z</time>
      </trkpt>
      <trkpt lat="47.30227" lon="4.90029">
        <ele>603</ele>
        <time>2012-12-08T08:17:33Z</time>
      </trkpt>
      <trkpt lat="47.30232" lon="4.9003">
        <ele>601</ele>
        <time>2012-12-08T08:17:37Z</time>
      </trkpt>
      <trkpt lat="47.30237" lon="4.90029">
        <ele>601</ele>
        <time>2012-12-08T08:17:41Z</time>
      </trkpt>
      <trkpt lat="47.30243" lon="4.90028">
        <ele>601</ele>
        <time>2012-12-08T08:17:45Z</time>
      </trkpt>
      <trkpt lat="47.30248" lon="4.90028">
        <ele>602</ele>
        <time>2012-12-08T08:17:51Z</time>
      </trkpt>
      <trkpt lat="47.30253" lon="4.90028">
        <ele>601</ele>
        <time>2012-12-08T08:17:56Z</time>
      </trkpt>
      <trkpt lat="47.30258" lon="4.90029">
        <ele>600</ele>
        <time>2012-12-08T08:18:00Z</time>
      </trkpt>
      <trkpt lat="47.30263" lon="4.90028">
        <ele>599</ele>
        <time>2012-12-08T08:18:04Z</time>
      </trkpt>
      <trkpt lat="47.3027" lon="4.90027">
        <ele>600</ele>
        <time>2012-12-08T08:18:10Z</time>
      </trkpt>
      <trkpt lat="47.30275" lon="4.9003">
        <ele>598</ele>
        <time>2012-12-08T08:18:12Z</time>
      </trkpt>
      <trkpt lat="47.3028" lon="4.90033">
        <ele>597</ele>
        <time>2012-12-08T08:18:15Z</time>
      </trkpt>
      <trkpt lat="47.30285" lon="4.90037">
        <ele>596</ele>
        <time>2012-12-08T08:18:19Z</time>
      </trkpt>
      <trkpt lat="47.3029" lon="4.90037">
        <ele>595</ele>
        <time>2012-12-08T08:18:23Z</time>
      </trkpt>
      <trkpt lat="47.30294" lon="4.90039">
        <ele>594</ele>
        <time>2012-12-08T08:18:28Z</time>
      </trkpt>
      <trkpt lat="47.30299" lon="4.90042">
        <ele>594</ele>
        <time>2012-12-08T08:18:32Z</time>
      </trkpt>
      <trkpt lat="47.30304" lon="4.90045">
        <ele>594</ele>
        <time>2012-12-08T08:18:36Z</time>
      </trkpt>
      <trkpt lat="47.30309" lon="4.90045">
        <ele>594</ele>
        <time>2012-12-08T08:18:42Z</time>
      </trkpt>
      <trkpt lat="47.30314" lon="4.90051">
        <ele>594</ele>
        <time>2012-12-08T08:18:45Z</time>
      </trkpt>
      <trkpt lat="47.3032" lon="4.90052">
        <ele>593</ele>
        <time>2012-12-08T08:18:49Z</time>
      </trkpt>
      <trkpt lat="47.30324" lon="4.90054">
        <ele>594</ele>
        <time>2012-12-08T08:18:54Z</time>
      </trkpt>
      <trkpt lat="47.30329" lon="4.90056">
        <ele>593</ele>
        <time>2012-12-08T08:18:59Z</time>
      </trkpt>
      <trkpt lat="47.30334" lon="4.90056">
        <ele>593</ele>
        <time>2012-12-08T08:19:06Z</time>
      </trkpt>
      <trkpt lat="47.30338" lon="4.90058">
        <ele>592</ele>
        <time>2012-12-08T08:19:11Z</time>
      </trkpt>
      <trkpt lat="47.30338" lon="4.90058">
        <ele>592</ele>
        <time>2012-12-08T08:19:11Z</time>
      </trkpt>
      <trkpt lat="47.30338" lon="4.90058">
        <ele>592</ele>
        <time>2012-12-08T08:19:16Z</time>
      </trkpt>
      <trkpt lat="47.30344" lon="4.90064">
        <ele>592</ele>
        <time>2012-12-08T08:19:19Z</time>
      </trkpt>
      <trkpt lat="47.30348" lon="4.90071">
        <ele>593</ele>
        <time>2012-12-08T08:19:21Z</time>
      </trkpt>
      <trkpt lat="47.30353" lon="4.90077">
        <ele>594</ele>
        <time>2012-12-08T08:19:24Z</time>
      </trkpt>
      <trkpt lat="47.30357" lon="4.90079">
        <ele>596</ele>
        <time>2012-12-08T08:19:30Z</time>
      </trkpt>
      <trkpt lat="47.30352" lon="4.90081">
        <ele>599</ele>
        <time>2012-12-08T08:20:28Z</time>
      </trkpt>
      <trkpt lat="47.30356" lon="4.90077">
        <ele>596</ele>
        <time>2012-12-08T08:20:31Z</time>
      </trkpt>
      <trkpt lat="47.3036" lon="4.90075">
        <ele>595</ele>
        <time>2012-12-08T08:20:34Z</time>
      </trkpt>
      <trkpt lat="47.30365" lon="4.90076">
        <ele>595</ele>
        <time>2012-12-08T08:20:37Z</time>
      </trkpt>
      <trkpt lat="47.30368" lon="4.9008">
        <ele>596</ele>
        <time>2012-12-08T08:20:45Z</time>
      </trkpt>
      <trkpt lat="47.30368" lon="4.9008">
        <ele>596</ele>
        <time>2012-12-08T08:20:45Z</time>
      </trkpt>
      <trkpt lat="47.30368" lon="4.9008">
        <ele>596</ele>
        <time>2012-12-08T08:20:46Z</time>
      </trkpt>
      <trkpt lat="47.30369" lon="4.90073">
        <ele>595</ele>
        <time>2012-12-08T08:20:57Z</time>
      </trkpt>
      <trkpt lat="47.30373" lon="4.90068">
        <ele>595</ele>
        <time>2012-12-08T08:21:02Z</time>
      </trkpt>
      <trkpt lat="47.30376" lon="4.90064">
        <ele>597</ele>
        <time>2012-12-08T08:21:11Z</time>
      </trkpt>
      <trkpt lat="47.30376" lon="4.90064">
        <ele>597</ele>
        <time>2012-12-08T08:21:11Z</time>
      </trkpt>
      <trkpt lat="47.30376" lon="4.90064">
        <ele>597</ele>
        <time>2012-12-08T08:21:13Z</time>
      </trkpt>
      <trkpt lat="47.30375" lon="4.9007">
        <ele>595</ele>
        <time>2012-12-08T08:21:20Z</time>
      </trkpt>
      <trkpt lat="47.30372" lon="4.90077">
        <ele>594</ele>
        <time>2012-12-08T08:21:27Z</time>
      </trkpt>
      <trkpt lat="47.30366" lon="4.90077">
        <ele>594</ele>
        <time>2012-12-08T08:21:30Z</time>
      </trkpt>
      <trkpt lat="47.3036" lon="4.90077">
        <ele>594</ele>
        <time>2012-12-08T08:21:33Z</time>
      </trkpt>
      <trkpt lat="47.30353" lon="4.90074">
        <ele>594</ele>
        <time>2012-12-08T08:21:38Z</time>
      </trkpt>
      <trkpt lat="47.30346" lon="4.90073">
        <ele>596</ele>
        <time>2012-12-08T08:21:41Z</time>
      </trkpt>
      <trkpt lat="47.30342" lon="4.90071">
        <ele>599</ele>
        <time>2012-12-08T08:21:47Z</time>
      </trkpt>
      <trkpt lat="47.30336" lon="4.9007">
        <ele>601</ele>
        <time>2012-12-08T08:21:53Z</time>
      </trkpt>
      <trkpt lat="47.30331" lon="4.90068">
        <ele>603</ele>
        <time>2012-12-08T08:21:56Z</time>
      </trkpt>
      <trkpt lat="47.30327" lon="4.90066">
        <ele>603</ele>
        <time>2012-12-08T08:22:00Z</time>
      </trkpt>
      <trkpt lat="47.30321" lon="4.90066">
        <ele>603</ele>
        <time>2012-12-08T08:22:03Z</time>
      </trkpt>
      <trkpt lat="47.30315" lon="4.90064">
        <ele>603</ele>
        <time>2012-12-08T08:22:08Z</time>
      </trkpt>
      <trkpt lat="47.3031" lon="4.9006">
        <ele>602</ele>
        <time>2012-12-08T08:22:10Z</time>
      </trkpt>
      <trkpt lat="47.30306" lon="4.90058">
        <ele>602</ele>
        <time>2012-12-08T08:22:13Z</time>
      </trkpt>
      <trkpt lat="47.303" lon="4.90055">
        <ele>605</ele>
        <time>2012-12-08T08:22:17Z</time>
      </trkpt>
      <trkpt lat="47.30296" lon="4.90051">
        <ele>605</ele>
        <time>2012-12-08T08:22:20Z</time>
      </trkpt>
      <trkpt lat="47.30289" lon="4.90049">
        <ele>605</ele>
        <time>2012-12-08T08:22:24Z</time>
      </trkpt>
      <trkpt lat="47.30284" lon="4.90048">
        <ele>606</ele>
        <time>2012-12-08T08:22:27Z</time>
      </trkpt>
      <trkpt lat="47.30279" lon="4.90044">
        <ele>607</ele>
        <time>2012-12-08T08:22:33Z</time>
      </trkpt>
      <trkpt lat="47.30275" lon="4.90043">
        <ele>607</ele>
        <time>2012-12-08T08:22:37Z</time>
      </trkpt>
      <trkpt lat="47.30268" lon="4.90043">
        <ele>607</ele>
        <time>2012-12-08T08:22:42Z</time>
      </trkpt>
      <trkpt lat="47.30264" lon="4.9004">
        <ele>607</ele>
        <time>2012-12-08T08:22:44Z</time>
      </trkpt>
      <trkpt lat="47.30256" lon="4.90039">
        <ele>608</ele>
        <time>2012-12-08T08:22:49Z</time>
      </trkpt>
      <trkpt lat="47.30251" lon="4.90039">
        <ele>608</ele>
        <time>2012-12-08T08:22:53Z</time>
      </trkpt>
      <trkpt lat="47.30246" lon="4.90038">
        <ele>610</ele>
        <time>2012-12-08T08:22:57Z</time>
      </trkpt>
      <trkpt lat="47.3024" lon="4.90037">
        <ele>612</ele>
        <time>2012-12-08T08:23:02Z</time>
      </trkpt>
      <trkpt lat="47.30235" lon="4.90037">
        <ele>612</ele>
        <time>2012-12-08T08:23:05Z</time>
      </trkpt>
      <trkpt lat="47.3023" lon="4.90037">
        <ele>612</ele>
        <time>2012-12-08T08:23:07Z</time>
      </trkpt>
      <trkpt lat="47.30225" lon="4.90039">
        <ele>612</ele>
        <time>2012-12-08T08:23:09Z</time>
      </trkpt>
      <trkpt lat="47.3022" lon="4.90039">
        <ele>612</ele>
        <time>2012-12-08T08:23:12Z</time>
      </trkpt>
      <trkpt lat="47.30214" lon="4.90039">
        <ele>612</ele>
        <time>2012-12-08T08:23:16Z</time>
      </trkpt>
      <trkpt lat="47.30209" lon="4.90038">
        <ele>612</ele>
        <time>2012-12-08T08:23:19Z</time>
      </trkpt>
      <trkpt lat="47.30204" lon="4.90042">
        <ele>611</ele>
        <time>2012-12-08T08:23:22Z</time>
      </trkpt>
      <trkpt lat="47.30199" lon="4.9004">
        <ele>611</ele>
        <time>2012-12-08T08:23:26Z</time>
      </trkpt>
      <trkpt lat="47.30194" lon="4.90035">
        <ele>607</ele>
        <time>2012-12-08T08:23:31Z</time>
      </trkpt>
      <trkpt lat="47.30188" lon="4.90038">
        <ele>608</ele>
        <time>2012-12-08T08:23:36Z</time>
      </trkpt>
      <trkpt lat="47.30183" lon="4.90041">
        <ele>608</ele>
        <time>2012-12-08T08:23:41Z</time>
      </trkpt>
      <trkpt lat="47.30178" lon="4.90041">
        <ele>610</ele>
        <time>2012-12-08T08:23:45Z</time>
      </trkpt>
      <trkpt lat="47.30173" lon="4.9004">
        <ele>608</ele>
        <time>2012-12-08T08:23:49Z</time>
      </trkpt>
      <trkpt lat="47.30163" lon="4.9004">
        <ele>606</ele>
        <time>2012-12-08T08:23:54Z</time>
      </trkpt>
      <trkpt lat="47.30158" lon="4.90039">
        <ele>605</ele>
        <time>2012-12-08T08:23:56Z</time>
      </trkpt>
      <trkpt lat="47.30152" lon="4.90035">
        <ele>603</ele>
        <time>2012-12-08T08:23:59Z</time>
      </trkpt>
      <trkpt lat="47.30146" lon="4.90034">
        <ele>602</ele>
        <time>2012-12-08T08:24:02Z</time>
      </trkpt>
      <trkpt lat="47.3014" lon="4.90032">
        <ele>604</ele>
        <time>2012-12-08T08:24:22Z</time>
      </trkpt>
      <trkpt lat="47.30136" lon="4.90029">
        <ele>603</ele>
        <time>2012-12-08T08:24:25Z</time>
      </trkpt>
      <trkpt lat="47.30131" lon="4.9003">
        <ele>602</ele>
        <time>2012-12-08T08:24:28Z</time>
      </trkpt>
      <trkpt lat="47.30126" lon="4.90029">
        <ele>602</ele>
        <time>2012-12-08T08:24:31Z</time>
      </trkpt>
      <trkpt lat="47.30121" lon="4.90026">
        <ele>602</ele>
        <time>2012-12-08T08:24:33Z</time>
      </trkpt>
      <trkpt lat="47.30116" lon="4.90026">
        <ele>602</ele>
        <time>2012-12-08T08:24:36Z</time>
      </trkpt>
      <trkpt lat="47.3011" lon="4.90026">
        <ele>602</ele>
        <time>2012-12-08T08:24:40Z</time>
      </trkpt>
      <trkpt lat="47.30106" lon="4.90026">
        <ele>602</ele>
        <time>2012-12-08T08:24:42Z</time>
      </trkpt>
      <trkpt lat="47.30101" lon="4.90028">
        <ele>602</ele>
        <time>2012-12-08T08:24:46Z</time>
      </trkpt>
      <trkpt lat="47.30096" lon="4.90029">
        <ele>602</ele>
        <time>2012-12-08T08:24:50Z</time>
      </trkpt>
      <trkpt lat="47.30091" lon="4.90029">
        <ele>603</ele>
        <time>2012-12-08T08:24:52Z</time>
      </trkpt>
      <trkpt lat="47.30087" lon="4.90026">
        <ele>603</ele>
        <time>2012-12-08T08:24:56Z</time>
      </trkpt>
      <trkpt lat="47.30081" lon="4.90027">
        <ele>603</ele>
        <time>2012-12-08T08:24:58Z</time>
      </trkpt>
      <trkpt lat="47.30077" lon="4.90028">
        <ele>610</ele>
        <time>2012-12-08T08:25:05Z</time>
      </trkpt>
      <trkpt lat="47.30072" lon="4.90028">
        <ele>610</ele>
        <time>2012-12-08T08:25:09Z</time>
      </trkpt>
      <trkpt lat="47.30067" lon="4.90029">
        <ele>611</ele>
        <time>2012-12-08T08:25:13Z</time>
      </trkpt>
      <trkpt lat="47.30062" lon="4.90025">
        <ele>610</ele>
        <time>2012-12-08T08:25:16Z</time>
      </trkpt>
      <trkpt lat="47.30056" lon="4.90023">
        <ele>611</ele>
        <time>2012-12-08T08:25:19Z</time>
      </trkpt>
      <trkpt lat="47.30051" lon="4.90023">
        <ele>612</ele>
        <time>2012-12-08T08:25:22Z</time>
      </trkpt>
      <trkpt lat="47.30047" lon="4.90021">
        <ele>612</ele>
        <time>2012-12-08T08:25:25Z</time>
      </trkpt>
      <trkpt lat="47.30042" lon="4.9002">
        <ele>612</ele>
        <time>2012-12-08T08:25:28Z</time>
      </trkpt>
      <trkpt lat="47.30036" lon="4.90019">
        <ele>611</ele>
        <time>2012-12-08T08:25:33Z</time>
      </trkpt>
      <trkpt lat="47.3003" lon="4.90019">
        <ele>611</ele>
        <time>2012-12-08T08:25:37Z</time>
      </trkpt>
      <trkpt lat="47.30026" lon="4.90019">
        <ele>611</ele>
        <time>2012-12-08T08:25:41Z</time>
      </trkpt>
      <trkpt lat="47.3002" lon="4.90019">
        <ele>611</ele>
        <time>2012-12-08T08:25:44Z</time>
      </trkpt>
      <trkpt lat="47.30014" lon="4.90018">
        <ele>613</ele>
        <time>2012-12-08T08:25:47Z</time>
      </trkpt>
      <trkpt lat="47.30007" lon="4.90018">
        <ele>614</ele>
        <time>2012-12-08T08:25:50Z</time>
      </trkpt>
      <trkpt lat="47.30003" lon="4.90018">
        <ele>614</ele>
        <time>2012-12-08T08:25:53Z</time>
      </trkpt>
      <trkpt lat="47.29996" lon="4.90018">
        <ele>614</ele>
        <time>2012-12-08T08:25:57Z</time>
      </trkpt>
      <trkpt lat="47.29991" lon="4.90018">
        <ele>614</ele>
        <time>2012-12-08T08:26:00Z</time>
      </trkpt>
      <trkpt lat="47.29985" lon="4.90018">
        <ele>613</ele>
        <time>2012-12-08T08:26:04Z</time>
      </trkpt>
      <trkpt lat="47.2998" lon="4.90017">
        <ele>614</ele>
        <time>2012-12-08T08:26:07Z</time>
      </trkpt>
      <trkpt lat="47.29974" lon="4.90019">
        <ele>612</ele>
        <time>2012-12-08T08:26:10Z</time>
      </trkpt>
      <trkpt lat="47.29968" lon="4.9002">
        <ele>612</ele>
        <time>2012-12-08T08:26:13Z</time>
      </trkpt>
      <trkpt lat="47.29963" lon="4.90019">
        <ele>612</ele>
        <time>2012-12-08T08:26:17Z</time>
      </trkpt>
      <trkpt lat="47.29957" lon="4.90019">
        <ele>611</ele>
        <time>2012-12-08T08:26:21Z</time>
      </trkpt>
      <trkpt lat="47.29951" lon="4.90019">
        <ele>612</ele>
        <time>2012-12-08T08:26:25Z</time>
      </trkpt>
      <trkpt lat="47.29944" lon="4.90018">
        <ele>612</ele>
        <time>2012-12-08T08:26:29Z</time>
      </trkpt>
      <trkpt lat="47.29938" lon="4.9002">
        <ele>614</ele>
        <time>2012-12-08T08:26:32Z</time>
      </trkpt>
      <trkpt lat="47.29933" lon="4.90022">
        <ele>615</ele>
        <time>2012-12-08T08:26:34Z</time>
      </trkpt>
      <trkpt lat="47.29929" lon="4.90024">
        <ele>614</ele>
        <time>2012-12-08T08:26:37Z</time>
      </trkpt>
      <trkpt lat="47.29922" lon="4.90025">
        <ele>615</ele>
        <time>2012-12-08T08:26:41Z</time>
      </trkpt>
      <trkpt lat="47.29916" lon="4.90025">
        <ele>615</ele>
        <time>2012-12-08T08:26:44Z</time>
      </trkpt>
      <trkpt lat="47.29911" lon="4.90026">
        <ele>614</ele>
        <time>2012-12-08T08:26:47Z</time>
      </trkpt>
      <trkpt lat="47.29907" lon="4.90025">
        <ele>615</ele>
        <time>2012-12-08T08:26:51Z</time>
      </trkpt>
      <trkpt lat="47.29902" lon="4.90026">
        <ele>616</ele>
        <time>2012-12-08T08:26:54Z</time>
      </trkpt>
      <trkpt lat="47.29897" lon="4.90028">
        <ele>616</ele>
        <time>2012-12-08T08:26:57Z</time>
      </trkpt>
      <trkpt lat="47.29891" lon="4.90028">
        <ele>615</ele>
        <time>2012-12-08T08:27:00Z</time>
      </trkpt>
      <trkpt lat="47.29885" lon="4.90029">
        <ele>616</ele>
        <time>2012-12-08T08:27:04Z</time>
      </trkpt>
      <trkpt lat="47.29879" lon="4.90029">
        <ele>615</ele>
        <time>2012-12-08T08:27:07Z</time>
      </trkpt>
      <trkpt lat="47.29874" lon="4.90027">
        <ele>615</ele>
        <time>2012-12-08T08:27:09Z</time>
      </trkpt>
      <trkpt lat="47.2987" lon="4.90027">
        <ele>614</ele>
        <time>2012-12-08T08:27:12Z</time>
      </trkpt>
      <trkpt lat="47.29863" lon="4.90028">
        <ele>617</ele>
        <time>2012-12-08T08:27:16Z</time>
      </trkpt>
      <trkpt lat="47.29858" lon="4.90029">
        <ele>616</ele>
        <time>2012-12-08T08:27:19Z</time>
      </trkpt>
      <trkpt lat="47.29852" lon="4.9003">
        <ele>617</ele>
        <time>2012-12-08T08:27:25Z</time>
      </trkpt>
      <trkpt lat="47.29846" lon="4.90032">
        <ele>615</ele>
        <time>2012-12-08T08:27:30Z</time>
      </trkpt>
      <trkpt lat="47.29842" lon="4.90032">
        <ele>616</ele>
        <time>2012-12-08T08:27:33Z</time>
      </trkpt>
      <trkpt lat="47.29837" lon="4.90035">
        <ele>617</ele>
        <time>2012-12-08T08:27:36Z</time>
      </trkpt>
      <trkpt lat="47.29832" lon="4.90035">
        <ele>617</ele>
        <time>2012-12-08T08:27:39Z</time>
      </trkpt>
      <trkpt lat="47.29826" lon="4.90036">
        <ele>619</ele>
        <time>2012-12-08T08:27:43Z</time>
      </trkpt>
      <trkpt lat="47.29821" lon="4.90038">
        <ele>619</ele>
        <time>2012-12-08T08:27:45Z</time>
      </trkpt>
      <trkpt lat="47.29814" lon="4.90039">
        <ele>619</ele>
        <time>2012-12-08T08:27:49Z</time>
      </trkpt>
      <trkpt lat="47.29808" lon="4.9004">
        <ele>619</ele>
        <time>2012-12-08T08:27:53Z</time>
      </trkpt>
      <trkpt lat="47.29802" lon="4.90041">
        <ele>620</ele>
        <time>2012-12-08T08:27:56Z</time>
      </trkpt>
      <trkpt lat="47.29797" lon="4.90043">
        <ele>620</ele>
        <time>2012-12-08T08:27:59Z</time>
      </trkpt>
      <trkpt lat="47.29793" lon="4.90046">
        <ele>619</ele>
        <time>2012-12-08T08:28:03Z</time>
      </trkpt>
      <trkpt lat="47.29788" lon="4.90047">
        <ele>618</ele>
        <time>2012-12-08T08:28:07Z</time>
      </trkpt>
      <trkpt lat="47.29782" lon="4.9005">
        <ele>620</ele>
        <time>2012-12-08T08:28:12Z</time>
      </trkpt>
      <trkpt lat="47.29777" lon="4.90052">
        <ele>622</ele>
        <time>2012-12-08T08:28:15Z</time>
      </trkpt>
      <trkpt lat="47.29772" lon="4.90054">
        <ele>623</ele>
        <time>2012-12-08T08:28:18Z</time>
      </trkpt>
      <trkpt lat="47.29767" lon="4.90057">
        <ele>625</ele>
        <time>2012-12-08T08:28:22Z</time>
      </trkpt>
      <trkpt lat="47.29762" lon="4.90059">
        <ele>626</ele>
        <time>2012-12-08T08:28:25Z</time>
      </trkpt>
      <trkpt lat="47.29757" lon="4.90063">
        <ele>626</ele>
        <time>2012-12-08T08:28:29Z</time>
      </trkpt>
      <trkpt lat="47.29753" lon="4.90066">
        <ele>626</ele>
        <time>2012-12-08T08:28:33Z</time>
      </trkpt>
      <trkpt lat="47.29746" lon="4.90069">
        <ele>624</ele>
        <time>2012-12-08T08:28:36Z</time>
      </trkpt>
      <trkpt lat="47.29741" lon="4.90073">
        <ele>623</ele>
        <time>2012-12-08T08:28:40Z</time>
      </trkpt>
      <trkpt lat="47.29735" lon="4.90077">
        <ele>622</ele>
        <time>2012-12-08T08:28:44Z</time>
      </trkpt>
      <trkpt lat="47.2973" lon="4.90081">
        <ele>623</ele>
        <time>2012-12-08T08:28:48Z</time>
      </trkpt>
      <trkpt lat="47.29724" lon="4.90085">
        <ele>622</ele>
        <time>2012-12-08T08:28:52Z</time>
      </trkpt>
      <trkpt lat="47.29719" lon="4.90087">
        <ele>622</ele>
        <time>2012-12-08T08:28:55Z</time>
      </trkpt>
      <trkpt lat="47.29716" lon="4.90092">
        <ele>624</ele>
        <time>2012-12-08T08:28:58Z</time>
      </trkpt>
      <trkpt lat="47.29711" lon="4.90096">
        <ele>623</ele>
        <time>2012-12-08T08:29:02Z</time>
      </trkpt>
      <trkpt lat="47.29708" lon="4.90101">
        <ele>622</ele>
        <time>2012-12-08T08:29:05Z</time>
      </trkpt>
      <trkpt lat="47.29703" lon="4.90106">
        <ele>621</ele>
        <time>2012-12-08T08:29:08Z</time>
      </trkpt>
      <trkpt lat="47.29698" lon="4.9011">
        <ele>619</ele>
        <time>2012-12-08T08:29:11Z</time>
      </trkpt>
      <trkpt lat="47.29693" lon="4.90115">
        <ele>620</ele>
        <time>2012-12-08T08:29:15Z</time>
      </trkpt>
      <trkpt lat="47.29688" lon="4.90119">
        <ele>620</ele>
        <time>2012-12-08T08:29:19Z</time>
      </trkpt>
      <trkpt lat="47.29683" lon="4.90122">
        <ele>620</ele>
        <time>2012-12-08T08:29:23Z</time>
      </trkpt>
      <trkpt lat="47.29677" lon="4.90124">
        <ele>620</ele>
        <time>2012-12-08T08:29:26Z</time>
      </trkpt>
      <trkpt lat="47.29673" lon="4.90129">
        <ele>619</ele>
        <time>2012-12-08T08:29:29Z</time>
      </trkpt>
      <trkpt lat="47.29667" lon="4.9013">
        <ele>619</ele>
        <time>2012-12-08T08:29:32Z</time>
      </trkpt>
      <trkpt lat="47.29662" lon="4.90131">
        <ele>619</ele>
        <time>2012-12-08T08:29:35Z</time>
      </trkpt>
      <trkpt lat="47.29656" lon="4.90133">
        <ele>619</ele>
        <time>2012-12-08T08:29:38Z</time>
      </trkpt>
      <trkpt lat="47.29648" lon="4.90136">
        <ele>620</ele>
        <time>2012-12-08T08:29:42Z</time>
      </trkpt>
      <trkpt lat="47.29644" lon="4.90139">
        <ele>622</ele>
        <time>2012-12-08T08:29:48Z</time>
      </trkpt>
      <trkpt lat="47.29639" lon="4.9014">
        <ele>620</ele>
        <time>2012-12-08T08:29:50Z</time>
      </trkpt>
      <trkpt lat="47.29635" lon="4.90145">
        <ele>623</ele>
        <time>2012-12-08T08:30:02Z</time>
      </trkpt>
      <trkpt lat="47.2963" lon="4.90147">
        <ele>623</ele>
        <time>2012-12-08T08:30:07Z</time>
      </trkpt>
      <trkpt lat="47.29624" lon="4.90148">
        <ele>621</ele>
        <time>2012-12-08T08:30:11Z</time>
      </trkpt>
      <trkpt lat="47.2962" lon="4.9015">
        <ele>623</ele>
        <time>2012-12-08T08:30:14Z</time>
      </trkpt>
      <trkpt lat="47.29615" lon="4.90153">
        <ele>624</ele>
        <time>2012-12-08T08:30:17Z</time>
      </trkpt>
      <trkpt lat="47.29608" lon="4.90155">
        <ele>624</ele>
        <time>2012-12-08T08:30:22Z</time>
      </trkpt>
      <trkpt lat="47.29603" lon="4.90158">
        <ele>624</ele>
        <time>2012-12-08T08:30:25Z</time>
      </trkpt>
      <trkpt lat="47.29598" lon="4.9016">
        <ele>624</ele>
        <time>2012-12-08T08:30:28Z</time>
      </trkpt>
      <trkpt lat="47.29594" lon="4.90164">
        <ele>623</ele>
        <time>2012-12-08T08:30:31Z</time>
      </trkpt>
      <trkpt lat="47.2959" lon="4.90167">
        <ele>625</ele>
        <time>2012-12-08T08:30:34Z</time>
      </trkpt>
      <trkpt lat="47.29586" lon="4.90171">
        <ele>627</ele>
        <time>2012-12-08T08:30:37Z</time>
      </trkpt>
      <trkpt lat="47.29582" lon="4.90176">
        <ele>627</ele>
        <time>2012-12-08T08:30:40Z</time>
      </trkpt>
      <trkpt lat="47.29579" lon="4.90182">
        <ele>625</ele>
        <time>2012-12-08T08:30:43Z</time>
      </trkpt>
      <trkpt lat="47.29576" lon="4.90187">
        <ele>624</ele>
        <time>2012-12-08T08:30:46Z</time>
      </trkpt>
      <trkpt lat="47.29571" lon="4.90193">
        <ele>623</ele>
        <time>2012-12-08T08:30:50Z</time>
      </trkpt>
      <trkpt lat="47.29566" lon="4.90196">
        <ele>624</ele>
        <time>2012-12-08T08:30:53Z</time>
      </trkpt>
      <trkpt lat="47.29561" lon="4.90198">
        <ele>625</ele>
        <time>2012-12-08T08:30:56Z</time>
      </trkpt>
      <trkpt lat="47.29556" lon="4.90202">
        <ele>624</ele>
        <time>2012-12-08T08:30:59Z</time>
      </trkpt>
      <trkpt lat="47.29551" lon="4.90205">
        <ele>625</ele>
        <time>2012-12-08T08:31:03Z</time>
      </trkpt>
      <trkpt lat="47.29546" lon="4.90208">
        <ele>625</ele>
        <time>2012-12-08T08:31:07Z</time>
      </trkpt>
      <trkpt lat="47.29542" lon="4.90212">
        <ele>625</ele>
        <time>2012-12-08T08:31:10Z</time>
      </trkpt>
      <trkpt lat="47.29537" lon="4.90212">
        <ele>625</ele>
        <time>2012-12-08T08:31:13Z</time>
      </trkpt>
      <trkpt lat="47.29531" lon="4.90214">
        <ele>624</ele>
        <time>2012-12-08T08:31:16Z</time>
      </trkpt>
      <trkpt lat="47.29526" lon="4.90218">
        <ele>623</ele>
        <time>2012-12-08T08:31:19Z</time>
      </trkpt>
      <trkpt lat="47.29522" lon="4.90221">
        <ele>624</ele>
        <time>2012-12-08T08:31:22Z</time>
      </trkpt>
      <trkpt lat="47.29518" lon="4.90224">
        <ele>624</ele>
        <time>2012-12-08T08:31:25Z</time>
      </trkpt>
      <trkpt lat="47.29513" lon="4.90226">
        <ele>623</ele>
        <time>2012-12-08T08:31:27Z</time>
      </trkpt>
      <trkpt lat="47.29508" lon="4.90229">
        <ele>624</ele>
        <time>2012-12-08T08:31:30Z</time>
      </trkpt>
      <trkpt lat="47.29508" lon="4.90229">
        <ele>624</ele>
        <time>2012-12-08T08:31:30Z</time>
      </trkpt>
      <trkpt lat="47.29508" lon="4.90229">
        <ele>624</ele>
        <time>2012-12-08T08:31:31Z</time>
      </trkpt>
      <trkpt lat="47.29502" lon="4.9023">
        <ele>625</ele>
        <time>2012-12-08T08:31:35Z</time>
      </trkpt>
      <trkpt lat="47.29498" lon="4.90236">
        <ele>626</ele>
        <time>2012-12-08T08:31:38Z</time>
      </trkpt>
      <trkpt lat="47.29492" lon="4.90237">
        <ele>626</ele>
        <time>2012-12-08T08:31:41Z</time>
      </trkpt>
      <trkpt lat="47.29487" lon="4.9024">
        <ele>626</ele>
        <time>2012-12-08T08:31:44Z</time>
      </trkpt>
      <trkpt lat="47.29483" lon="4.90243">
        <ele>625</ele>
        <time>2012-12-08T08:31:46Z</time>
      </trkpt>
      <trkpt lat="47.29478" lon="4.90247">
        <ele>626</ele>
        <time>2012-12-08T08:31:50Z</time>
      </trkpt>
      <trkpt lat="47.29474" lon="4.90251">
        <ele>626</ele>
        <time>2012-12-08T08:31:54Z</time>
      </trkpt>
      <trkpt lat="47.29468" lon="4.90254">
        <ele>626</ele>
        <time>2012-12-08T08:31:57Z</time>
      </trkpt>
      <trkpt lat="47.29463" lon="4.90257">
        <ele>626</ele>
        <time>2012-12-08T08:32:00Z</time>
      </trkpt>
      <trkpt lat="47.29457" lon="4.90261">
        <ele>627</ele>
        <time>2012-12-08T08:32:04Z</time>
      </trkpt>
      <trkpt lat="47.29452" lon="4.90263">
        <ele>626</ele>
        <time>2012-12-08T08:32:07Z</time>
      </trkpt>
      <trkpt lat="47.29447" lon="4.90264">
        <ele>627</ele>
        <time>2012-12-08T08:32:10Z</time>
      </trkpt>
      <trkpt lat="47.29442" lon="4.90266">
        <ele>628</ele>
        <time>2012-12-08T08:32:14Z</time>
      </trkpt>
      <trkpt lat="47.29437" lon="4.90266">
        <ele>629</ele>
        <time>2012-12-08T08:32:17Z</time>
      </trkpt>
      <trkpt lat="47.29431" lon="4.90266">
        <ele>629</ele>
        <time>2012-12-08T08:32:20Z</time>
      </trkpt>
      <trkpt lat="47.29424" lon="4.90268">
        <ele>629</ele>
        <time>2012-12-08T08:32:23Z</time>
      </trkpt>
      <trkpt lat="47.29419" lon="4.90269">
        <ele>627</ele>
        <time>2012-12-08T08:32:26Z</time>
      </trkpt>
      <trkpt lat="47.29414" lon="4.90271">
        <ele>626</ele>
        <time>2012-12-08T08:32:29Z</time>
      </trkpt>
      <trkpt lat="47.2941" lon="4.90275">
        <ele>625</ele>
        <time>2012-12-08T08:32:32Z</time>
      </trkpt>
      <trkpt lat="47.29406" lon="4.90278">
        <ele>625</ele>
        <time>2012-12-08T08:32:35Z</time>
      </trkpt>
      <trkpt lat="47.294" lon="4.90281">
        <ele>626</ele>
        <time>2012-12-08T08:32:39Z</time>
      </trkpt>
      <trkpt lat="47.29396" lon="4.90284">
        <ele>626</ele>
        <time>2012-12-08T08:32:41Z</time>
      </trkpt>
      <trkpt lat="47.2939" lon="4.90286">
        <ele>627</ele>
        <time>2012-12-08T08:32:45Z</time>
      </trkpt>
      <trkpt lat="47.29385" lon="4.90289">
        <ele>628</ele>
        <time>2012-12-08T08:32:48Z</time>
      </trkpt>
      <trkpt lat="47.29379" lon="4.90292">
        <ele>627</ele>
        <time>2012-12-08T08:32:52Z</time>
      </trkpt>
      <trkpt lat="47.29374" lon="4.90293">
        <ele>627</ele>
        <time>2012-12-08T08:32:55Z</time>
      </trkpt>
      <trkpt lat="47.29369" lon="4.90297">
        <ele>628</ele>
        <time>2012-12-08T08:32:59Z</time>
      </trkpt>
      <trkpt lat="47.29363" lon="4.90298">
        <ele>629</ele>
        <time>2012-12-08T08:33:03Z</time>
      </trkpt>
      <trkpt lat="47.29357" lon="4.90297">
        <ele>631</ele>
        <time>2012-12-08T08:33:07Z</time>
      </trkpt>
      <trkpt lat="47.29349" lon="4.90296">
        <ele>631</ele>
        <time>2012-12-08T08:33:12Z</time>
      </trkpt>
      <trkpt lat="47.29343" lon="4.90295">
        <ele>632</ele>
        <time>2012-12-08T08:33:16Z</time>
      </trkpt>
      <trkpt lat="47.29338" lon="4.90294">
        <ele>633</ele>
        <time>2012-12-08T08:33:19Z</time>
      </trkpt>
      <trkpt lat="47.29333" lon="4.90292">
        <ele>633</ele>
        <time>2012-12-08T08:33:22Z</time>
      </trkpt>
      <trkpt lat="47.29328" lon="4.90293">
        <ele>633</ele>
        <time>2012-12-08T08:33:25Z</time>
      </trkpt>
      <trkpt lat="47.29322" lon="4.90291">
        <ele>633</ele>
        <time>2012-12-08T08:33:28Z</time>
      </trkpt>
      <trkpt lat="47.29316" lon="4.90292">
        <ele>631</ele>
        <time>2012-12-08T08:33:31Z</time>
      </trkpt>
      <trkpt lat="47.29311" lon="4.90292">
        <ele>631</ele>
        <time>2012-12-08T08:33:34Z</time>
      </trkpt>
      <trkpt lat="47.29304" lon="4.90292">
        <ele>629</ele>
        <time>2012-12-08T08:33:37Z</time>
      </trkpt>
      <trkpt lat="47.29299" lon="4.90293">
        <ele>629</ele>
        <time>2012-12-08T08:33:41Z</time>
      </trkpt>
      <trkpt lat="47.29293" lon="4.90296">
        <ele>629</ele>
        <time>2012-12-08T08:33:44Z</time>
      </trkpt>
      <trkpt lat="47.29289" lon="4.90301">
        <ele>629</ele>
        <time>2012-12-08T08:33:48Z</time>
      </trkpt>
      <trkpt lat="47.29284" lon="4.90304">
        <ele>629</ele>
        <time>2012-12-08T08:33:51Z</time>
      </trkpt>
      <trkpt lat="47.2928" lon="4.90306">
        <ele>628</ele>
        <time>2012-12-08T08:33:54Z</time>
      </trkpt>
      <trkpt lat="47.29275" lon="4.9031">
        <ele>628</ele>
        <time>2012-12-08T08:33:57Z</time>
      </trkpt>
      <trkpt lat="47.29271" lon="4.90314">
        <ele>628</ele>
        <time>2012-12-08T08:34:00Z</time>
      </trkpt>
      <trkpt lat="47.29264" lon="4.90318">
        <ele>627</ele>
        <time>2012-12-08T08:34:04Z</time>
      </trkpt>
      <trkpt lat="47.29259" lon="4.90324">
        <ele>627</ele>
        <time>2012-12-08T08:34:08Z</time>
      </trkpt>
      <trkpt lat="47.29255" lon="4.90329">
        <ele>625</ele>
        <time>2012-12-08T08:34:11Z</time>
      </trkpt>
      <trkpt lat="47.29251" lon="4.90335">
        <ele>626</ele>
        <time>2012-12-08T08:34:14Z</time>
      </trkpt>
      <trkpt lat="47.29248" lon="4.90339">
        <ele>625</ele>
        <time>2012-12-08T08:34:17Z</time>
      </trkpt>
      <trkpt lat="47.29244" lon="4.90344">
        <ele>624</ele>
        <time>2012-12-08T08:34:20Z</time>
      </trkpt>
      <trkpt lat="47.2924" lon="4.90348">
        <ele>624</ele>
        <time>2012-12-08T08:34:23Z</time>
      </trkpt>
      <trkpt lat="47.29236" lon="4.9035">
        <ele>624</ele>
        <time>2012-12-08T08:34:25Z</time>
      </trkpt>
      <trkpt lat="47.29232" lon="4.90356">
        <ele>624</ele>
        <time>2012-12-08T08:34:28Z</time>
      </trkpt>
      <trkpt lat="47.29231" lon="4.90362">
        <ele>623</ele>
        <time>2012-12-08T08:34:32Z</time>
      </trkpt>
      <trkpt lat="47.29226" lon="4.90367">
        <ele>623</ele>
        <time>2012-12-08T08:34:35Z</time>
      </trkpt>
      <trkpt lat="47.29222" lon="4.90371">
        <ele>624</ele>
        <time>2012-12-08T08:34:38Z</time>
      </trkpt>
      <trkpt lat="47.29219" lon="4.90376">
        <ele>627</ele>
        <time>2012-12-08T08:34:41Z</time>
      </trkpt>
      <trkpt lat="47.29216" lon="4.90383">
        <ele>627</ele>
        <time>2012-12-08T08:34:45Z</time>
      </trkpt>
      <trkpt lat="47.29212" lon="4.90387">
        <ele>626</ele>
        <time>2012-12-08T08:34:48Z</time>
      </trkpt>
      <trkpt lat="47.29208" lon="4.9039">
        <ele>626</ele>
        <time>2012-12-08T08:34:51Z</time>
      </trkpt>
      <trkpt lat="47.29203" lon="4.90395">
        <ele>627</ele>
        <time>2012-12-08T08:34:54Z</time>
      </trkpt>
      <trkpt lat="47.29198" lon="4.90398">
        <ele>627</ele>
        <time>2012-12-08T08:34:57Z</time>
      </trkpt>
      <trkpt lat="47.29196" lon="4.90404">
        <ele>624</ele>
        <time>2012-12-08T08:35:02Z</time>
      </trkpt>
      <trkpt lat="47.29193" lon="4.90409">
        <ele>623</ele>
        <time>2012-12-08T08:35:08Z</time>
      </trkpt>
      <trkpt lat="47.2919" lon="4.90415">
        <ele>625</ele>
        <time>2012-12-08T08:35:14Z</time>
      </trkpt>
      <trkpt lat="47.29189" lon="4.90422">
        <ele>623</ele>
        <time>2012-12-08T08:35:19Z</time>
      </trkpt>
      <trkpt lat="47.29186" lon="4.90428">
        <ele>623</ele>
        <time>2012-12-08T08:35:28Z</time>
      </trkpt>
      <trkpt lat="47.29186" lon="4.90428">
        <ele>623</ele>
        <time>2012-12-08T08:35:28Z</time>
      </trkpt>
      <trkpt lat="47.29186" lon="4.90428">
        <ele>623</ele>
        <time>2012-12-08T08:35:29Z</time>
      </trkpt>
      <trkpt lat="47.29182" lon="4.90433">
        <ele>619</ele>
        <time>2012-12-08T08:35:34Z</time>
      </trkpt>
      <trkpt lat="47.29182" lon="4.9044">
        <ele>615</ele>
        <time>2012-12-08T08:35:45Z</time>
      </trkpt>
      <trkpt lat="47.29181" lon="4.90447">
        <ele>613</ele>
        <time>2012-12-08T08:35:51Z</time>
      </trkpt>
      <trkpt lat="47.29179" lon="4.90453">
        <ele>613</ele>
        <time>2012-12-08T08:35:55Z</time>
      </trkpt>
      <trkpt lat="47.2918" lon="4.9046">
        <ele>612</ele>
        <time>2012-12-08T08:35:58Z</time>
      </trkpt>
      <trkpt lat="47.29178" lon="4.90466">
        <ele>610</ele>
        <time>2012-12-08T08:36:03Z</time>
      </trkpt>
      <trkpt lat="47.29178" lon="4.90474">
        <ele>607</ele>
        <time>2012-12-08T08:36:09Z</time>
      </trkpt>
      <trkpt lat="47.29177" lon="4.9048">
        <ele>603</ele>
        <time>2012-12-08T08:36:24Z</time>
      </trkpt>
      <trkpt lat="47.29177" lon="4.90489">
        <ele>603</ele>
        <time>2012-12-08T08:36:28Z</time>
      </trkpt>
      <trkpt lat="47.29174" lon="4.90494">
        <ele>602</ele>
        <time>2012-12-08T08:36:34Z</time>
      </trkpt>
      <trkpt lat="47.29172" lon="4.905">
        <ele>600</ele>
        <time>2012-12-08T08:36:43Z</time>
      </trkpt>
      <trkpt lat="47.29175" lon="4.90507">
        <ele>598</ele>
        <time>2012-12-08T08:36:47Z</time>
      </trkpt>
      <trkpt lat="47.29174" lon="4.90515">
        <ele>595</ele>
        <time>2012-12-08T08:36:55Z</time>
      </trkpt>
      <trkpt lat="47.29174" lon="4.90515">
        <ele>595</ele>
        <time>2012-12-08T08:36:55Z</time>
      </trkpt>
      <trkpt lat="47.29174" lon="4.90515">
        <ele>592</ele>
        <time>2012-12-08T08:37:00Z</time>
      </trkpt>
      <trkpt lat="47.29173" lon="4.90521">
        <ele>590</ele>
        <time>2012-12-08T08:37:13Z</time>
      </trkpt>
      <trkpt lat="47.29169" lon="4.90526">
        <ele>586</ele>
        <time>2012-12-08T08:37:21Z</time>
      </trkpt>
      <trkpt lat="47.29169" lon="4.90534">
        <ele>586</ele>
        <time>2012-12-08T08:37:26Z</time>
      </trkpt>
      <trkpt lat="47.2917" lon="4.90542">
        <ele>583</ele>
        <time>2012-12-08T08:37:31Z</time>
      </trkpt>
      <trkpt lat="47.29168" lon="4.90548">
        <ele>578</ele>
        <time>2012-12-08T08:37:43Z</time>
      </trkpt>
      <trkpt lat="47.29168" lon="4.90556">
        <ele>578</ele>
        <time>2012-12-08T08:37:47Z</time>
      </trkpt>
      <trkpt lat="47.29165" lon="4.9056">
        <ele>577</ele>
        <time>2012-12-08T08:37:52Z</time>
      </trkpt>
      <trkpt lat="47.29162" lon="4.90567">
        <ele>575</ele>
        <time>2012-12-08T08:38:01Z</time>
      </trkpt>
      <trkpt lat="47.29162" lon="4.90574">
        <ele>574</ele>
        <time>2012-12-08T08:38:08Z</time>
      </trkpt>
      <trkpt lat="47.29162" lon="4.90581">
        <ele>574</ele>
        <time>2012-12-08T08:38:11Z</time>
      </trkpt>
      <trkpt lat="47.29162" lon="4.90588">
        <ele>572</ele>
        <time>2012-12-08T08:38:16Z</time>
      </trkpt>
      <trkpt lat="47.2916" lon="4.90595">
        <ele>567</ele>
        <time>2012-12-08T08:38:22Z</time>
      </trkpt>
      <trkpt lat="47.29153" lon="4.90596">
        <ele>561</ele>
        <time>2012-12-08T08:38:43Z</time>
      </trkpt>
      <trkpt lat="47.29154" lon="4.90603">
        <ele>554</ele>
        <time>2012-12-08T08:38:50Z</time>
      </trkpt>
      <trkpt lat="47.29159" lon="4.9061">
        <ele>554</ele>
        <time>2012-12-08T08:39:01Z</time>
      </trkpt>
      <trkpt lat="47.29158" lon="4.90618">
        <ele>548</ele>
        <time>2012-12-08T08:39:16Z</time>
      </trkpt>
      <trkpt lat="47.29158" lon="4.90625">
        <ele>539</ele>
        <time>2012-12-08T08:39:30Z</time>
      </trkpt>
      <trkpt lat="47.29154" lon="4.90631">
        <ele>537</ele>
        <time>2012-12-08T08:39:36Z</time>
      </trkpt>
      <trkpt lat="47.29152" lon="4.90637">
        <ele>532</ele>
        <time>2012-12-08T08:39:43Z</time>
      </trkpt>
      <trkpt lat="47.29153" lon="4.90644">
        <ele>526</ele>
        <time>2012-12-08T08:39:56Z</time>
      </trkpt>
      <trkpt lat="47.29149" lon="4.90652">
        <ele>527</ele>
        <time>2012-12-08T08:40:03Z</time>
      </trkpt>
      <trkpt lat="47.29144" lon="4.90654">
        <ele>527</ele>
        <time>2012-12-08T08:40:06Z</time>
      </trkpt>
      <trkpt lat="47.29138" lon="4.90656">
        <ele>527</ele>
        <time>2012-12-08T08:40:09Z</time>
      </trkpt>
      <trkpt lat="47.29132" lon="4.9066">
        <ele>528</ele>
        <time>2012-12-08T08:40:14Z</time>
      </trkpt>
      <trkpt lat="47.29132" lon="4.9066">
        <ele>528</ele>
        <time>2012-12-08T08:40:14Z</time>
      </trkpt>
      <trkpt lat="47.29132" lon="4.9066">
        <ele>529</ele>
        <time>2012-12-08T08:40:15Z</time>
      </trkpt>
      <trkpt lat="47.29128" lon="4.90656">
        <ele>529</ele>
        <time>2012-12-08T08:40:23Z</time>
      </trkpt>
      <trkpt lat="47.29124" lon="4.90662">
        <ele>529</ele>
        <time>2012-12-08T08:40:31Z</time>
      </trkpt>
      <trkpt lat="47.2912" lon="4.90667">
        <ele>526</ele>
        <time>2012-12-08T08:40:36Z</time>
      </trkpt>
      <trkpt lat="47.29116" lon="4.90672">
        <ele>525</ele>
        <time>2012-12-08T08:40:40Z</time>
      </trkpt>
      <trkpt lat="47.29117" lon="4.9068">
        <ele>522</ele>
        <time>2012-12-08T08:40:45Z</time>
      </trkpt>
      <trkpt lat="47.29121" lon="4.90686">
        <ele>520</ele>
        <time>2012-12-08T08:40:49Z</time>
      </trkpt>
      <trkpt lat="47.29127" lon="4.9069">
        <ele>518</ele>
        <time>2012-12-08T08:40:54Z</time>
      </trkpt>
      <trkpt lat="47.29131" lon="4.90694">
        <ele>516</ele>
        <time>2012-12-08T08:40:57Z</time>
      </trkpt>
      <trkpt lat="47.29136" lon="4.90701">
        <ele>514</ele>
        <time>2012-12-08T08:41:00Z</time>
      </trkpt>
      <trkpt lat="47.29138" lon="4.90707">
        <ele>513</ele>
        <time>2012-12-08T08:41:03Z</time>
      </trkpt>
      <trkpt lat="47.29142" lon="4.90713">
        <ele>512</ele>
        <time>2012-12-08T08:41:08Z</time>
      </trkpt>
      <trkpt lat="47.29145" lon="4.90718">
        <ele>511</ele>
        <time>2012-12-08T08:41:11Z</time>
      </trkpt>
      <trkpt lat="47.29149" lon="4.90723">
        <ele>508</ele>
        <time>2012-12-08T08:41:13Z</time>
      </trkpt>
      <trkpt lat="47.29153" lon="4.90726">
        <ele>506</ele>
        <time>2012-12-08T08:41:16Z</time>
      </trkpt>
      <trkpt lat="47.29157" lon="4.90732">
        <ele>505</ele>
        <time>2012-12-08T08:41:19Z</time>
      </trkpt>
      <trkpt lat="47.29157" lon="4.9074">
        <ele>504</ele>
        <time>2012-12-08T08:41:24Z</time>
      </trkpt>
      <trkpt lat="47.2916" lon="4.90747">
        <ele>503</ele>
        <time>2012-12-08T08:41:26Z</time>
      </trkpt>
      <trkpt lat="47.29158" lon="4.90754">
        <ele>503</ele>
        <time>2012-12-08T08:41:29Z</time>
      </trkpt>
      <trkpt lat="47.29153" lon="4.90756">
        <ele>507</ele>
        <time>2012-12-08T08:41:33Z</time>
      </trkpt>
      <trkpt lat="47.29149" lon="4.90757">
        <ele>507</ele>
        <time>2012-12-08T08:41:37Z</time>
      </trkpt>
      <trkpt lat="47.29143" lon="4.90757">
        <ele>509</ele>
        <time>2012-12-08T08:41:40Z</time>
      </trkpt>
      <trkpt lat="47.29138" lon="4.90758">
        <ele>511</ele>
        <time>2012-12-08T08:41:42Z</time>
      </trkpt>
      <trkpt lat="47.29132" lon="4.90758">
        <ele>512</ele>
        <time>2012-12-08T08:41:46Z</time>
      </trkpt>
      <trkpt lat="47.29126" lon="4.90758">
        <ele>511</ele>
        <time>2012-12-08T08:41:49Z</time>
      </trkpt>
      <trkpt lat="47.2912" lon="4.90756">
        <ele>515</ele>
        <time>2012-12-08T08:41:53Z</time>
      </trkpt>
      <trkpt lat="47.29115" lon="4.90755">
        <ele>521</ele>
        <time>2012-12-08T08:41:57Z</time>
      </trkpt>
      <trkpt lat="47.2911" lon="4.90754">
        <ele>522</ele>
        <time>2012-12-08T08:42:00Z</time>
      </trkpt>
      <trkpt lat="47.29105" lon="4.90752">
        <ele>525</ele>
        <time>2012-12-08T08:42:03Z</time>
      </trkpt>
      <trkpt lat="47.29105" lon="4.90752">
        <ele>525</ele>
        <time>2012-12-08T08:42:03Z</time>
      </trkpt>
      <trkpt lat="47.29105" lon="4.90752">
        <ele>525</ele>
        <time>2012-12-08T08:42:04Z</time>
      </trkpt>
      <trkpt lat="47.29099" lon="4.90752">
        <ele>526</ele>
        <time>2012-12-08T08:42:07Z</time>
      </trkpt>
      <trkpt lat="47.29094" lon="4.90751">
        <ele>528</ele>
        <time>2012-12-08T08:42:10Z</time>
      </trkpt>
      <trkpt lat="47.29088" lon="4.9075">
        <ele>529</ele>
        <time>2012-12-08T08:42:14Z</time>
      </trkpt>
      <trkpt lat="47.29083" lon="4.90747">
        <ele>529</ele>
        <time>2012-12-08T08:42:17Z</time>
      </trkpt>
      <trkpt lat="47.29078" lon="4.90745">
        <ele>531</ele>
        <time>2012-12-08T08:42:20Z</time>
      </trkpt>
      <trkpt lat="47.29071" lon="4.90745">
        <ele>532</ele>
        <time>2012-12-08T08:42:23Z</time>
      </trkpt>
      <trkpt lat="47.29066" lon="4.90745">
        <ele>533</ele>
        <time>2012-12-08T08:42:26Z</time>
      </trkpt>
      <trkpt lat="47.2906" lon="4.90744">
        <ele>535</ele>
        <time>2012-12-08T08:42:29Z</time>
      </trkpt>
      <trkpt lat="47.29054" lon="4.90742">
        <ele>537</ele>
        <time>2012-12-08T08:42:32Z</time>
      </trkpt>
      <trkpt lat="47.29048" lon="4.90743">
        <ele>536</ele>
        <time>2012-12-08T08:42:34Z</time>
      </trkpt>
      <trkpt lat="47.29043" lon="4.90742">
        <ele>536</ele>
        <time>2012-12-08T08:42:39Z</time>
      </trkpt>
      <trkpt lat="47.29038" lon="4.90741">
        <ele>533</ele>
        <time>2012-12-08T08:42:43Z</time>
      </trkpt>
      <trkpt lat="47.29033" lon="4.90746">
        <ele>535</ele>
        <time>2012-12-08T08:42:45Z</time>
      </trkpt>
      <trkpt lat="47.29028" lon="4.90749">
        <ele>535</ele>
        <time>2012-12-08T08:42:48Z</time>
      </trkpt>
      <trkpt lat="47.29024" lon="4.90752">
        <ele>536</ele>
        <time>2012-12-08T08:42:50Z</time>
      </trkpt>
      <trkpt lat="47.29019" lon="4.90754">
        <ele>535</ele>
        <time>2012-12-08T08:42:55Z</time>
      </trkpt>
      <trkpt lat="47.29013" lon="4.90755">
        <ele>534</ele>
        <time>2012-12-08T08:42:59Z</time>
      </trkpt>
      <trkpt lat="47.29009" lon="4.90757">
        <ele>532</ele>
        <time>2012-12-08T08:43:02Z</time>
      </trkpt>
      <trkpt lat="47.29002" lon="4.9076">
        <ele>531</ele>
        <time>2012-12-08T08:43:05Z</time>
      </trkpt>
      <trkpt lat="47.28996" lon="4.90762">
        <ele>530</ele>
        <time>2012-12-08T08:43:07Z</time>
      </trkpt>
      <trkpt lat="47.28992" lon="4.90766">
        <ele>533</ele>
        <time>2012-12-08T08:43:10Z</time>
      </trkpt>
      <trkpt lat="47.28987" lon="4.90763">
        <ele>531</ele>
        <time>2012-12-08T08:43:13Z</time>
      </trkpt>
      <trkpt lat="47.2898" lon="4.90766">
        <ele>528</ele>
        <time>2012-12-08T08:43:16Z</time>
      </trkpt>
      <trkpt lat="47.28976" lon="4.90769">
        <ele>528</ele>
        <time>2012-12-08T08:43:18Z</time>
      </trkpt>
      <trkpt lat="47.28971" lon="4.90769">
        <ele>527</ele>
        <time>2012-12-08T08:43:21Z</time>
      </trkpt>
      <trkpt lat="47.28965" lon="4.9077">
        <ele>524</ele>
        <time>2012-12-08T08:43:24Z</time>
      </trkpt>
      <trkpt lat="47.2896" lon="4.90773">
        <ele>523</ele>
        <time>2012-12-08T08:43:28Z</time>
      </trkpt>
      <trkpt lat="47.28955" lon="4.90776">
        <ele>521</ele>
        <time>2012-12-08T08:43:32Z</time>
      </trkpt>
      <trkpt lat="47.28955" lon="4.90776">
        <ele>521</ele>
        <time>2012-12-08T08:43:32Z</time>
      </trkpt>
      <trkpt lat="47.28955" lon="4.90776">
        <ele>521</ele>
        <time>2012-12-08T08:43:33Z</time>
      </trkpt>
      <trkpt lat="47.28952" lon="4.90771">
        <ele>514</ele>
        <time>2012-12-08T08:43:45Z</time>
      </trkpt>
      <trkpt lat="47.28947" lon="4.90776">
        <ele>506</ele>
        <time>2012-12-08T08:43:52Z</time>
      </trkpt>
      <trkpt lat="47.28944" lon="4.90782">
        <ele>500</ele>
        <time>2012-12-08T08:43:59Z</time>
      </trkpt>
      <trkpt lat="47.28941" lon="4.90788">
        <ele>498</ele>
        <time>2012-12-08T08:44:03Z</time>
      </trkpt>
      <trkpt lat="47.28939" lon="4.90794">
        <ele>496</ele>
        <time>2012-12-08T08:44:06Z</time>
      </trkpt>
      <trkpt lat="47.28936" lon="4.90799">
        <ele>492</ele>
        <time>2012-12-08T08:44:11Z</time>
      </trkpt>
      <trkpt lat="47.28932" lon="4.90803">
        <ele>490</ele>
        <time>2012-12-08T08:44:14Z</time>
      </trkpt>
      <trkpt lat="47.28934" lon="4.90815">
        <ele>487</ele>
        <time>2012-12-08T08:44:17Z</time>
      </trkpt>
      <trkpt lat="47.28934" lon="4.90824">
        <ele>486</ele>
        <time>2012-12-08T08:44:20Z</time>
      </trkpt>
      <trkpt lat="47.28932" lon="4.9083">
        <ele>483</ele>
        <time>2012-12-08T08:44:22Z</time>
      </trkpt>
      <trkpt lat="47.2893" lon="4.90838">
        <ele>477</ele>
        <time>2012-12-08T08:44:29Z</time>
      </trkpt>
      <trkpt lat="47.28928" lon="4.90845">
        <ele>474</ele>
        <time>2012-12-08T08:44:35Z</time>
      </trkpt>
      <trkpt lat="47.28926" lon="4.90853">
        <ele>473</ele>
        <time>2012-12-08T08:44:38Z</time>
      </trkpt>
      <trkpt lat="47.28928" lon="4.90859">
        <ele>472</ele>
        <time>2012-12-08T08:44:40Z</time>
      </trkpt>
      <trkpt lat="47.28928" lon="4.90866">
        <ele>471</ele>
        <time>2012-12-08T08:44:42Z</time>
      </trkpt>
      <trkpt lat="47.28926" lon="4.90873">
        <ele>467</ele>
        <time>2012-12-08T08:44:46Z</time>
      </trkpt>
      <trkpt lat="47.28922" lon="4.90881">
        <ele>464</ele>
        <time>2012-12-08T08:44:49Z</time>
      </trkpt>
      <trkpt lat="47.28918" lon="4.90887">
        <ele>461</ele>
        <time>2012-12-08T08:44:52Z</time>
      </trkpt>
      <trkpt lat="47.28917" lon="4.90894">
        <ele>461</ele>
        <time>2012-12-08T08:44:56Z</time>
      </trkpt>
      <trkpt lat="47.28916" lon="4.90904">
        <ele>458</ele>
        <time>2012-12-08T08:45:00Z</time>
      </trkpt>
      <trkpt lat="47.28916" lon="4.90912">
        <ele>456</ele>
        <time>2012-12-08T08:45:03Z</time>
      </trkpt>
      <trkpt lat="47.28914" lon="4.90918">
        <ele>452</ele>
        <time>2012-12-08T08:45:06Z</time>
      </trkpt>
      <trkpt lat="47.2891" lon="4.90926">
        <ele>447</ele>
        <time>2012-12-08T08:45:10Z</time>
      </trkpt>
      <trkpt lat="47.2891" lon="4.90934">
        <ele>446</ele>
        <time>2012-12-08T08:45:12Z</time>
      </trkpt>
      <trkpt lat="47.28909" lon="4.90943">
        <ele>446</ele>
        <time>2012-12-08T08:45:15Z</time>
      </trkpt>
      <trkpt lat="47.28908" lon="4.90949">
        <ele>444</ele>
        <time>2012-12-08T08:45:17Z</time>
      </trkpt>
      <trkpt lat="47.28908" lon="4.90958">
        <ele>446</ele>
        <time>2012-12-08T08:45:20Z</time>
      </trkpt>
      <trkpt lat="47.28906" lon="4.90964">
        <ele>444</ele>
        <time>2012-12-08T08:45:23Z</time>
      </trkpt>
      <trkpt lat="47.28905" lon="4.90974">
        <ele>442</ele>
        <time>2012-12-08T08:45:26Z</time>
      </trkpt>
      <trkpt lat="47.28907" lon="4.90983">
        <ele>439</ele>
        <time>2012-12-08T08:45:29Z</time>
      </trkpt>
      <trkpt lat="47.28907" lon="4.90991">
        <ele>440</ele>
        <time>2012-12-08T08:45:31Z</time>
      </trkpt>
      <trkpt lat="47.28905" lon="4.90999">
        <ele>439</ele>
        <time>2012-12-08T08:45:34Z</time>
      </trkpt>
      <trkpt lat="47.28902" lon="4.91005">
        <ele>438</ele>
        <time>2012-12-08T08:45:37Z</time>
      </trkpt>
      <trkpt lat="47.28899" lon="4.91013">
        <ele>436</ele>
        <time>2012-12-08T08:45:40Z</time>
      </trkpt>
      <trkpt lat="47.28898" lon="4.91021">
        <ele>434</ele>
        <time>2012-12-08T08:45:43Z</time>
      </trkpt>
      <trkpt lat="47.28895" lon="4.91027">
        <ele>432</ele>
        <time>2012-12-08T08:45:45Z</time>
      </trkpt>
      <trkpt lat="47.28893" lon="4.91034">
        <ele>431</ele>
        <time>2012-12-08T08:45:47Z</time>
      </trkpt>
      <trkpt lat="47.28893" lon="4.91041">
        <ele>427</ele>
        <time>2012-12-08T08:45:50Z</time>
      </trkpt>
      <trkpt lat="47.28894" lon="4.91049">
        <ele>423</ele>
        <time>2012-12-08T08:45:54Z</time>
      </trkpt>
      <trkpt lat="47.28895" lon="4.91058">
        <ele>422</ele>
        <time>2012-12-08T08:45:57Z</time>
      </trkpt>
      <trkpt lat="47.28895" lon="4.91065">
        <ele>422</ele>
        <time>2012-12-08T08:46:00Z</time>
      </trkpt>
      <trkpt lat="47.28894" lon="4.91072">
        <ele>421</ele>
        <time>2012-12-08T08:46:03Z</time>
      </trkpt>
      <trkpt lat="47.28893" lon="4.9108">
        <ele>420</ele>
        <time>2012-12-08T08:46:07Z</time>
      </trkpt>
      <trkpt lat="47.28896" lon="4.91088">
        <ele>417</ele>
        <time>2012-12-08T08:46:12Z</time>
      </trkpt>
      <trkpt lat="47.28896" lon="4.91096">
        <ele>415</ele>
        <time>2012-12-08T08:46:16Z</time>
      </trkpt>
      <trkpt lat="47.28898" lon="4.91104">
        <ele>415</ele>
        <time>2012-12-08T08:46:20Z</time>
      </trkpt>
      <trkpt lat="47.28898" lon="4.91112">
        <ele>414</ele>
        <time>2012-12-08T08:46:23Z</time>
      </trkpt>
      <trkpt lat="47.28893" lon="4.91116">
        <ele>416</ele>
        <time>2012-12-08T08:46:29Z</time>
      </trkpt>
      <trkpt lat="47.28888" lon="4.91117">
        <ele>416</ele>
        <time>2012-12-08T08:46:34Z</time>
      </trkpt>
      <trkpt lat="47.28884" lon="4.91118">
        <ele>416</ele>
        <time>2012-12-08T08:46:37Z</time>
      </trkpt>
      <trkpt lat="47.28879" lon="4.91116">
        <ele>416</ele>
        <time>2012-12-08T08:46:41Z</time>
      </trkpt>
      <trkpt lat="47.28874" lon="4.91113">
        <ele>414</ele>
        <time>2012-12-08T08:46:43Z</time>
      </trkpt>
      <trkpt lat="47.2887" lon="4.9111">
        <ele>414</ele>
        <time>2012-12-08T08:46:46Z</time>
      </trkpt>
      <trkpt lat="47.28866" lon="4.91105">
        <ele>413</ele>
        <time>2012-12-08T08:46:49Z</time>
      </trkpt>
      <trkpt lat="47.28862" lon="4.91104">
        <ele>412</ele>
        <time>2012-12-08T08:46:52Z</time>
      </trkpt>
      <trkpt lat="47.28857" lon="4.91103">
        <ele>412</ele>
        <time>2012-12-08T08:46:55Z</time>
      </trkpt>
      <trkpt lat="47.28853" lon="4.91098">
        <ele>413</ele>
        <time>2012-12-08T08:46:58Z</time>
      </trkpt>
      <trkpt lat="47.28848" lon="4.91095">
        <ele>412</ele>
        <time>2012-12-08T08:47:01Z</time>
      </trkpt>
      <trkpt lat="47.28843" lon="4.91095">
        <ele>413</ele>
        <time>2012-12-08T08:47:04Z</time>
      </trkpt>
      <trkpt lat="47.28838" lon="4.91092">
        <ele>416</ele>
        <time>2012-12-08T08:47:07Z</time>
      </trkpt>
      <trkpt lat="47.28834" lon="4.91084">
        <ele>420</ele>
        <time>2012-12-08T08:47:12Z</time>
      </trkpt>
      <trkpt lat="47.2883" lon="4.91078">
        <ele>421</ele>
        <time>2012-12-08T08:47:16Z</time>
      </trkpt>
      <trkpt lat="47.28826" lon="4.91073">
        <ele>419</ele>
        <time>2012-12-08T08:47:19Z</time>
      </trkpt>
      <trkpt lat="47.28822" lon="4.91067">
        <ele>419</ele>
        <time>2012-12-08T08:47:22Z</time>
      </trkpt>
      <trkpt lat="47.28816" lon="4.91062">
        <ele>418</ele>
        <time>2012-12-08T08:47:25Z</time>
      </trkpt>
      <trkpt lat="47.28811" lon="4.91057">
        <ele>417</ele>
        <time>2012-12-08T08:47:28Z</time>
      </trkpt>
      <trkpt lat="47.28807" lon="4.91051">
        <ele>419</ele>
        <time>2012-12-08T08:47:31Z</time>
      </trkpt>
      <trkpt lat="47.28803" lon="4.91046">
        <ele>418</ele>
        <time>2012-12-08T08:47:34Z</time>
      </trkpt>
      <trkpt lat="47.28798" lon="4.91041">
        <ele>417</ele>
        <time>2012-12-08T08:47:37Z</time>
      </trkpt>
      <trkpt lat="47.28794" lon="4.91035">
        <ele>417</ele>
        <time>2012-12-08T08:47:41Z</time>
      </trkpt>
      <trkpt lat="47.28789" lon="4.91032">
        <ele>418</ele>
        <time>2012-12-08T08:47:45Z</time>
      </trkpt>
      <trkpt lat="47.28785" lon="4.91027">
        <ele>418</ele>
        <time>2012-12-08T08:47:48Z</time>
      </trkpt>
      <trkpt lat="47.28781" lon="4.91023">
        <ele>418</ele>
        <time>2012-12-08T08:47:50Z</time>
      </trkpt>
      <trkpt lat="47.28776" lon="4.91019">
        <ele>419</ele>
        <time>2012-12-08T08:47:53Z</time>
      </trkpt>
      <trkpt lat="47.2877" lon="4.91016">
        <ele>415</ele>
        <time>2012-12-08T08:47:56Z</time>
      </trkpt>
      <trkpt lat="47.28766" lon="4.91012">
        <ele>416</ele>
        <time>2012-12-08T08:47:59Z</time>
      </trkpt>
      <trkpt lat="47.2876" lon="4.9101">
        <ele>415</ele>
        <time>2012-12-08T08:48:01Z</time>
      </trkpt>
      <trkpt lat="47.28755" lon="4.91009">
        <ele>414</ele>
        <time>2012-12-08T08:48:04Z</time>
      </trkpt>
      <trkpt lat="47.2875" lon="4.91005">
        <ele>414</ele>
        <time>2012-12-08T08:48:07Z</time>
      </trkpt>
      <trkpt lat="47.28747" lon="4.91">
        <ele>412</ele>
        <time>2012-12-08T08:48:10Z</time>
      </trkpt>
      <trkpt lat="47.28742" lon="4.90996">
        <ele>412</ele>
        <time>2012-12-08T08:48:13Z</time>
      </trkpt>
      <trkpt lat="47.28737" lon="4.90991">
        <ele>411</ele>
        <time>2012-12-08T08:48:22Z</time>
      </trkpt>
      <trkpt lat="47.28731" lon="4.9099">
        <ele>412</ele>
        <time>2012-12-08T08:48:24Z</time>
      </trkpt>
      <trkpt lat="47.28726" lon="4.90987">
        <ele>413</ele>
        <time>2012-12-08T08:48:27Z</time>
      </trkpt>
      <trkpt lat="47.2872" lon="4.90983">
        <ele>413</ele>
        <time>2012-12-08T08:48:31Z</time>
      </trkpt>
      <trkpt lat="47.28716" lon="4.9098">
        <ele>414</ele>
        <time>2012-12-08T08:48:34Z</time>
      </trkpt>
      <trkpt lat="47.28712" lon="4.90976">
        <ele>415</ele>
        <time>2012-12-08T08:48:36Z</time>
      </trkpt>
      <trkpt lat="47.28707" lon="4.90972">
        <ele>417</ele>
        <time>2012-12-08T08:48:40Z</time>
      </trkpt>
      <trkpt lat="47.28702" lon="4.90972">
        <ele>419</ele>
        <time>2012-12-08T08:48:43Z</time>
      </trkpt>
      <trkpt lat="47.28696" lon="4.90969">
        <ele>420</ele>
        <time>2012-12-08T08:48:47Z</time>
      </trkpt>
      <trkpt lat="47.28696" lon="4.90969">
        <ele>420</ele>
        <time>2012-12-08T08:48:47Z</time>
      </trkpt>
      <trkpt lat="47.28696" lon="4.90969">
        <ele>420</ele>
        <time>2012-12-08T08:48:48Z</time>
      </trkpt>
      <trkpt lat="47.2869" lon="4.90963">
        <ele>421</ele>
        <time>2012-12-08T08:48:51Z</time>
      </trkpt>
      <trkpt lat="47.28687" lon="4.90959">
        <ele>421</ele>
        <time>2012-12-08T08:48:53Z</time>
      </trkpt>
      <trkpt lat="47.28684" lon="4.90954">
        <ele>423</ele>
        <time>2012-12-08T08:48:57Z</time>
      </trkpt>
      <trkpt lat="47.28679" lon="4.90952">
        <ele>423</ele>
        <time>2012-12-08T08:49:00Z</time>
      </trkpt>
      <trkpt lat="47.28675" lon="4.90946">
        <ele>423</ele>
        <time>2012-12-08T08:49:05Z</time>
      </trkpt>
      <trkpt lat="47.28672" lon="4.90941">
        <ele>424</ele>
        <time>2012-12-08T08:49:07Z</time>
      </trkpt>
      <trkpt lat="47.28666" lon="4.90936">
        <ele>426</ele>
        <time>2012-12-08T08:49:11Z</time>
      </trkpt>
      <trkpt lat="47.28663" lon="4.90931">
        <ele>427</ele>
        <time>2012-12-08T08:49:14Z</time>
      </trkpt>
      <trkpt lat="47.28658" lon="4.90928">
        <ele>430</ele>
        <time>2012-12-08T08:49:16Z</time>
      </trkpt>
      <trkpt lat="47.28653" lon="4.90924">
        <ele>430</ele>
        <time>2012-12-08T08:49:19Z</time>
      </trkpt>
      <trkpt lat="47.28648" lon="4.9092">
        <ele>431</ele>
        <time>2012-12-08T08:49:22Z</time>
      </trkpt>
      <trkpt lat="47.28642" lon="4.90916">
        <ele>430</ele>
        <time>2012-12-08T08:49:25Z</time>
      </trkpt>
      <trkpt lat="47.28637" lon="4.90914">
        <ele>431</ele>
        <time>2012-12-08T08:49:27Z</time>
      </trkpt>
      <trkpt lat="47.2863" lon="4.90912">
        <ele>432</ele>
        <time>2012-12-08T08:49:30Z</time>
      </trkpt>
      <trkpt lat="47.28626" lon="4.90908">
        <ele>433</ele>
        <time>2012-12-08T08:49:34Z</time>
      </trkpt>
      <trkpt lat="47.28621" lon="4.90905">
        <ele>433</ele>
        <time>2012-12-08T08:49:37Z</time>
      </trkpt>
      <trkpt lat="47.28616" lon="4.90901">
        <ele>432</ele>
        <time>2012-12-08T08:49:41Z</time>
      </trkpt>
      <trkpt lat="47.28611" lon="4.90898">
        <ele>432</ele>
        <time>2012-12-08T08:49:44Z</time>
      </trkpt>
      <trkpt lat="47.28606" lon="4.90895">
        <ele>433</ele>
        <time>2012-12-08T08:49:47Z</time>
      </trkpt>
      <trkpt lat="47.28601" lon="4.90891">
        <ele>433</ele>
        <time>2012-12-08T08:49:51Z</time>
      </trkpt>
      <trkpt lat="47.28598" lon="4.90887">
        <ele>431</ele>
        <time>2012-12-08T08:49:54Z</time>
      </trkpt>
      <trkpt lat="47.28591" lon="4.90884">
        <ele>431</ele>
        <time>2012-12-08T08:49:57Z</time>
      </trkpt>
      <trkpt lat="47.28585" lon="4.90881">
        <ele>429</ele>
        <time>2012-12-08T08:50:00Z</time>
      </trkpt>
      <trkpt lat="47.28585" lon="4.90881">
        <ele>429</ele>
        <time>2012-12-08T08:50:00Z</time>
      </trkpt>
      <trkpt lat="47.28585" lon="4.90881">
        <ele>429</ele>
        <time>2012-12-08T08:50:01Z</time>
      </trkpt>
      <trkpt lat="47.28581" lon="4.90878">
        <ele>430</ele>
        <time>2012-12-08T08:50:04Z</time>
      </trkpt>
      <trkpt lat="47.28575" lon="4.90875">
        <ele>430</ele>
        <time>2012-12-08T08:50:08Z</time>
      </trkpt>
      <trkpt lat="47.2857" lon="4.90873">
        <ele>432</ele>
        <time>2012-12-08T08:50:13Z</time>
      </trkpt>
      <trkpt lat="47.28565" lon="4.90872">
        <ele>431</ele>
        <time>2012-12-08T08:50:15Z</time>
      </trkpt>
      <trkpt lat="47.2856" lon="4.90868">
        <ele>432</ele>
        <time>2012-12-08T08:50:18Z</time>
      </trkpt>
      <trkpt lat="47.28554" lon="4.90866">
        <ele>431</ele>
        <time>2012-12-08T08:50:22Z</time>
      </trkpt>
      <trkpt lat="47.28548" lon="4.90864">
        <ele>430</ele>
        <time>2012-12-08T08:50:25Z</time>
      </trkpt>
      <trkpt lat="47.28542" lon="4.90863">
        <ele>431</ele>
        <time>2012-12-08T08:50:28Z</time>
      </trkpt>
      <trkpt lat="47.28537" lon="4.90863">
        <ele>432</ele>
        <time>2012-12-08T08:50:31Z</time>
      </trkpt>
      <trkpt lat="47.28532" lon="4.90861">
        <ele>431</ele>
        <time>2012-12-08T08:50:34Z</time>
      </trkpt>
      <trkpt lat="47.28526" lon="4.9086">
        <ele>431</ele>
        <time>2012-12-08T08:50:39Z</time>
      </trkpt>
      <trkpt lat="47.2852" lon="4.90862">
        <ele>431</ele>
        <time>2012-12-08T08:50:42Z</time>
      </trkpt>
      <trkpt lat="47.28515" lon="4.90861">
        <ele>430</ele>
        <time>2012-12-08T08:50:47Z</time>
      </trkpt>
      <trkpt lat="47.2851" lon="4.90861">
        <ele>430</ele>
        <time>2012-12-08T08:50:50Z</time>
      </trkpt>
      <trkpt lat="47.28504" lon="4.9086">
        <ele>429</ele>
        <time>2012-12-08T08:50:52Z</time>
      </trkpt>
      <trkpt lat="47.285" lon="4.90857">
        <ele>428</ele>
        <time>2012-12-08T08:50:55Z</time>
      </trkpt>
      <trkpt lat="47.28494" lon="4.90854">
        <ele>429</ele>
        <time>2012-12-08T08:50:59Z</time>
      </trkpt>
      <trkpt lat="47.28488" lon="4.90855">
        <ele>429</ele>
        <time>2012-12-08T08:51:02Z</time>
      </trkpt>
      <trkpt lat="47.28483" lon="4.90854">
        <ele>429</ele>
        <time>2012-12-08T08:51:05Z</time>
      </trkpt>
      <trkpt lat="47.28478" lon="4.90849">
        <ele>431</ele>
        <time>2012-12-08T08:51:11Z</time>
      </trkpt>
      <trkpt lat="47.28473" lon="4.90844">
        <ele>429</ele>
        <time>2012-12-08T08:51:14Z</time>
      </trkpt>
      <trkpt lat="47.28468" lon="4.90843">
        <ele>429</ele>
        <time>2012-12-08T08:51:17Z</time>
      </trkpt>
      <trkpt lat="47.28463" lon="4.90842">
        <ele>430</ele>
        <time>2012-12-08T08:51:20Z</time>
      </trkpt>
      <trkpt lat="47.28457" lon="4.90842">
        <ele>431</ele>
        <time>2012-12-08T08:51:25Z</time>
      </trkpt>
      <trkpt lat="47.28451" lon="4.9084">
        <ele>431</ele>
        <time>2012-12-08T08:51:27Z</time>
      </trkpt>
      <trkpt lat="47.28446" lon="4.90838">
        <ele>429</ele>
        <time>2012-12-08T08:51:30Z</time>
      </trkpt>
      <trkpt lat="47.28442" lon="4.90834">
        <ele>429</ele>
        <time>2012-12-08T08:51:33Z</time>
      </trkpt>
      <trkpt lat="47.28437" lon="4.90832">
        <ele>430</ele>
        <time>2012-12-08T08:51:36Z</time>
      </trkpt>
      <trkpt lat="47.28432" lon="4.9083">
        <ele>430</ele>
        <time>2012-12-08T08:51:39Z</time>
      </trkpt>
      <trkpt lat="47.28426" lon="4.90826">
        <ele>430</ele>
        <time>2012-12-08T08:51:42Z</time>
      </trkpt>
      <trkpt lat="47.2842" lon="4.90823">
        <ele>431</ele>
        <time>2012-12-08T08:51:45Z</time>
      </trkpt>
      <trkpt lat="47.28414" lon="4.9082">
        <ele>432</ele>
        <time>2012-12-08T08:51:49Z</time>
      </trkpt>
      <trkpt lat="47.28407" lon="4.90818">
        <ele>434</ele>
        <time>2012-12-08T08:51:53Z</time>
      </trkpt>
      <trkpt lat="47.28402" lon="4.90815">
        <ele>434</ele>
        <time>2012-12-08T08:51:57Z</time>
      </trkpt>
      <trkpt lat="47.28396" lon="4.90814">
        <ele>434</ele>
        <time>2012-12-08T08:52:00Z</time>
      </trkpt>
      <trkpt lat="47.28391" lon="4.9081">
        <ele>435</ele>
        <time>2012-12-08T08:52:04Z</time>
      </trkpt>
      <trkpt lat="47.28384" lon="4.90807">
        <ele>435</ele>
        <time>2012-12-08T08:52:07Z</time>
      </trkpt>
      <trkpt lat="47.2838" lon="4.90804">
        <ele>435</ele>
        <time>2012-12-08T08:52:10Z</time>
      </trkpt>
      <trkpt lat="47.28374" lon="4.90801">
        <ele>436</ele>
        <time>2012-12-08T08:52:14Z</time>
      </trkpt>
      <trkpt lat="47.2837" lon="4.90799">
        <ele>437</ele>
        <time>2012-12-08T08:52:17Z</time>
      </trkpt>
      <trkpt lat="47.28364" lon="4.90795">
        <ele>437</ele>
        <time>2012-12-08T08:52:20Z</time>
      </trkpt>
      <trkpt lat="47.2836" lon="4.90791">
        <ele>435</ele>
        <time>2012-12-08T08:52:23Z</time>
      </trkpt>
      <trkpt lat="47.28354" lon="4.90788">
        <ele>434</ele>
        <time>2012-12-08T08:52:25Z</time>
      </trkpt>
      <trkpt lat="47.2835" lon="4.90786">
        <ele>433</ele>
        <time>2012-12-08T08:52:28Z</time>
      </trkpt>
      <trkpt lat="47.28346" lon="4.90781">
        <ele>432</ele>
        <time>2012-12-08T08:52:31Z</time>
      </trkpt>
      <trkpt lat="47.28341" lon="4.90779">
        <ele>431</ele>
        <time>2012-12-08T08:52:35Z</time>
      </trkpt>
      <trkpt lat="47.28336" lon="4.90773">
        <ele>431</ele>
        <time>2012-12-08T08:52:38Z</time>
      </trkpt>
      <trkpt lat="47.28331" lon="4.90767">
        <ele>430</ele>
        <time>2012-12-08T08:52:41Z</time>
      </trkpt>
      <trkpt lat="47.28325" lon="4.90765">
        <ele>431</ele>
        <time>2012-12-08T08:52:44Z</time>
      </trkpt>
      <trkpt lat="47.28319" lon="4.90761">
        <ele>431</ele>
        <time>2012-12-08T08:52:47Z</time>
      </trkpt>
      <trkpt lat="47.28313" lon="4.90758">
        <ele>429</ele>
        <time>2012-12-08T08:52:50Z</time>
      </trkpt>
      <trkpt lat="47.28309" lon="4.90753">
        <ele>428</ele>
        <time>2012-12-08T08:52:53Z</time>
      </trkpt>
      <trkpt lat="47.28304" lon="4.90749">
        <ele>427</ele>
        <time>2012-12-08T08:52:56Z</time>
      </trkpt>
      <trkpt lat="47.283" lon="4.90746">
        <ele>427</ele>
        <time>2012-12-08T08:52:59Z</time>
      </trkpt>
      <trkpt lat="47.28296" lon="4.9074">
        <ele>428</ele>
        <time>2012-12-08T08:53:02Z</time>
      </trkpt>
      <trkpt lat="47.28291" lon="4.90736">
        <ele>429</ele>
        <time>2012-12-08T08:53:06Z</time>
      </trkpt>
      <trkpt lat="47.28286" lon="4.90732">
        <ele>429</ele>
        <time>2012-12-08T08:53:09Z</time>
      </trkpt>
      <trkpt lat="47.28281" lon="4.90728">
        <ele>433</ele>
        <time>2012-12-08T08:53:13Z</time>
      </trkpt>
      <trkpt lat="47.28279" lon="4.90721">
        <ele>431</ele>
        <time>2012-12-08T08:53:16Z</time>
      </trkpt>
      <trkpt lat="47.28275" lon="4.90718">
        <ele>432</ele>
        <time>2012-12-08T08:53:18Z</time>
      </trkpt>
      <trkpt lat="47.28269" lon="4.90713">
        <ele>432</ele>
        <time>2012-12-08T08:53:22Z</time>
      </trkpt>
      <trkpt lat="47.28267" lon="4.90707">
        <ele>433</ele>
        <time>2012-12-08T08:53:25Z</time>
      </trkpt>
      <trkpt lat="47.28262" lon="4.90704">
        <ele>433</ele>
        <time>2012-12-08T08:53:27Z</time>
      </trkpt>
      <trkpt lat="47.28256" lon="4.90699">
        <ele>433</ele>
        <time>2012-12-08T08:53:30Z</time>
      </trkpt>
      <trkpt lat="47.28252" lon="4.90694">
        <ele>433</ele>
        <time>2012-12-08T08:53:33Z</time>
      </trkpt>
      <trkpt lat="47.28247" lon="4.9069">
        <ele>432</ele>
        <time>2012-12-08T08:53:37Z</time>
      </trkpt>
      <trkpt lat="47.28244" lon="4.90684">
        <ele>433</ele>
        <time>2012-12-08T08:53:40Z</time>
      </trkpt>
      <trkpt lat="47.28239" lon="4.90679">
        <ele>432</ele>
        <time>2012-12-08T08:53:44Z</time>
      </trkpt>
      <trkpt lat="47.28234" lon="4.90675">
        <ele>433</ele>
        <time>2012-12-08T08:53:47Z</time>
      </trkpt>
      <trkpt lat="47.28229" lon="4.9067">
        <ele>433</ele>
        <time>2012-12-08T08:53:50Z</time>
      </trkpt>
      <trkpt lat="47.28224" lon="4.90666">
        <ele>432</ele>
        <time>2012-12-08T08:53:54Z</time>
      </trkpt>
      <trkpt lat="47.2822" lon="4.9066">
        <ele>431</ele>
        <time>2012-12-08T08:53:57Z</time>
      </trkpt>
      <trkpt lat="47.28215" lon="4.90656">
        <ele>433</ele>
        <time>2012-12-08T08:53:59Z</time>
      </trkpt>
      <trkpt lat="47.2821" lon="4.90654">
        <ele>433</ele>
        <time>2012-12-08T08:54:02Z</time>
      </trkpt>
      <trkpt lat="47.28207" lon="4.90649">
        <ele>433</ele>
        <time>2012-12-08T08:54:05Z</time>
      </trkpt>
      <trkpt lat="47.28202" lon="4.90645">
        <ele>433</ele>
        <time>2012-12-08T08:54:08Z</time>
      </trkpt>
      <trkpt lat="47.28196" lon="4.90642">
        <ele>431</ele>
        <time>2012-12-08T08:54:11Z</time>
      </trkpt>
      <trkpt lat="47.28191" lon="4.90639">
        <ele>431</ele>
        <time>2012-12-08T08:54:28Z</time>
      </trkpt>
      <trkpt lat="47.28187" lon="4.90634">
        <ele>423</ele>
        <time>2012-12-08T08:54:36Z</time>
      </trkpt>
      <trkpt lat="47.28182" lon="4.90636">
        <ele>422</ele>
        <time>2012-12-08T08:54:46Z</time>
      </trkpt>
      <trkpt lat="47.28178" lon="4.90636">
        <ele>421</ele>
        <time>2012-12-08T08:54:48Z</time>
      </trkpt>
      <trkpt lat="47.28173" lon="4.90639">
        <ele>424</ele>
        <time>2012-12-08T08:54:54Z</time>
      </trkpt>
      <trkpt lat="47.28168" lon="4.90641">
        <ele>423</ele>
        <time>2012-12-08T08:55:01Z</time>
      </trkpt>
      <trkpt lat="47.28164" lon="4.90646">
        <ele>423</ele>
        <time>2012-12-08T08:55:09Z</time>
      </trkpt>
      <trkpt lat="47.28162" lon="4.90652">
        <ele>426</ele>
        <time>2012-12-08T08:55:17Z</time>
      </trkpt>
      <trkpt lat="47.28159" lon="4.90658">
        <ele>431</ele>
        <time>2012-12-08T08:55:24Z</time>
      </trkpt>
      <trkpt lat="47.28156" lon="4.90662">
        <ele>431</ele>
        <time>2012-12-08T08:55:33Z</time>
      </trkpt>
      <trkpt lat="47.28152" lon="4.90668">
        <ele>435</ele>
        <time>2012-12-08T08:55:41Z</time>
      </trkpt>
      <trkpt lat="47.2815" lon="4.90674">
        <ele>436</ele>
        <time>2012-12-08T08:55:46Z</time>
      </trkpt>
      <trkpt lat="47.28148" lon="4.90682">
        <ele>436</ele>
        <time>2012-12-08T08:55:59Z</time>
      </trkpt>
      <trkpt lat="47.28145" lon="4.90688">
        <ele>436</ele>
        <time>2012-12-08T08:56:07Z</time>
      </trkpt>
      <trkpt lat="47.28141" lon="4.90694">
        <ele>437</ele>
        <time>2012-12-08T08:56:13Z</time>
      </trkpt>
      <trkpt lat="47.28137" lon="4.90698">
        <ele>438</ele>
        <time>2012-12-08T08:56:17Z</time>
      </trkpt>
      <trkpt lat="47.28135" lon="4.90704">
        <ele>438</ele>
        <time>2012-12-08T08:56:22Z</time>
      </trkpt>
      <trkpt lat="47.28131" lon="4.90708">
        <ele>437</ele>
        <time>2012-12-08T08:56:28Z</time>
      </trkpt>
      <trkpt lat="47.28127" lon="4.90713">
        <ele>439</ele>
        <time>2012-12-08T08:56:39Z</time>
      </trkpt>
      <trkpt lat="47.28121" lon="4.90716">
        <ele>438</ele>
        <time>2012-12-08T08:56:42Z</time>
      </trkpt>
      <trkpt lat="47.28118" lon="4.90719">
        <ele>437</ele>
        <time>2012-12-08T08:56:54Z</time>
      </trkpt>
      <trkpt lat="47.28118" lon="4.90719">
        <ele>437</ele>
        <time>2012-12-08T08:56:54Z</time>
      </trkpt>
      <trkpt lat="47.28118" lon="4.90719">
        <ele>437</ele>
        <time>2012-12-08T08:56:55Z</time>
      </trkpt>
      <trkpt lat="47.28117" lon="4.90727">
        <ele>439</ele>
        <time>2012-12-08T08:57:06Z</time>
      </trkpt>
      <trkpt lat="47.28115" lon="4.90734">
        <ele>445</ele>
        <time>2012-12-08T08:57:17Z</time>
      </trkpt>
      <trkpt lat="47.28115" lon="4.90734">
        <ele>445</ele>
        <time>2012-12-08T08:57:17Z</time>
      </trkpt>
      <trkpt lat="47.28115" lon="4.90734">
        <ele>445</ele>
        <time>2012-12-08T08:57:18Z</time>
      </trkpt>
      <trkpt lat="47.28115" lon="4.90742">
        <ele>446</ele>
        <time>2012-12-08T08:57:27Z</time>
      </trkpt>
      <trkpt lat="47.28113" lon="4.90749">
        <ele>447</ele>
        <time>2012-12-08T08:57:33Z</time>
      </trkpt>
      <trkpt lat="47.28115" lon="4.90756">
        <ele>448</ele>
        <time>2012-12-08T08:57:36Z</time>
      </trkpt>
      <trkpt lat="47.28118" lon="4.90763">
        <ele>448</ele>
        <time>2012-12-08T08:57:41Z</time>
      </trkpt>
      <trkpt lat="47.2812" lon="4.9077">
        <ele>448</ele>
        <time>2012-12-08T08:57:44Z</time>
      </trkpt>
      <trkpt lat="47.28121" lon="4.90777">
        <ele>449</ele>
        <time>2012-12-08T08:57:48Z</time>
      </trkpt>
      <trkpt lat="47.28124" lon="4.90784">
        <ele>452</ele>
        <time>2012-12-08T08:57:53Z</time>
      </trkpt>
      <trkpt lat="47.28126" lon="4.90791">
        <ele>452</ele>
        <time>2012-12-08T08:57:58Z</time>
      </trkpt>
      <trkpt lat="47.28129" lon="4.908">
        <ele>453</ele>
        <time>2012-12-08T08:58:06Z</time>
      </trkpt>
      <trkpt lat="47.2813" lon="4.90807">
        <ele>450</ele>
        <time>2012-12-08T08:58:11Z</time>
      </trkpt>
      <trkpt lat="47.28133" lon="4.90814">
        <ele>451</ele>
        <time>2012-12-08T08:58:17Z</time>
      </trkpt>
      <trkpt lat="47.28135" lon="4.90821">
        <ele>453</ele>
        <time>2012-12-08T08:58:23Z</time>
      </trkpt>
      <trkpt lat="47.28137" lon="4.90829">
        <ele>454</ele>
        <time>2012-12-08T08:58:28Z</time>
      </trkpt>
      <trkpt lat="47.2814" lon="4.90834">
        <ele>453</ele>
        <time>2012-12-08T08:58:31Z</time>
      </trkpt>
      <trkpt lat="47.2814" lon="4.90842">
        <ele>453</ele>
        <time>2012-12-08T08:58:35Z</time>
      </trkpt>
      <trkpt lat="47.28144" lon="4.90846">
        <ele>455</ele>
        <time>2012-12-08T08:58:40Z</time>
      </trkpt>
      <trkpt lat="47.28144" lon="4.90846">
        <ele>455</ele>
        <time>2012-12-08T08:58:40Z</time>
      </trkpt>
      <trkpt lat="47.28144" lon="4.90846">
        <ele>455</ele>
        <time>2012-12-08T08:58:41Z</time>
      </trkpt>
      <trkpt lat="47.28145" lon="4.90853">
        <ele>456</ele>
        <time>2012-12-08T08:58:47Z</time>
      </trkpt>
      <trkpt lat="47.28145" lon="4.90853">
        <ele>456</ele>
        <time>2012-12-08T08:58:47Z</time>
      </trkpt>
      <trkpt lat="47.28145" lon="4.90853">
        <ele>456</ele>
        <time>2012-12-08T08:58:48Z</time>
      </trkpt>
      <trkpt lat="47.28148" lon="4.90859">
        <ele>457</ele>
        <time>2012-12-08T08:58:52Z</time>
      </trkpt>
      <trkpt lat="47.2815" lon="4.90865">
        <ele>457</ele>
        <time>2012-12-08T08:58:55Z</time>
      </trkpt>
      <trkpt lat="47.2815" lon="4.90876">
        <ele>459</ele>
        <time>2012-12-08T08:59:03Z</time>
      </trkpt>
      <trkpt lat="47.2815" lon="4.90883">
        <ele>461</ele>
        <time>2012-12-08T08:59:06Z</time>
      </trkpt>
      <trkpt lat="47.28146" lon="4.90888">
        <ele>462</ele>
        <time>2012-12-08T08:59:11Z</time>
      </trkpt>
      <trkpt lat="47.2814" lon="4.90889">
        <ele>463</ele>
        <time>2012-12-08T08:59:16Z</time>
      </trkpt>
      <trkpt lat="47.28135" lon="4.90887">
        <ele>470</ele>
        <time>2012-12-08T08:59:22Z</time>
      </trkpt>
      <trkpt lat="47.2813" lon="4.90886">
        <ele>471</ele>
        <time>2012-12-08T08:59:26Z</time>
      </trkpt>
      <trkpt lat="47.28124" lon="4.90884">
        <ele>474</ele>
        <time>2012-12-08T08:59:31Z</time>
      </trkpt>
      <trkpt lat="47.28119" lon="4.90882">
        <ele>477</ele>
        <time>2012-12-08T08:59:39Z</time>
      </trkpt>
      <trkpt lat="47.28113" lon="4.9088">
        <ele>477</ele>
        <time>2012-12-08T08:59:41Z</time>
      </trkpt>
      <trkpt lat="47.28108" lon="4.90877">
        <ele>477</ele>
        <time>2012-12-08T08:59:43Z</time>
      </trkpt>
      <trkpt lat="47.28102" lon="4.90874">
        <ele>477</ele>
        <time>2012-12-08T08:59:47Z</time>
      </trkpt>
      <trkpt lat="47.28097" lon="4.90873">
        <ele>477</ele>
        <time>2012-12-08T08:59:52Z</time>
      </trkpt>
      <trkpt lat="47.28092" lon="4.9087">
        <ele>475</ele>
        <time>2012-12-08T08:59:56Z</time>
      </trkpt>
      <trkpt lat="47.28088" lon="4.90866">
        <ele>475</ele>
        <time>2012-12-08T09:00:01Z</time>
      </trkpt>
      <trkpt lat="47.28082" lon="4.90864">
        <ele>473</ele>
        <time>2012-12-08T09:00:06Z</time>
      </trkpt>
      <trkpt lat="47.28077" lon="4.90862">
        <ele>473</ele>
        <time>2012-12-08T09:00:09Z</time>
      </trkpt>
      <trkpt lat="47.28073" lon="4.9086">
        <ele>473</ele>
        <time>2012-12-08T09:00:11Z</time>
      </trkpt>
      <trkpt lat="47.28068" lon="4.90856">
        <ele>472</ele>
        <time>2012-12-08T09:00:15Z</time>
      </trkpt>
      <trkpt lat="47.28063" lon="4.90854">
        <ele>471</ele>
        <time>2012-12-08T09:00:17Z</time>
      </trkpt>
      <trkpt lat="47.28058" lon="4.90852">
        <ele>470</ele>
        <time>2012-12-08T09:00:21Z</time>
      </trkpt>
      <trkpt lat="47.28054" lon="4.9085">
        <ele>469</ele>
        <time>2012-12-08T09:00:24Z</time>
      </trkpt>
      <trkpt lat="47.28048" lon="4.90846">
        <ele>470</ele>
        <time>2012-12-08T09:00:27Z</time>
      </trkpt>
      <trkpt lat="47.28044" lon="4.90842">
        <ele>473</ele>
        <time>2012-12-08T09:00:32Z</time>
      </trkpt>
      <trkpt lat="47.28039" lon="4.90839">
        <ele>473</ele>
        <time>2012-12-08T09:00:34Z</time>
      </trkpt>
      <trkpt lat="47.28034" lon="4.90837">
        <ele>472</ele>
        <time>2012-12-08T09:00:37Z</time>
      </trkpt>
      <trkpt lat="47.2803" lon="4.90833">
        <ele>474</ele>
        <time>2012-12-08T09:00:41Z</time>
      </trkpt>
      <trkpt lat="47.28024" lon="4.90827">
        <ele>474</ele>
        <time>2012-12-08T09:00:45Z</time>
      </trkpt>
      <trkpt lat="47.28019" lon="4.90824">
        <ele>475</ele>
        <time>2012-12-08T09:00:48Z</time>
      </trkpt>
      <trkpt lat="47.28014" lon="4.9082">
        <ele>476</ele>
        <time>2012-12-08T09:00:52Z</time>
      </trkpt>
      <trkpt lat="47.2801" lon="4.90817">
        <ele>476</ele>
        <time>2012-12-08T09:00:55Z</time>
      </trkpt>
      <trkpt lat="47.28006" lon="4.90812">
        <ele>475</ele>
        <time>2012-12-08T09:00:58Z</time>
      </trkpt>
      <trkpt lat="47.28003" lon="4.90807">
        <ele>474</ele>
        <time>2012-12-08T09:01:02Z</time>
      </trkpt>
      <trkpt lat="47.27998" lon="4.90802">
        <ele>471</ele>
        <time>2012-12-08T09:01:08Z</time>
      </trkpt>
      <trkpt lat="47.27994" lon="4.90803">
        <ele>470</ele>
        <time>2012-12-08T09:01:13Z</time>
      </trkpt>
      <trkpt lat="47.27992" lon="4.9081">
        <ele>471</ele>
        <time>2012-12-08T09:01:18Z</time>
      </trkpt>
      <trkpt lat="47.27987" lon="4.90814">
        <ele>471</ele>
        <time>2012-12-08T09:01:22Z</time>
      </trkpt>
      <trkpt lat="47.27986" lon="4.90821">
        <ele>474</ele>
        <time>2012-12-08T09:01:30Z</time>
      </trkpt>
      <trkpt lat="47.27982" lon="4.90828">
        <ele>474</ele>
        <time>2012-12-08T09:01:34Z</time>
      </trkpt>
      <trkpt lat="47.27981" lon="4.90834">
        <ele>475</ele>
        <time>2012-12-08T09:01:40Z</time>
      </trkpt>
      <trkpt lat="47.27981" lon="4.90842">
        <ele>478</ele>
        <time>2012-12-08T09:01:49Z</time>
      </trkpt>
      <trkpt lat="47.27978" lon="4.90848">
        <ele>478</ele>
        <time>2012-12-08T09:01:54Z</time>
      </trkpt>
      <trkpt lat="47.27974" lon="4.90853">
        <ele>479</ele>
        <time>2012-12-08T09:01:59Z</time>
      </trkpt>
      <trkpt lat="47.27972" lon="4.90861">
        <ele>480</ele>
        <time>2012-12-08T09:02:06Z</time>
      </trkpt>
      <trkpt lat="47.2797" lon="4.90868">
        <ele>483</ele>
        <time>2012-12-08T09:02:13Z</time>
      </trkpt>
      <trkpt lat="47.2797" lon="4.90868">
        <ele>483</ele>
        <time>2012-12-08T09:02:13Z</time>
      </trkpt>
      <trkpt lat="47.2797" lon="4.90868">
        <ele>484</ele>
        <time>2012-12-08T09:02:16Z</time>
      </trkpt>
      <trkpt lat="47.27966" lon="4.90872">
        <ele>485</ele>
        <time>2012-12-08T09:02:20Z</time>
      </trkpt>
      <trkpt lat="47.27965" lon="4.90879">
        <ele>486</ele>
        <time>2012-12-08T09:02:26Z</time>
      </trkpt>
      <trkpt lat="47.27964" lon="4.90886">
        <ele>489</ele>
        <time>2012-12-08T09:02:33Z</time>
      </trkpt>
      <trkpt lat="47.2796" lon="4.90891">
        <ele>489</ele>
        <time>2012-12-08T09:02:37Z</time>
      </trkpt>
      <trkpt lat="47.27957" lon="4.90896">
        <ele>489</ele>
        <time>2012-12-08T09:02:41Z</time>
      </trkpt>
      <trkpt lat="47.27955" lon="4.90902">
        <ele>492</ele>
        <time>2012-12-08T09:02:46Z</time>
      </trkpt>
      <trkpt lat="47.27953" lon="4.90909">
        <ele>495</ele>
        <time>2012-12-08T09:02:52Z</time>
      </trkpt>
      <trkpt lat="47.2795" lon="4.90917">
        <ele>496</ele>
        <time>2012-12-08T09:03:00Z</time>
      </trkpt>
      <trkpt lat="47.2795" lon="4.90925">
        <ele>495</ele>
        <time>2012-12-08T09:03:05Z</time>
      </trkpt>
      <trkpt lat="47.27947" lon="4.90931">
        <ele>496</ele>
        <time>2012-12-08T09:03:10Z</time>
      </trkpt>
      <trkpt lat="47.27945" lon="4.90938">
        <ele>497</ele>
        <time>2012-12-08T09:03:16Z</time>
      </trkpt>
      <trkpt lat="47.27942" lon="4.90944">
        <ele>499</ele>
        <time>2012-12-08T09:03:23Z</time>
      </trkpt>
      <trkpt lat="47.27938" lon="4.90949">
        <ele>499</ele>
        <time>2012-12-08T09:03:28Z</time>
      </trkpt>
      <trkpt lat="47.27936" lon="4.90956">
        <ele>499</ele>
        <time>2012-12-08T09:03:33Z</time>
      </trkpt>
      <trkpt lat="47.27935" lon="4.90963">
        <ele>500</ele>
        <time>2012-12-08T09:03:37Z</time>
      </trkpt>
      <trkpt lat="47.27933" lon="4.90969">
        <ele>501</ele>
        <time>2012-12-08T09:03:43Z</time>
      </trkpt>
      <trkpt lat="47.2793" lon="4.90974">
        <ele>503</ele>
        <time>2012-12-08T09:03:51Z</time>
      </trkpt>
      <trkpt lat="47.2793" lon="4.90982">
        <ele>503</ele>
        <time>2012-12-08T09:03:56Z</time>
      </trkpt>
      <trkpt lat="47.27932" lon="4.90991">
        <ele>504</ele>
        <time>2012-12-08T09:04:00Z</time>
      </trkpt>
      <trkpt lat="47.27928" lon="4.90996">
        <ele>503</ele>
        <time>2012-12-08T09:04:04Z</time>
      </trkpt>
      <trkpt lat="47.27924" lon="4.90999">
        <ele>503</ele>
        <time>2012-12-08T09:04:08Z</time>
      </trkpt>
      <trkpt lat="47.27923" lon="4.91005">
        <ele>503</ele>
        <time>2012-12-08T09:04:17Z</time>
      </trkpt>
      <trkpt lat="47.27925" lon="4.91013">
        <ele>503</ele>
        <time>2012-12-08T09:04:22Z</time>
      </trkpt>
      <trkpt lat="47.27928" lon="4.91019">
        <ele>503</ele>
        <time>2012-12-08T09:04:26Z</time>
      </trkpt>
      <trkpt lat="47.2793" lon="4.91025">
        <ele>504</ele>
        <time>2012-12-08T09:04:32Z</time>
      </trkpt>
      <trkpt lat="47.27935" lon="4.91029">
        <ele>505</ele>
        <time>2012-12-08T09:04:43Z</time>
      </trkpt>
      <trkpt lat="47.2794" lon="4.91031">
        <ele>505</ele>
        <time>2012-12-08T09:04:47Z</time>
      </trkpt>
      <trkpt lat="47.27947" lon="4.91034">
        <ele>505</ele>
        <time>2012-12-08T09:04:52Z</time>
      </trkpt>
      <trkpt lat="47.27953" lon="4.91037">
        <ele>503</ele>
        <time>2012-12-08T09:04:56Z</time>
      </trkpt>
      <trkpt lat="47.27958" lon="4.9104">
        <ele>503</ele>
        <time>2012-12-08T09:04:59Z</time>
      </trkpt>
      <trkpt lat="47.27963" lon="4.91042">
        <ele>503</ele>
        <time>2012-12-08T09:05:03Z</time>
      </trkpt>
      <trkpt lat="47.27968" lon="4.91044">
        <ele>500</ele>
        <time>2012-12-08T09:05:07Z</time>
      </trkpt>
      <trkpt lat="47.27973" lon="4.91045">
        <ele>499</ele>
        <time>2012-12-08T09:05:10Z</time>
      </trkpt>
      <trkpt lat="47.27978" lon="4.91048">
        <ele>498</ele>
        <time>2012-12-08T09:05:14Z</time>
      </trkpt>
      <trkpt lat="47.27982" lon="4.9105">
        <ele>498</ele>
        <time>2012-12-08T09:05:17Z</time>
      </trkpt>
      <trkpt lat="47.27988" lon="4.91052">
        <ele>498</ele>
        <time>2012-12-08T09:05:21Z</time>
      </trkpt>
      <trkpt lat="47.27992" lon="4.91054">
        <ele>496</ele>
        <time>2012-12-08T09:05:24Z</time>
      </trkpt>
      <trkpt lat="47.27997" lon="4.91056">
        <ele>496</ele>
        <time>2012-12-08T09:05:28Z</time>
      </trkpt>
      <trkpt lat="47.28003" lon="4.91058">
        <ele>495</ele>
        <time>2012-12-08T09:05:32Z</time>
      </trkpt>
      <trkpt lat="47.28008" lon="4.91059">
        <ele>496</ele>
        <time>2012-12-08T09:05:36Z</time>
      </trkpt>
      <trkpt lat="47.28014" lon="4.91061">
        <ele>497</ele>
        <time>2012-12-08T09:05:40Z</time>
      </trkpt>
      <trkpt lat="47.28018" lon="4.91062">
        <ele>499</ele>
        <time>2012-12-08T09:05:44Z</time>
      </trkpt>
      <trkpt lat="47.28023" lon="4.91063">
        <ele>498</ele>
        <time>2012-12-08T09:05:47Z</time>
      </trkpt>
      <trkpt lat="47.28028" lon="4.91065">
        <ele>500</ele>
        <time>2012-12-08T09:05:51Z</time>
      </trkpt>
      <trkpt lat="47.28033" lon="4.91067">
        <ele>501</ele>
        <time>2012-12-08T09:05:54Z</time>
      </trkpt>
      <trkpt lat="47.28038" lon="4.9107">
        <ele>500</ele>
        <time>2012-12-08T09:05:57Z</time>
      </trkpt>
      <trkpt lat="47.28043" lon="4.91072">
        <ele>499</ele>
        <time>2012-12-08T09:06:01Z</time>
      </trkpt>
      <trkpt lat="47.28048" lon="4.91074">
        <ele>499</ele>
        <time>2012-12-08T09:06:04Z</time>
      </trkpt>
      <trkpt lat="47.28052" lon="4.91076">
        <ele>498</ele>
        <time>2012-12-08T09:06:07Z</time>
      </trkpt>
      <trkpt lat="47.28058" lon="4.91079">
        <ele>497</ele>
        <time>2012-12-08T09:06:11Z</time>
      </trkpt>
      <trkpt lat="47.28062" lon="4.91082">
        <ele>497</ele>
        <time>2012-12-08T09:06:14Z</time>
      </trkpt>
      <trkpt lat="47.28067" lon="4.91085">
        <ele>498</ele>
        <time>2012-12-08T09:06:17Z</time>
      </trkpt>
      <trkpt lat="47.28072" lon="4.91087">
        <ele>498</ele>
        <time>2012-12-08T09:06:21Z</time>
      </trkpt>
      <trkpt lat="47.28078" lon="4.9109">
        <ele>500</ele>
        <time>2012-12-08T09:06:25Z</time>
      </trkpt>
      <trkpt lat="47.28083" lon="4.91093">
        <ele>501</ele>
        <time>2012-12-08T09:06:29Z</time>
      </trkpt>
      <trkpt lat="47.28089" lon="4.91095">
        <ele>502</ele>
        <time>2012-12-08T09:06:33Z</time>
      </trkpt>
      <trkpt lat="47.28093" lon="4.91098">
        <ele>503</ele>
        <time>2012-12-08T09:06:36Z</time>
      </trkpt>
      <trkpt lat="47.28099" lon="4.91102">
        <ele>503</ele>
        <time>2012-12-08T09:06:40Z</time>
      </trkpt>
      <trkpt lat="47.28104" lon="4.91106">
        <ele>502</ele>
        <time>2012-12-08T09:06:44Z</time>
      </trkpt>
      <trkpt lat="47.28107" lon="4.91113">
        <ele>502</ele>
        <time>2012-12-08T09:06:48Z</time>
      </trkpt>
      <trkpt lat="47.28111" lon="4.91118">
        <ele>505</ele>
        <time>2012-12-08T09:06:53Z</time>
      </trkpt>
      <trkpt lat="47.28113" lon="4.91125">
        <ele>505</ele>
        <time>2012-12-08T09:06:57Z</time>
      </trkpt>
      <trkpt lat="47.28115" lon="4.91132">
        <ele>506</ele>
        <time>2012-12-08T09:07:01Z</time>
      </trkpt>
      <trkpt lat="47.28118" lon="4.91139">
        <ele>507</ele>
        <time>2012-12-08T09:07:05Z</time>
      </trkpt>
      <trkpt lat="47.28119" lon="4.91145">
        <ele>508</ele>
        <time>2012-12-08T09:07:09Z</time>
      </trkpt>
      <trkpt lat="47.28121" lon="4.91152">
        <ele>508</ele>
        <time>2012-12-08T09:07:12Z</time>
      </trkpt>
      <trkpt lat="47.28122" lon="4.9116">
        <ele>508</ele>
        <time>2012-12-08T09:07:16Z</time>
      </trkpt>
      <trkpt lat="47.2812" lon="4.91166">
        <ele>509</ele>
        <time>2012-12-08T09:07:21Z</time>
      </trkpt>
      <trkpt lat="47.28121" lon="4.91173">
        <ele>509</ele>
        <time>2012-12-08T09:07:25Z</time>
      </trkpt>
      <trkpt lat="47.28122" lon="4.9118">
        <ele>508</ele>
        <time>2012-12-08T09:07:29Z</time>
      </trkpt>
      <trkpt lat="47.28119" lon="4.91188">
        <ele>509</ele>
        <time>2012-12-08T09:07:34Z</time>
      </trkpt>
      <trkpt lat="47.28119" lon="4.91194">
        <ele>510</ele>
        <time>2012-12-08T09:07:38Z</time>
      </trkpt>
      <trkpt lat="47.28118" lon="4.91201">
        <ele>510</ele>
        <time>2012-12-08T09:07:42Z</time>
      </trkpt>
      <trkpt lat="47.28116" lon="4.91207">
        <ele>511</ele>
        <time>2012-12-08T09:07:45Z</time>
      </trkpt>
      <trkpt lat="47.28116" lon="4.91215">
        <ele>511</ele>
        <time>2012-12-08T09:07:49Z</time>
      </trkpt>
      <trkpt lat="47.28113" lon="4.91222">
        <ele>511</ele>
        <time>2012-12-08T09:07:54Z</time>
      </trkpt>
      <trkpt lat="47.28112" lon="4.91228">
        <ele>511</ele>
        <time>2012-12-08T09:07:59Z</time>
      </trkpt>
      <trkpt lat="47.28109" lon="4.91235">
        <ele>510</ele>
        <time>2012-12-08T09:08:04Z</time>
      </trkpt>
      <trkpt lat="47.28108" lon="4.91243">
        <ele>511</ele>
        <time>2012-12-08T09:08:09Z</time>
      </trkpt>
      <trkpt lat="47.28109" lon="4.9125">
        <ele>511</ele>
        <time>2012-12-08T09:08:11Z</time>
      </trkpt>
      <trkpt lat="47.28108" lon="4.91257">
        <ele>512</ele>
        <time>2012-12-08T09:08:15Z</time>
      </trkpt>
      <trkpt lat="47.2811" lon="4.91263">
        <ele>512</ele>
        <time>2012-12-08T09:08:18Z</time>
      </trkpt>
      <trkpt lat="47.2811" lon="4.91271">
        <ele>512</ele>
        <time>2012-12-08T09:08:21Z</time>
      </trkpt>
      <trkpt lat="47.28109" lon="4.91278">
        <ele>512</ele>
        <time>2012-12-08T09:08:26Z</time>
      </trkpt>
      <trkpt lat="47.28106" lon="4.91284">
        <ele>512</ele>
        <time>2012-12-08T09:08:31Z</time>
      </trkpt>
      <trkpt lat="47.28107" lon="4.91291">
        <ele>512</ele>
        <time>2012-12-08T09:08:35Z</time>
      </trkpt>
      <trkpt lat="47.28107" lon="4.91299">
        <ele>513</ele>
        <time>2012-12-08T09:08:40Z</time>
      </trkpt>
      <trkpt lat="47.28108" lon="4.91306">
        <ele>514</ele>
        <time>2012-12-08T09:08:45Z</time>
      </trkpt>
      <trkpt lat="47.28107" lon="4.91314">
        <ele>514</ele>
        <time>2012-12-08T09:08:52Z</time>
      </trkpt>
      <trkpt lat="47.28107" lon="4.91321">
        <ele>514</ele>
        <time>2012-12-08T09:08:55Z</time>
      </trkpt>
      <trkpt lat="47.28108" lon="4.91331">
        <ele>514</ele>
        <time>2012-12-08T09:08:58Z</time>
      </trkpt>
      <trkpt lat="47.28111" lon="4.9134">
        <ele>513</ele>
        <time>2012-12-08T09:09:02Z</time>
      </trkpt>
      <trkpt lat="47.28111" lon="4.91347">
        <ele>514</ele>
        <time>2012-12-08T09:09:05Z</time>
      </trkpt>
      <trkpt lat="47.28113" lon="4.91354">
        <ele>514</ele>
        <time>2012-12-08T09:09:09Z</time>
      </trkpt>
      <trkpt lat="47.28115" lon="4.91361">
        <ele>512</ele>
        <time>2012-12-08T09:09:14Z</time>
      </trkpt>
      <trkpt lat="47.28116" lon="4.91369">
        <ele>511</ele>
        <time>2012-12-08T09:09:17Z</time>
      </trkpt>
      <trkpt lat="47.28118" lon="4.91378">
        <ele>510</ele>
        <time>2012-12-08T09:09:21Z</time>
      </trkpt>
      <trkpt lat="47.28121" lon="4.91384">
        <ele>510</ele>
        <time>2012-12-08T09:09:23Z</time>
      </trkpt>
      <trkpt lat="47.28124" lon="4.91391">
        <ele>510</ele>
        <time>2012-12-08T09:09:26Z</time>
      </trkpt>
      <trkpt lat="47.28127" lon="4.91398">
        <ele>510</ele>
        <time>2012-12-08T09:09:29Z</time>
      </trkpt>
      <trkpt lat="47.28127" lon="4.91405">
        <ele>509</ele>
        <time>2012-12-08T09:09:33Z</time>
      </trkpt>
      <trkpt lat="47.2813" lon="4.91411">
        <ele>511</ele>
        <time>2012-12-08T09:09:37Z</time>
      </trkpt>
      <trkpt lat="47.28132" lon="4.91417">
        <ele>513</ele>
        <time>2012-12-08T09:09:45Z</time>
      </trkpt>
      <trkpt lat="47.28132" lon="4.91417">
        <ele>513</ele>
        <time>2012-12-08T09:09:45Z</time>
      </trkpt>
      <trkpt lat="47.28132" lon="4.91417">
        <ele>513</ele>
        <time>2012-12-08T09:09:46Z</time>
      </trkpt>
      <trkpt lat="47.28132" lon="4.91426">
        <ele>514</ele>
        <time>2012-12-08T09:09:50Z</time>
      </trkpt>
      <trkpt lat="47.28133" lon="4.91432">
        <ele>517</ele>
        <time>2012-12-08T09:09:58Z</time>
      </trkpt>
      <trkpt lat="47.28134" lon="4.91439">
        <ele>520</ele>
        <time>2012-12-08T09:10:03Z</time>
      </trkpt>
      <trkpt lat="47.28133" lon="4.91446">
        <ele>524</ele>
        <time>2012-12-08T09:10:09Z</time>
      </trkpt>
      <trkpt lat="47.28135" lon="4.91454">
        <ele>525</ele>
        <time>2012-12-08T09:10:13Z</time>
      </trkpt>
      <trkpt lat="47.28136" lon="4.91461">
        <ele>526</ele>
        <time>2012-12-08T09:10:17Z</time>
      </trkpt>
      <trkpt lat="47.28139" lon="4.91466">
        <ele>527</ele>
        <time>2012-12-08T09:10:25Z</time>
      </trkpt>
      <trkpt lat="47.28139" lon="4.91466">
        <ele>527</ele>
        <time>2012-12-08T09:10:25Z</time>
      </trkpt>
      <trkpt lat="47.28139" lon="4.91466">
        <ele>527</ele>
        <time>2012-12-08T09:10:26Z</time>
      </trkpt>
      <trkpt lat="47.28142" lon="4.91471">
        <ele>527</ele>
        <time>2012-12-08T09:10:29Z</time>
      </trkpt>
      <trkpt lat="47.28148" lon="4.91475">
        <ele>528</ele>
        <time>2012-12-08T09:10:34Z</time>
      </trkpt>
      <trkpt lat="47.28152" lon="4.91477">
        <ele>528</ele>
        <time>2012-12-08T09:10:40Z</time>
      </trkpt>
      <trkpt lat="47.28158" lon="4.91472">
        <ele>528</ele>
        <time>2012-12-08T09:10:49Z</time>
      </trkpt>
      <trkpt lat="47.28163" lon="4.91472">
        <ele>528</ele>
        <time>2012-12-08T09:10:56Z</time>
      </trkpt>
      <trkpt lat="47.28166" lon="4.91476">
        <ele>524</ele>
        <time>2012-12-08T09:11:02Z</time>
      </trkpt>
      <trkpt lat="47.2817" lon="4.91481">
        <ele>524</ele>
        <time>2012-12-08T09:11:06Z</time>
      </trkpt>
      <trkpt lat="47.28172" lon="4.91487">
        <ele>523</ele>
        <time>2012-12-08T09:11:11Z</time>
      </trkpt>
      <trkpt lat="47.2817" lon="4.91494">
        <ele>523</ele>
        <time>2012-12-08T09:11:16Z</time>
      </trkpt>
      <trkpt lat="47.28172" lon="4.91501">
        <ele>523</ele>
        <time>2012-12-08T09:11:20Z</time>
      </trkpt>
      <trkpt lat="47.2817" lon="4.91507">
        <ele>523</ele>
        <time>2012-12-08T09:11:30Z</time>
      </trkpt>
      <trkpt lat="47.28176" lon="4.91515">
        <ele>524</ele>
        <time>2012-12-08T09:11:32Z</time>
      </trkpt>
      <trkpt lat="47.28178" lon="4.91521">
        <ele>526</ele>
        <time>2012-12-08T09:11:38Z</time>
      </trkpt>
      <trkpt lat="47.28177" lon="4.91528">
        <ele>527</ele>
        <time>2012-12-08T09:11:47Z</time>
      </trkpt>
      <trkpt lat="47.28178" lon="4.91536">
        <ele>529</ele>
        <time>2012-12-08T09:11:55Z</time>
      </trkpt>
      <trkpt lat="47.28176" lon="4.91542">
        <ele>530</ele>
        <time>2012-12-08T09:12:02Z</time>
      </trkpt>
      <trkpt lat="47.28172" lon="4.91548">
        <ele>531</ele>
        <time>2012-12-08T09:12:07Z</time>
      </trkpt>
      <trkpt lat="47.28167" lon="4.91551">
        <ele>531</ele>
        <time>2012-12-08T09:12:12Z</time>
      </trkpt>
      <trkpt lat="47.28165" lon="4.91557">
        <ele>532</ele>
        <time>2012-12-08T09:12:17Z</time>
      </trkpt>
      <trkpt lat="47.28162" lon="4.91561">
        <ele>533</ele>
        <time>2012-12-08T09:12:22Z</time>
      </trkpt>
      <trkpt lat="47.2816" lon="4.91568">
        <ele>536</ele>
        <time>2012-12-08T09:12:28Z</time>
      </trkpt>
      <trkpt lat="47.28157" lon="4.91572">
        <ele>536</ele>
        <time>2012-12-08T09:12:32Z</time>
      </trkpt>
      <trkpt lat="47.28152" lon="4.91576">
        <ele>536</ele>
        <time>2012-12-08T09:12:36Z</time>
      </trkpt>
      <trkpt lat="47.28148" lon="4.91578">
        <ele>535</ele>
        <time>2012-12-08T09:12:40Z</time>
      </trkpt>
      <trkpt lat="47.28144" lon="4.91583">
        <ele>534</ele>
        <time>2012-12-08T09:12:44Z</time>
      </trkpt>
      <trkpt lat="47.28146" lon="4.91589">
        <ele>534</ele>
        <time>2012-12-08T09:12:49Z</time>
      </trkpt>
      <trkpt lat="47.28146" lon="4.91596">
        <ele>535</ele>
        <time>2012-12-08T09:12:53Z</time>
      </trkpt>
      <trkpt lat="47.28142" lon="4.916">
        <ele>536</ele>
        <time>2012-12-08T09:12:57Z</time>
      </trkpt>
      <trkpt lat="47.28137" lon="4.91602">
        <ele>535</ele>
        <time>2012-12-08T09:13:01Z</time>
      </trkpt>
      <trkpt lat="47.28133" lon="4.91605">
        <ele>535</ele>
        <time>2012-12-08T09:13:06Z</time>
      </trkpt>
      <trkpt lat="47.28127" lon="4.91606">
        <ele>536</ele>
        <time>2012-12-08T09:13:10Z</time>
      </trkpt>
      <trkpt lat="47.28122" lon="4.91609">
        <ele>536</ele>
        <time>2012-12-08T09:13:15Z</time>
      </trkpt>
      <trkpt lat="47.28117" lon="4.9161">
        <ele>536</ele>
        <time>2012-12-08T09:13:19Z</time>
      </trkpt>
      <trkpt lat="47.28112" lon="4.9161">
        <ele>537</ele>
        <time>2012-12-08T09:13:24Z</time>
      </trkpt>
      <trkpt lat="47.28108" lon="4.91612">
        <ele>540</ele>
        <time>2012-12-08T09:13:30Z</time>
      </trkpt>
      <trkpt lat="47.28103" lon="4.91615">
        <ele>542</ele>
        <time>2012-12-08T09:13:36Z</time>
      </trkpt>
      <trkpt lat="47.28099" lon="4.91619">
        <ele>542</ele>
        <time>2012-12-08T09:13:42Z</time>
      </trkpt>
      <trkpt lat="47.28094" lon="4.91622">
        <ele>544</ele>
        <time>2012-12-08T09:13:47Z</time>
      </trkpt>
      <trkpt lat="47.2809" lon="4.91622">
        <ele>545</ele>
        <time>2012-12-08T09:13:51Z</time>
      </trkpt>
      <trkpt lat="47.28085" lon="4.91623">
        <ele>545</ele>
        <time>2012-12-08T09:13:55Z</time>
      </trkpt>
      <trkpt lat="47.2808" lon="4.91622">
        <ele>547</ele>
        <time>2012-12-08T09:14:00Z</time>
      </trkpt>
      <trkpt lat="47.28075" lon="4.9162">
        <ele>548</ele>
        <time>2012-12-08T09:14:05Z</time>
      </trkpt>
      <trkpt lat="47.2807" lon="4.91618">
        <ele>549</ele>
        <time>2012-12-08T09:14:10Z</time>
      </trkpt>
      <trkpt lat="47.28066" lon="4.91617">
        <ele>548</ele>
        <time>2012-12-08T09:14:14Z</time>
      </trkpt>
      <trkpt lat="47.28061" lon="4.91616">
        <ele>549</ele>
        <time>2012-12-08T09:14:19Z</time>
      </trkpt>
      <trkpt lat="47.28055" lon="4.91614">
        <ele>550</ele>
        <time>2012-12-08T09:14:25Z</time>
      </trkpt>
      <trkpt lat="47.28051" lon="4.9161">
        <ele>549</ele>
        <time>2012-12-08T09:14:29Z</time>
      </trkpt>
      <trkpt lat="47.28046" lon="4.91608">
        <ele>550</ele>
        <time>2012-12-08T09:14:31Z</time>
      </trkpt>
      <trkpt lat="47.2804" lon="4.9161">
        <ele>551</ele>
        <time>2012-12-08T09:14:37Z</time>
      </trkpt>
      <trkpt lat="47.28035" lon="4.91608">
        <ele>551</ele>
        <time>2012-12-08T09:14:41Z</time>
      </trkpt>
      <trkpt lat="47.2803" lon="4.91607">
        <ele>549</ele>
        <time>2012-12-08T09:14:47Z</time>
      </trkpt>
      <trkpt lat="47.28028" lon="4.91614">
        <ele>550</ele>
        <time>2012-12-08T09:14:52Z</time>
      </trkpt>
      <trkpt lat="47.28025" lon="4.9162">
        <ele>552</ele>
        <time>2012-12-08T09:14:56Z</time>
      </trkpt>
      <trkpt lat="47.28022" lon="4.91624">
        <ele>553</ele>
        <time>2012-12-08T09:15:00Z</time>
      </trkpt>
      <trkpt lat="47.28018" lon="4.91628">
        <ele>554</ele>
        <time>2012-12-08T09:15:04Z</time>
      </trkpt>
      <trkpt lat="47.28014" lon="4.91634">
        <ele>554</ele>
        <time>2012-12-08T09:15:09Z</time>
      </trkpt>
      <trkpt lat="47.2801" lon="4.91638">
        <ele>555</ele>
        <time>2012-12-08T09:15:13Z</time>
      </trkpt>
      <trkpt lat="47.28005" lon="4.91641">
        <ele>556</ele>
        <time>2012-12-08T09:15:17Z</time>
      </trkpt>
      <trkpt lat="47.28001" lon="4.91646">
        <ele>556</ele>
        <time>2012-12-08T09:15:22Z</time>
      </trkpt>
      <trkpt lat="47.27997" lon="4.91649">
        <ele>557</ele>
        <time>2012-12-08T09:15:26Z</time>
      </trkpt>
      <trkpt lat="47.27992" lon="4.91652">
        <ele>557</ele>
        <time>2012-12-08T09:15:30Z</time>
      </trkpt>
      <trkpt lat="47.27995" lon="4.91658">
        <ele>558</ele>
        <time>2012-12-08T09:15:39Z</time>
      </trkpt>
      <trkpt lat="47.27998" lon="4.91664">
        <ele>558</ele>
        <time>2012-12-08T09:15:43Z</time>
      </trkpt>
      <trkpt lat="47.28002" lon="4.91669">
        <ele>559</ele>
        <time>2012-12-08T09:15:47Z</time>
      </trkpt>
      <trkpt lat="47.28006" lon="4.91674">
        <ele>559</ele>
        <time>2012-12-08T09:15:51Z</time>
      </trkpt>
      <trkpt lat="47.2801" lon="4.91679">
        <ele>559</ele>
        <time>2012-12-08T09:15:55Z</time>
      </trkpt>
      <trkpt lat="47.28013" lon="4.91685">
        <ele>560</ele>
        <time>2012-12-08T09:16:00Z</time>
      </trkpt>
      <trkpt lat="47.28016" lon="4.9169">
        <ele>560</ele>
        <time>2012-12-08T09:16:04Z</time>
      </trkpt>
      <trkpt lat="47.28018" lon="4.91696">
        <ele>561</ele>
        <time>2012-12-08T09:16:08Z</time>
      </trkpt>
      <trkpt lat="47.28021" lon="4.91701">
        <ele>562</ele>
        <time>2012-12-08T09:16:12Z</time>
      </trkpt>
      <trkpt lat="47.28023" lon="4.91707">
        <ele>562</ele>
        <time>2012-12-08T09:16:16Z</time>
      </trkpt>
      <trkpt lat="47.28025" lon="4.91714">
        <ele>562</ele>
        <time>2012-12-08T09:16:20Z</time>
      </trkpt>
      <trkpt lat="47.28028" lon="4.91721">
        <ele>564</ele>
        <time>2012-12-08T09:16:24Z</time>
      </trkpt>
      <trkpt lat="47.28031" lon="4.91727">
        <ele>565</ele>
        <time>2012-12-08T09:16:28Z</time>
      </trkpt>
      <trkpt lat="47.28034" lon="4.91732">
        <ele>565</ele>
        <time>2012-12-08T09:16:33Z</time>
      </trkpt>
      <trkpt lat="47.28037" lon="4.91737">
        <ele>567</ele>
        <time>2012-12-08T09:16:43Z</time>
      </trkpt>
      <trkpt lat="47.28041" lon="4.91743">
        <ele>568</ele>
        <time>2012-12-08T09:16:47Z</time>
      </trkpt>
      <trkpt lat="47.28046" lon="4.91745">
        <ele>569</ele>
        <time>2012-12-08T09:16:51Z</time>
      </trkpt>
      <trkpt lat="47.28051" lon="4.91746">
        <ele>570</ele>
        <time>2012-12-08T09:16:55Z</time>
      </trkpt>
      <trkpt lat="47.28056" lon="4.91748">
        <ele>571</ele>
        <time>2012-12-08T09:16:59Z</time>
      </trkpt>
      <trkpt lat="47.28063" lon="4.9175">
        <ele>572</ele>
        <time>2012-12-08T09:17:04Z</time>
      </trkpt>
      <trkpt lat="47.28067" lon="4.91751">
        <ele>571</ele>
        <time>2012-12-08T09:17:07Z</time>
      </trkpt>
      <trkpt lat="47.28072" lon="4.91751">
        <ele>572</ele>
        <time>2012-12-08T09:17:11Z</time>
      </trkpt>
      <trkpt lat="47.28077" lon="4.91749">
        <ele>572</ele>
        <time>2012-12-08T09:17:15Z</time>
      </trkpt>
      <trkpt lat="47.28082" lon="4.91745">
        <ele>576</ele>
        <time>2012-12-08T09:17:20Z</time>
      </trkpt>
      <trkpt lat="47.28086" lon="4.91745">
        <ele>575</ele>
        <time>2012-12-08T09:17:24Z</time>
      </trkpt>
      <trkpt lat="47.28092" lon="4.91746">
        <ele>575</ele>
        <time>2012-12-08T09:17:28Z</time>
      </trkpt>
      <trkpt lat="47.28097" lon="4.91747">
        <ele>575</ele>
        <time>2012-12-08T09:17:31Z</time>
      </trkpt>
      <trkpt lat="47.28102" lon="4.91749">
        <ele>574</ele>
        <time>2012-12-08T09:17:34Z</time>
      </trkpt>
      <trkpt lat="47.28108" lon="4.91752">
        <ele>574</ele>
        <time>2012-12-08T09:17:38Z</time>
      </trkpt>
      <trkpt lat="47.28113" lon="4.91751">
        <ele>576</ele>
        <time>2012-12-08T09:17:42Z</time>
      </trkpt>
      <trkpt lat="47.28119" lon="4.91752">
        <ele>576</ele>
        <time>2012-12-08T09:17:45Z</time>
      </trkpt>
      <trkpt lat="47.28124" lon="4.91754">
        <ele>576</ele>
        <time>2012-12-08T09:17:48Z</time>
      </trkpt>
      <trkpt lat="47.28129" lon="4.91752">
        <ele>578</ele>
        <time>2012-12-08T09:17:52Z</time>
      </trkpt>
      <trkpt lat="47.28135" lon="4.91755">
        <ele>578</ele>
        <time>2012-12-08T09:17:55Z</time>
      </trkpt>
      <trkpt lat="47.28141" lon="4.91758">
        <ele>577</ele>
        <time>2012-12-08T09:17:58Z</time>
      </trkpt>
      <trkpt lat="47.28148" lon="4.91759">
        <ele>577</ele>
        <time>2012-12-08T09:18:01Z</time>
      </trkpt>
      <trkpt lat="47.28152" lon="4.91763">
        <ele>577</ele>
        <time>2012-12-08T09:18:04Z</time>
      </trkpt>
      <trkpt lat="47.28159" lon="4.91765">
        <ele>577</ele>
        <time>2012-12-08T09:18:08Z</time>
      </trkpt>
      <trkpt lat="47.28164" lon="4.91766">
        <ele>577</ele>
        <time>2012-12-08T09:18:12Z</time>
      </trkpt>
      <trkpt lat="47.2817" lon="4.9177">
        <ele>577</ele>
        <time>2012-12-08T09:18:16Z</time>
      </trkpt>
      <trkpt lat="47.28174" lon="4.91773">
        <ele>577</ele>
        <time>2012-12-08T09:18:19Z</time>
      </trkpt>
      <trkpt lat="47.28178" lon="4.91777">
        <ele>577</ele>
        <time>2012-12-08T09:18:22Z</time>
      </trkpt>
      <trkpt lat="47.28181" lon="4.91781">
        <ele>579</ele>
        <time>2012-12-08T09:18:26Z</time>
      </trkpt>
      <trkpt lat="47.28186" lon="4.91786">
        <ele>579</ele>
        <time>2012-12-08T09:18:30Z</time>
      </trkpt>
      <trkpt lat="47.28191" lon="4.91789">
        <ele>581</ele>
        <time>2012-12-08T09:18:35Z</time>
      </trkpt>
      <trkpt lat="47.28195" lon="4.91795">
        <ele>581</ele>
        <time>2012-12-08T09:18:38Z</time>
      </trkpt>
      <trkpt lat="47.282" lon="4.91799">
        <ele>582</ele>
        <time>2012-12-08T09:18:42Z</time>
      </trkpt>
      <trkpt lat="47.28207" lon="4.91802">
        <ele>583</ele>
        <time>2012-12-08T09:18:46Z</time>
      </trkpt>
      <trkpt lat="47.28211" lon="4.91807">
        <ele>584</ele>
        <time>2012-12-08T09:18:48Z</time>
      </trkpt>
      <trkpt lat="47.28216" lon="4.91808">
        <ele>585</ele>
        <time>2012-12-08T09:18:53Z</time>
      </trkpt>
      <trkpt lat="47.2822" lon="4.91811">
        <ele>585</ele>
        <time>2012-12-08T09:18:59Z</time>
      </trkpt>
      <trkpt lat="47.28225" lon="4.91814">
        <ele>585</ele>
        <time>2012-12-08T09:19:05Z</time>
      </trkpt>
      <trkpt lat="47.2823" lon="4.91817">
        <ele>586</ele>
        <time>2012-12-08T09:19:08Z</time>
      </trkpt>
      <trkpt lat="47.28234" lon="4.91824">
        <ele>587</ele>
        <time>2012-12-08T09:19:10Z</time>
      </trkpt>
      <trkpt lat="47.28239" lon="4.91828">
        <ele>589</ele>
        <time>2012-12-08T09:19:14Z</time>
      </trkpt>
      <trkpt lat="47.28244" lon="4.91832">
        <ele>590</ele>
        <time>2012-12-08T09:19:20Z</time>
      </trkpt>
      <trkpt lat="47.28249" lon="4.91832">
        <ele>593</ele>
        <time>2012-12-08T09:19:24Z</time>
      </trkpt>
      <trkpt lat="47.28253" lon="4.91836">
        <ele>593</ele>
        <time>2012-12-08T09:19:26Z</time>
      </trkpt>
      <trkpt lat="47.28258" lon="4.91844">
        <ele>591</ele>
        <time>2012-12-08T09:19:31Z</time>
      </trkpt>
      <trkpt lat="47.28261" lon="4.91849">
        <ele>594</ele>
        <time>2012-12-08T09:19:36Z</time>
      </trkpt>
      <trkpt lat="47.28264" lon="4.91854">
        <ele>594</ele>
        <time>2012-12-08T09:19:40Z</time>
      </trkpt>
      <trkpt lat="47.2827" lon="4.91861">
        <ele>594</ele>
        <time>2012-12-08T09:19:43Z</time>
      </trkpt>
      <trkpt lat="47.28274" lon="4.91866">
        <ele>594</ele>
        <time>2012-12-08T09:19:46Z</time>
      </trkpt>
      <trkpt lat="47.28278" lon="4.9187">
        <ele>593</ele>
        <time>2012-12-08T09:19:49Z</time>
      </trkpt>
      <trkpt lat="47.28282" lon="4.91876">
        <ele>594</ele>
        <time>2012-12-08T09:19:55Z</time>
      </trkpt>
      <trkpt lat="47.28282" lon="4.91876">
        <ele>594</ele>
        <time>2012-12-08T09:19:55Z</time>
      </trkpt>
      <trkpt lat="47.28282" lon="4.91876">
        <ele>594</ele>
        <time>2012-12-08T09:19:56Z</time>
      </trkpt>
      <trkpt lat="47.28285" lon="4.91881">
        <ele>597</ele>
        <time>2012-12-08T09:20:00Z</time>
      </trkpt>
      <trkpt lat="47.28289" lon="4.91887">
        <ele>597</ele>
        <time>2012-12-08T09:20:04Z</time>
      </trkpt>
      <trkpt lat="47.28293" lon="4.91892">
        <ele>597</ele>
        <time>2012-12-08T09:20:08Z</time>
      </trkpt>
      <trkpt lat="47.28298" lon="4.91893">
        <ele>600</ele>
        <time>2012-12-08T09:20:16Z</time>
      </trkpt>
      <trkpt lat="47.28304" lon="4.91896">
        <ele>602</ele>
        <time>2012-12-08T09:20:22Z</time>
      </trkpt>
      <trkpt lat="47.28304" lon="4.91896">
        <ele>602</ele>
        <time>2012-12-08T09:20:22Z</time>
      </trkpt>
      <trkpt lat="47.28304" lon="4.91896">
        <ele>602</ele>
        <time>2012-12-08T09:20:24Z</time>
      </trkpt>
      <trkpt lat="47.28307" lon="4.91901">
        <ele>604</ele>
        <time>2012-12-08T09:20:28Z</time>
      </trkpt>
      <trkpt lat="47.28312" lon="4.91905">
        <ele>604</ele>
        <time>2012-12-08T09:20:31Z</time>
      </trkpt>
      <trkpt lat="47.28316" lon="4.91909">
        <ele>605</ele>
        <time>2012-12-08T09:20:36Z</time>
      </trkpt>
      <trkpt lat="47.2832" lon="4.91914">
        <ele>607</ele>
        <time>2012-12-08T09:20:41Z</time>
      </trkpt>
      <trkpt lat="47.28324" lon="4.91919">
        <ele>608</ele>
        <time>2012-12-08T09:20:48Z</time>
      </trkpt>
      <trkpt lat="47.28329" lon="4.91924">
        <ele>608</ele>
        <time>2012-12-08T09:20:53Z</time>
      </trkpt>
      <trkpt lat="47.28334" lon="4.91929">
        <ele>608</ele>
        <time>2012-12-08T09:20:57Z</time>
      </trkpt>
      <trkpt lat="47.28338" lon="4.91934">
        <ele>609</ele>
        <time>2012-12-08T09:21:01Z</time>
      </trkpt>
      <trkpt lat="47.28342" lon="4.91941">
        <ele>609</ele>
        <time>2012-12-08T09:21:05Z</time>
      </trkpt>
      <trkpt lat="47.28347" lon="4.91944">
        <ele>610</ele>
        <time>2012-12-08T09:21:11Z</time>
      </trkpt>
      <trkpt lat="47.28351" lon="4.91949">
        <ele>611</ele>
        <time>2012-12-08T09:21:15Z</time>
      </trkpt>
      <trkpt lat="47.28355" lon="4.91952">
        <ele>612</ele>
        <time>2012-12-08T09:21:19Z</time>
      </trkpt>
      <trkpt lat="47.28358" lon="4.91957">
        <ele>613</ele>
        <time>2012-12-08T09:21:23Z</time>
      </trkpt>
      <trkpt lat="47.28362" lon="4.91962">
        <ele>612</ele>
        <time>2012-12-08T09:21:29Z</time>
      </trkpt>
      <trkpt lat="47.28367" lon="4.91965">
        <ele>615</ele>
        <time>2012-12-08T09:21:34Z</time>
      </trkpt>
      <trkpt lat="47.28371" lon="4.9197">
        <ele>617</ele>
        <time>2012-12-08T09:21:38Z</time>
      </trkpt>
      <trkpt lat="47.28374" lon="4.91974">
        <ele>618</ele>
        <time>2012-12-08T09:21:46Z</time>
      </trkpt>
      <trkpt lat="47.2838" lon="4.91974">
        <ele>622</ele>
        <time>2012-12-08T09:21:55Z</time>
      </trkpt>
      <trkpt lat="47.28382" lon="4.9198">
        <ele>622</ele>
        <time>2012-12-08T09:22:06Z</time>
      </trkpt>
      <trkpt lat="47.28385" lon="4.91987">
        <ele>623</ele>
        <time>2012-12-08T09:22:12Z</time>
      </trkpt>
      <trkpt lat="47.2839" lon="4.91991">
        <ele>625</ele>
        <time>2012-12-08T09:22:17Z</time>
      </trkpt>
      <trkpt lat="47.28393" lon="4.91998">
        <ele>625</ele>
        <time>2012-12-08T09:22:19Z</time>
      </trkpt>
      <trkpt lat="47.28398" lon="4.92001">
        <ele>627</ele>
        <time>2012-12-08T09:22:23Z</time>
      </trkpt>
      <trkpt lat="47.28402" lon="4.92002">
        <ele>631</ele>
        <time>2012-12-08T09:22:28Z</time>
      </trkpt>
      <trkpt lat="47.28408" lon="4.92009">
        <ele>630</ele>
        <time>2012-12-08T09:22:34Z</time>
      </trkpt>
      <trkpt lat="47.28412" lon="4.92015">
        <ele>631</ele>
        <time>2012-12-08T09:22:42Z</time>
      </trkpt>
      <trkpt lat="47.28416" lon="4.92019">
        <ele>632</ele>
        <time>2012-12-08T09:22:47Z</time>
      </trkpt>
      <trkpt lat="47.2842" lon="4.92024">
        <ele>632</ele>
        <time>2012-12-08T09:22:53Z</time>
      </trkpt>
      <trkpt lat="47.28424" lon="4.92028">
        <ele>633</ele>
        <time>2012-12-08T09:22:59Z</time>
      </trkpt>
      <trkpt lat="47.28428" lon="4.92033">
        <ele>631</ele>
        <time>2012-12-08T09:23:02Z</time>
      </trkpt>
      <trkpt lat="47.28431" lon="4.92038">
        <ele>632</ele>
        <time>2012-12-08T09:23:15Z</time>
      </trkpt>
      <trkpt lat="47.28436" lon="4.92042">
        <ele>633</ele>
        <time>2012-12-08T09:23:21Z</time>
      </trkpt>
      <trkpt lat="47.2844" lon="4.92046">
        <ele>636</ele>
        <time>2012-12-08T09:23:27Z</time>
      </trkpt>
      <trkpt lat="47.28442" lon="4.92052">
        <ele>638</ele>
        <time>2012-12-08T09:23:35Z</time>
      </trkpt>
      <trkpt lat="47.28445" lon="4.92057">
        <ele>639</ele>
        <time>2012-12-08T09:23:40Z</time>
      </trkpt>
      <trkpt lat="47.28448" lon="4.92063">
        <ele>639</ele>
        <time>2012-12-08T09:23:46Z</time>
      </trkpt>
      <trkpt lat="47.28452" lon="4.92068">
        <ele>640</ele>
        <time>2012-12-08T09:23:50Z</time>
      </trkpt>
      <trkpt lat="47.28457" lon="4.9207">
        <ele>641</ele>
        <time>2012-12-08T09:23:54Z</time>
      </trkpt>
      <trkpt lat="47.28461" lon="4.92072">
        <ele>641</ele>
        <time>2012-12-08T09:23:57Z</time>
      </trkpt>
      <trkpt lat="47.28467" lon="4.92072">
        <ele>640</ele>
        <time>2012-12-08T09:24:01Z</time>
      </trkpt>
      <trkpt lat="47.28472" lon="4.92073">
        <ele>641</ele>
        <time>2012-12-08T09:24:05Z</time>
      </trkpt>
      <trkpt lat="47.28477" lon="4.92074">
        <ele>641</ele>
        <time>2012-12-08T09:24:09Z</time>
      </trkpt>
      <trkpt lat="47.28482" lon="4.92076">
        <ele>641</ele>
        <time>2012-12-08T09:24:13Z</time>
      </trkpt>
      <trkpt lat="47.28488" lon="4.92078">
        <ele>641</ele>
        <time>2012-12-08T09:24:17Z</time>
      </trkpt>
      <trkpt lat="47.28492" lon="4.9208">
        <ele>641</ele>
        <time>2012-12-08T09:24:20Z</time>
      </trkpt>
      <trkpt lat="47.28497" lon="4.92082">
        <ele>641</ele>
        <time>2012-12-08T09:24:23Z</time>
      </trkpt>
      <trkpt lat="47.28502" lon="4.92084">
        <ele>641</ele>
        <time>2012-12-08T09:24:26Z</time>
      </trkpt>
      <trkpt lat="47.28507" lon="4.92085">
        <ele>641</ele>
        <time>2012-12-08T09:24:30Z</time>
      </trkpt>
      <trkpt lat="47.28513" lon="4.92086">
        <ele>642</ele>
        <time>2012-12-08T09:24:35Z</time>
      </trkpt>
      <trkpt lat="47.28518" lon="4.92088">
        <ele>643</ele>
        <time>2012-12-08T09:24:39Z</time>
      </trkpt>
      <trkpt lat="47.28522" lon="4.9209">
        <ele>643</ele>
        <time>2012-12-08T09:24:43Z</time>
      </trkpt>
      <trkpt lat="47.28527" lon="4.92092">
        <ele>644</ele>
        <time>2012-12-08T09:24:47Z</time>
      </trkpt>
      <trkpt lat="47.28531" lon="4.92094">
        <ele>645</ele>
        <time>2012-12-08T09:24:52Z</time>
      </trkpt>
      <trkpt lat="47.28536" lon="4.92096">
        <ele>646</ele>
        <time>2012-12-08T09:24:55Z</time>
      </trkpt>
      <trkpt lat="47.2854" lon="4.92098">
        <ele>646</ele>
        <time>2012-12-08T09:24:58Z</time>
      </trkpt>
      <trkpt lat="47.28545" lon="4.921">
        <ele>647</ele>
        <time>2012-12-08T09:25:02Z</time>
      </trkpt>
      <trkpt lat="47.28551" lon="4.921">
        <ele>649</ele>
        <time>2012-12-08T09:25:07Z</time>
      </trkpt>
      <trkpt lat="47.28556" lon="4.92099">
        <ele>649</ele>
        <time>2012-12-08T09:25:10Z</time>
      </trkpt>
      <trkpt lat="47.28561" lon="4.92102">
        <ele>649</ele>
        <time>2012-12-08T09:25:13Z</time>
      </trkpt>
      <trkpt lat="47.28566" lon="4.92103">
        <ele>649</ele>
        <time>2012-12-08T09:25:18Z</time>
      </trkpt>
      <trkpt lat="47.2857" lon="4.92108">
        <ele>649</ele>
        <time>2012-12-08T09:25:21Z</time>
      </trkpt>
      <trkpt lat="47.28572" lon="4.92114">
        <ele>648</ele>
        <time>2012-12-08T09:25:24Z</time>
      </trkpt>
      <trkpt lat="47.28572" lon="4.92122">
        <ele>648</ele>
        <time>2012-12-08T09:25:28Z</time>
      </trkpt>
      <trkpt lat="47.28571" lon="4.9213">
        <ele>647</ele>
        <time>2012-12-08T09:25:32Z</time>
      </trkpt>
      <trkpt lat="47.2857" lon="4.92136">
        <ele>647</ele>
        <time>2012-12-08T09:25:35Z</time>
      </trkpt>
      <trkpt lat="47.28567" lon="4.92141">
        <ele>646</ele>
        <time>2012-12-08T09:25:41Z</time>
      </trkpt>
    </trkseg>
  </trk>
</gpx>